<?xml version="1.0" encoding="UTF-8" standalone="no" ?><gpx xmlns="http://www.topografix.com/GPX/1/1" xmlns:gpxx="http://www.garmin.com/xmlschemas/GpxExtensions/v3" xmlns:wptx1="http://www.garmin.com/xmlschemas/WaypointExtension/v1" xmlns:gpxtpx="http://www.garmin.com/xmlschemas/TrackPointExtension/v1" creator="GuideVTT.com" version="1.1" xmlns:xsi="http://www.w3.org/2001/XMLSchema-instance" xsi:schemaLocation="http://www.topografix.com/GPX/1/1 http://www.topografix.com/GPX/1/1/gpx.xsd http://www.garmin.com/xmlschemas/GpxExtensions/v3 http://www8.garmin.com/xmlschemas/GpxExtensionsv3.xsd http://www.garmin.com/xmlschemas/WaypointExtension/v1 http://www8.garmin.com/xmlschemas/WaypointExtensionv1.xsd http://www.garmin.com/xmlschemas/TrackPointExtension/v1 http://www.garmin.com/xmlschemas/TrackPointExtensionv1.xsd">
<metadata><link href="http://www.garmin.com"><text>Garmin International</text></link><time>2013-06-22T15:13:50Z</time></metadata>
<trk><name>gtj1.gpx</name><extensions><gpxx:TrackExtension><gpxx:DisplayColor>Cyan</gpxx:DisplayColor></gpxx:TrackExtension></extensions><trkseg>
<trkpt lat="47.586262375" lon="6.897982517"><ele></ele><time>2013-8-9T21:49:31Z</time></trkpt>
<trkpt lat="47.586261872" lon="6.897985702"><ele></ele><time>2013-8-9T21:49:34Z</time></trkpt>
<trkpt lat="47.586228596" lon="6.897971118"><ele></ele><time>2013-8-9T21:49:37Z</time></trkpt>
<trkpt lat="47.586230524" lon="6.897975057"><ele></ele><time>2013-8-9T21:49:40Z</time></trkpt>
<trkpt lat="47.586222896" lon="6.897982517"><ele></ele><time>2013-8-9T21:49:43Z</time></trkpt>
<trkpt lat="47.586234128" lon="6.898048483"><ele></ele><time>2013-8-9T21:49:46Z</time></trkpt>
<trkpt lat="47.586233206" lon="6.898087123"><ele></ele><time>2013-8-9T21:49:49Z</time></trkpt>
<trkpt lat="47.586132120" lon="6.898170607"><ele></ele><time>2013-8-9T21:49:52Z</time></trkpt>
<trkpt lat="47.586079817" lon="6.898119645"><ele></ele><time>2013-8-9T21:49:55Z</time></trkpt>
<trkpt lat="47.586045787" lon="6.898077317"><ele></ele><time>2013-8-9T21:49:58Z</time></trkpt>
<trkpt lat="47.585958615" lon="6.897969609"><ele></ele><time>2013-8-9T21:50:1Z</time></trkpt>
<trkpt lat="47.585958783" lon="6.897824854"><ele></ele><time>2013-8-9T21:50:4Z</time></trkpt>
<trkpt lat="47.585974038" lon="6.897563674"><ele></ele><time>2013-8-9T21:50:7Z</time></trkpt>
<trkpt lat="47.585982252" lon="6.897551185"><ele></ele><time>2013-8-9T21:50:10Z</time></trkpt>
<trkpt lat="47.586034806" lon="6.897568032"><ele></ele><time>2013-8-9T21:50:13Z</time></trkpt>
<trkpt lat="47.586047798" lon="6.897589909"><ele></ele><time>2013-8-9T21:50:16Z</time></trkpt>
<trkpt lat="47.586049978" lon="6.897589658"><ele></ele><time>2013-8-9T21:50:19Z</time></trkpt>
<trkpt lat="47.586023072" lon="6.897604745"><ele></ele><time>2013-8-9T21:50:22Z</time></trkpt>
<trkpt lat="47.585947719" lon="6.897618994"><ele></ele><time>2013-8-9T21:50:25Z</time></trkpt>
<trkpt lat="47.585705146" lon="6.897595106"><ele></ele><time>2013-8-9T21:50:28Z</time></trkpt>
<trkpt lat="47.585637169" lon="6.897615893"><ele></ele><time>2013-8-9T21:50:31Z</time></trkpt>
<trkpt lat="47.585500879" lon="6.897642128"><ele></ele><time>2013-8-9T21:50:34Z</time></trkpt>
<trkpt lat="47.585469279" lon="6.897604410"><ele></ele><time>2013-8-9T21:50:37Z</time></trkpt>
<trkpt lat="47.585428711" lon="6.897622431"><ele></ele><time>2013-8-9T21:50:40Z</time></trkpt>
<trkpt lat="47.585410271" lon="6.897626789"><ele></ele><time>2013-8-9T21:50:43Z</time></trkpt>
<trkpt lat="47.585335253" lon="6.897637518"><ele></ele><time>2013-8-9T21:50:46Z</time></trkpt>
<trkpt lat="47.585036941" lon="6.897818986"><ele></ele><time>2013-8-9T21:50:49Z</time></trkpt>
<trkpt lat="47.584985057" lon="6.897836421"><ele></ele><time>2013-8-9T21:50:52Z</time></trkpt>
<trkpt lat="47.584897466" lon="6.897851257"><ele></ele><time>2013-8-9T21:50:55Z</time></trkpt>
<trkpt lat="47.584901322" lon="6.897842875"><ele></ele><time>2013-8-9T21:50:58Z</time></trkpt>
<trkpt lat="47.584890593" lon="6.897844886"><ele></ele><time>2013-8-9T21:51:1Z</time></trkpt>
<trkpt lat="47.584895706" lon="6.897846563"><ele></ele><time>2013-8-9T21:51:4Z</time></trkpt>
<trkpt lat="47.584893694" lon="6.897862488"><ele></ele><time>2013-8-9T21:51:7Z</time></trkpt>
<trkpt lat="47.584813060" lon="6.898084944"><ele></ele><time>2013-8-9T21:51:10Z</time></trkpt>
<trkpt lat="47.584710382" lon="6.898171445"><ele></ele><time>2013-8-9T21:51:13Z</time></trkpt>
<trkpt lat="47.584583564" lon="6.898259874"><ele></ele><time>2013-8-9T21:51:16Z</time></trkpt>
<trkpt lat="47.584454399" lon="6.897906996"><ele></ele><time>2013-8-9T21:51:19Z</time></trkpt>
<trkpt lat="47.584251137" lon="6.897084480"><ele></ele><time>2013-8-9T21:51:22Z</time></trkpt>
<trkpt lat="47.584284749" lon="6.896594139"><ele></ele><time>2013-8-9T21:51:25Z</time></trkpt>
<trkpt lat="47.584326407" lon="6.896412000"><ele></ele><time>2013-8-9T21:51:28Z</time></trkpt>
<trkpt lat="47.584061203" lon="6.896237740"><ele></ele><time>2013-8-9T21:51:31Z</time></trkpt>
<trkpt lat="47.583984928" lon="6.896389453"><ele></ele><time>2013-8-9T21:51:34Z</time></trkpt>
<trkpt lat="47.583945952" lon="6.896505039"><ele></ele><time>2013-8-9T21:51:37Z</time></trkpt>
<trkpt lat="47.583681168" lon="6.896796059"><ele></ele><time>2013-8-9T21:51:40Z</time></trkpt>
<trkpt lat="47.583430214" lon="6.896925308"><ele></ele><time>2013-8-9T21:51:43Z</time></trkpt>
<trkpt lat="47.582921348" lon="6.897066208"><ele></ele><time>2013-8-9T21:51:46Z</time></trkpt>
<trkpt lat="47.582550198" lon="6.897348510"><ele></ele><time>2013-8-9T21:51:49Z</time></trkpt>
<trkpt lat="47.581970673" lon="6.897707088"><ele></ele><time>2013-8-9T21:51:52Z</time></trkpt>
<trkpt lat="47.581537580" lon="6.898099864"><ele></ele><time>2013-8-9T21:51:55Z</time></trkpt>
<trkpt lat="47.581012538" lon="6.898632953"><ele></ele><time>2013-8-9T21:51:58Z</time></trkpt>
<trkpt lat="47.580605513" lon="6.899026483"><ele></ele><time>2013-8-9T21:52:1Z</time></trkpt>
<trkpt lat="47.580322037" lon="6.899197642"><ele></ele><time>2013-8-9T21:52:4Z</time></trkpt>
<trkpt lat="47.579970583" lon="6.899148943"><ele></ele><time>2013-8-9T21:52:7Z</time></trkpt>
<trkpt lat="47.579675456" lon="6.898849290"><ele></ele><time>2013-8-9T21:52:10Z</time></trkpt>
<trkpt lat="47.579656765" lon="6.898781145"><ele></ele><time>2013-8-9T21:52:13Z</time></trkpt>
<trkpt lat="47.579658693" lon="6.898786677"><ele></ele><time>2013-8-9T21:52:16Z</time></trkpt>
<trkpt lat="47.579660201" lon="6.898789862"><ele></ele><time>2013-8-9T21:52:19Z</time></trkpt>
<trkpt lat="47.579659531" lon="6.898786007"><ele></ele><time>2013-8-9T21:52:22Z</time></trkpt>
<trkpt lat="47.579506142" lon="6.898508314"><ele></ele><time>2013-8-9T21:52:25Z</time></trkpt>
<trkpt lat="47.579354513" lon="6.898185443"><ele></ele><time>2013-8-9T21:52:28Z</time></trkpt>
<trkpt lat="47.579313777" lon="6.898225928"><ele></ele><time>2013-8-9T21:52:31Z</time></trkpt>
<trkpt lat="47.579461718" lon="6.898510577"><ele></ele><time>2013-8-9T21:52:34Z</time></trkpt>
<trkpt lat="47.579504214" lon="6.898617530"><ele></ele><time>2013-8-9T21:52:37Z</time></trkpt>
<trkpt lat="47.579501029" lon="6.898619626"><ele></ele><time>2013-8-9T21:52:40Z</time></trkpt>
<trkpt lat="47.579560708" lon="6.898710569"><ele></ele><time>2013-8-9T21:52:43Z</time></trkpt>
<trkpt lat="47.579675289" lon="6.898939814"><ele></ele><time>2013-8-9T21:52:46Z</time></trkpt>
<trkpt lat="47.579739159" lon="6.899185320"><ele></ele><time>2013-8-9T21:52:49Z</time></trkpt>
<trkpt lat="47.579955496" lon="6.899570050"><ele></ele><time>2013-8-9T21:52:52Z</time></trkpt>
<trkpt lat="47.580015510" lon="6.899244916"><ele></ele><time>2013-8-9T21:52:55Z</time></trkpt>
<trkpt lat="47.580042416" lon="6.898905365"><ele></ele><time>2013-8-9T21:52:58Z</time></trkpt>
<trkpt lat="47.580358246" lon="6.897937171"><ele></ele><time>2013-8-9T21:53:1Z</time></trkpt>
<trkpt lat="47.580627389" lon="6.897397544"><ele></ele><time>2013-8-9T21:53:4Z</time></trkpt>
<trkpt lat="47.580690673" lon="6.897296291"><ele></ele><time>2013-8-9T21:53:7Z</time></trkpt>
<trkpt lat="47.580983536" lon="6.896975012"><ele></ele><time>2013-8-9T21:53:10Z</time></trkpt>
<trkpt lat="47.581058973" lon="6.896897061"><ele></ele><time>2013-8-9T21:53:13Z</time></trkpt>
<trkpt lat="47.582337717" lon="6.895493511"><ele></ele><time>2013-8-9T21:53:16Z</time></trkpt>
<trkpt lat="47.583031235" lon="6.894468656"><ele></ele><time>2013-8-9T21:53:19Z</time></trkpt>
<trkpt lat="47.583663985" lon="6.893142052"><ele></ele><time>2013-8-9T21:53:22Z</time></trkpt>
<trkpt lat="47.584100263" lon="6.891868170"><ele></ele><time>2013-8-9T21:53:25Z</time></trkpt>
<trkpt lat="47.584401006" lon="6.890687579"><ele></ele><time>2013-8-9T21:53:28Z</time></trkpt>
<trkpt lat="47.584586246" lon="6.889612181"><ele></ele><time>2013-8-9T21:53:31Z</time></trkpt>
<trkpt lat="47.584705688" lon="6.888445253"><ele></ele><time>2013-8-9T21:53:34Z</time></trkpt>
<trkpt lat="47.584730331" lon="6.887193248"><ele></ele><time>2013-8-9T21:53:37Z</time></trkpt>
<trkpt lat="47.584683644" lon="6.886190856"><ele></ele><time>2013-8-9T21:53:40Z</time></trkpt>
<trkpt lat="47.584542660" lon="6.884918734"><ele></ele><time>2013-8-9T21:53:43Z</time></trkpt>
<trkpt lat="47.584349206" lon="6.883883150"><ele></ele><time>2013-8-9T21:53:46Z</time></trkpt>
<trkpt lat="47.584290113" lon="6.883622725"><ele></ele><time>2013-8-9T21:53:49Z</time></trkpt>
<trkpt lat="47.584144268" lon="6.883017970"><ele></ele><time>2013-8-9T21:53:52Z</time></trkpt>
<trkpt lat="47.583903037" lon="6.881920276"><ele></ele><time>2013-8-9T21:53:55Z</time></trkpt>
<trkpt lat="47.583619393" lon="6.880681263"><ele></ele><time>2013-8-9T21:53:58Z</time></trkpt>
<trkpt lat="47.583481846" lon="6.880027475"><ele></ele><time>2013-8-9T21:54:1Z</time></trkpt>
<trkpt lat="47.583200801" lon="6.878720149"><ele></ele><time>2013-8-9T21:54:4Z</time></trkpt>
<trkpt lat="47.583050178" lon="6.877934346"><ele></ele><time>2013-8-9T21:54:7Z</time></trkpt>
<trkpt lat="47.583018243" lon="6.876677144"><ele></ele><time>2013-8-9T21:54:10Z</time></trkpt>
<trkpt lat="47.583112372" lon="6.875351211"><ele></ele><time>2013-8-9T21:54:13Z</time></trkpt>
<trkpt lat="47.583107511" lon="6.875147866"><ele></ele><time>2013-8-9T21:54:16Z</time></trkpt>
<trkpt lat="47.583250254" lon="6.874549566"><ele></ele><time>2013-8-9T21:54:19Z</time></trkpt>
<trkpt lat="47.583099548" lon="6.874224264"><ele></ele><time>2013-8-9T21:54:22Z</time></trkpt>
<trkpt lat="47.582934760" lon="6.874294588"><ele></ele><time>2013-8-9T21:54:25Z</time></trkpt>
<trkpt lat="47.582782209" lon="6.874525594"><ele></ele><time>2013-8-9T21:54:28Z</time></trkpt>
<trkpt lat="47.582437210" lon="6.874741428"><ele></ele><time>2013-8-9T21:54:31Z</time></trkpt>
<trkpt lat="47.582269069" lon="6.874840166"><ele></ele><time>2013-8-9T21:54:34Z</time></trkpt>
<trkpt lat="47.581814267" lon="6.874891212"><ele></ele><time>2013-8-9T21:54:37Z</time></trkpt>
<trkpt lat="47.581722736" lon="6.874865145"><ele></ele><time>2013-8-9T21:54:40Z</time></trkpt>
<trkpt lat="47.581806891" lon="6.875034207"><ele></ele><time>2013-8-9T21:54:43Z</time></trkpt>
<trkpt lat="47.581889117" lon="6.875009229"><ele></ele><time>2013-8-9T21:54:46Z</time></trkpt>
<trkpt lat="47.581977546" lon="6.874948796"><ele></ele><time>2013-8-9T21:54:49Z</time></trkpt>
<trkpt lat="47.582131606" lon="6.874874700"><ele></ele><time>2013-8-9T21:54:52Z</time></trkpt>
<trkpt lat="47.582369400" lon="6.874846704"><ele></ele><time>2013-8-9T21:54:55Z</time></trkpt>
<trkpt lat="47.582535781" lon="6.874773866"><ele></ele><time>2013-8-9T21:54:58Z</time></trkpt>
<trkpt lat="47.582751196" lon="6.874724412"><ele></ele><time>2013-8-9T21:55:1Z</time></trkpt>
<trkpt lat="47.582948003" lon="6.874771686"><ele></ele><time>2013-8-9T21:55:4Z</time></trkpt>
<trkpt lat="47.583214883" lon="6.874514362"><ele></ele><time>2013-8-9T21:55:7Z</time></trkpt>
<trkpt lat="47.583159227" lon="6.874332055"><ele></ele><time>2013-8-9T21:55:10Z</time></trkpt>
<trkpt lat="47.583083119" lon="6.874234742"><ele></ele><time>2013-8-9T21:55:13Z</time></trkpt>
<trkpt lat="47.583016818" lon="6.874183612"><ele></ele><time>2013-8-9T21:55:16Z</time></trkpt>
<trkpt lat="47.582892263" lon="6.874030810"><ele></ele><time>2013-8-9T21:55:19Z</time></trkpt>
<trkpt lat="47.582659582" lon="6.873411303"><ele></ele><time>2013-8-9T21:55:22Z</time></trkpt>
<trkpt lat="47.582489429" lon="6.872982234"><ele></ele><time>2013-8-9T21:55:25Z</time></trkpt>
<trkpt lat="47.582337046" lon="6.872522822"><ele></ele><time>2013-8-9T21:55:28Z</time></trkpt>
<trkpt lat="47.582226908" lon="6.871966682"><ele></ele><time>2013-8-9T21:55:31Z</time></trkpt>
<trkpt lat="47.582148956" lon="6.871028580"><ele></ele><time>2013-8-9T21:55:34Z</time></trkpt>
<trkpt lat="47.582191536" lon="6.870234227"><ele></ele><time>2013-8-9T21:55:37Z</time></trkpt>
<trkpt lat="47.582297819" lon="6.869277852"><ele></ele><time>2013-8-9T21:55:40Z</time></trkpt>
<trkpt lat="47.582477275" lon="6.868178900"><ele></ele><time>2013-8-9T21:55:43Z</time></trkpt>
<trkpt lat="47.582785226" lon="6.866754983"><ele></ele><time>2013-8-9T21:55:46Z</time></trkpt>
<trkpt lat="47.583145816" lon="6.865466433"><ele></ele><time>2013-8-9T21:55:49Z</time></trkpt>
<trkpt lat="47.583259642" lon="6.865076926"><ele></ele><time>2013-8-9T21:55:52Z</time></trkpt>
<trkpt lat="47.583342455" lon="6.864792863"><ele></ele><time>2013-8-9T21:55:55Z</time></trkpt>
<trkpt lat="47.583421832" lon="6.864537969"><ele></ele><time>2013-8-9T21:55:58Z</time></trkpt>
<trkpt lat="47.583883088" lon="6.863050768"><ele></ele><time>2013-8-9T21:56:1Z</time></trkpt>
<trkpt lat="47.584130270" lon="6.862231940"><ele></ele><time>2013-8-9T21:56:4Z</time></trkpt>
<trkpt lat="47.584360437" lon="6.861487627"><ele></ele><time>2013-8-9T21:56:7Z</time></trkpt>
<trkpt lat="47.584510390" lon="6.860866360"><ele></ele><time>2013-8-9T21:56:10Z</time></trkpt>
<trkpt lat="47.584503768" lon="6.860208884"><ele></ele><time>2013-8-9T21:56:13Z</time></trkpt>
<trkpt lat="47.584480634" lon="6.860154569"><ele></ele><time>2013-8-9T21:56:16Z</time></trkpt>
<trkpt lat="47.584276199" lon="6.859978130"><ele></ele><time>2013-8-9T21:56:19Z</time></trkpt>
<trkpt lat="47.584062461" lon="6.859733127"><ele></ele><time>2013-8-9T21:56:22Z</time></trkpt>
<trkpt lat="47.583909491" lon="6.859458871"><ele></ele><time>2013-8-9T21:56:25Z</time></trkpt>
<trkpt lat="47.583605228" lon="6.858807513"><ele></ele><time>2013-8-9T21:56:28Z</time></trkpt>
<trkpt lat="47.583557116" lon="6.858638870"><ele></ele><time>2013-8-9T21:56:31Z</time></trkpt>
<trkpt lat="47.583514620" lon="6.858375510"><ele></ele><time>2013-8-9T21:56:34Z</time></trkpt>
<trkpt lat="47.583529456" lon="6.858032355"><ele></ele><time>2013-8-9T21:56:37Z</time></trkpt>
<trkpt lat="47.583363410" lon="6.857820544"><ele></ele><time>2013-8-9T21:56:40Z</time></trkpt>
<trkpt lat="47.583230808" lon="6.857883493"><ele></ele><time>2013-8-9T21:56:43Z</time></trkpt>
<trkpt lat="47.583044311" lon="6.857893802"><ele></ele><time>2013-8-9T21:56:46Z</time></trkpt>
<trkpt lat="47.582853874" lon="6.857914925"><ele></ele><time>2013-8-9T21:56:49Z</time></trkpt>
<trkpt lat="47.582662432" lon="6.857988183"><ele></ele><time>2013-8-9T21:56:52Z</time></trkpt>
<trkpt lat="47.582437880" lon="6.858144170"><ele></ele><time>2013-8-9T21:56:55Z</time></trkpt>
<trkpt lat="47.581717121" lon="6.858979845"><ele></ele><time>2013-8-9T21:56:58Z</time></trkpt>
<trkpt lat="47.580997283" lon="6.859457614"><ele></ele><time>2013-8-9T21:57:1Z</time></trkpt>
<trkpt lat="47.580341483" lon="6.859556939"><ele></ele><time>2013-8-9T21:57:4Z</time></trkpt>
<trkpt lat="47.579559535" lon="6.859671017"><ele></ele><time>2013-8-9T21:57:7Z</time></trkpt>
<trkpt lat="47.578646410" lon="6.859800518"><ele></ele><time>2013-8-9T21:57:10Z</time></trkpt>
<trkpt lat="47.578301830" lon="6.859850977"><ele></ele><time>2013-8-9T21:57:13Z</time></trkpt>
<trkpt lat="47.578132348" lon="6.859860616"><ele></ele><time>2013-8-9T21:57:16Z</time></trkpt>
<trkpt lat="47.577938810" lon="6.859746454"><ele></ele><time>2013-8-9T21:57:19Z</time></trkpt>
<trkpt lat="47.577779973" lon="6.859786017"><ele></ele><time>2013-8-9T21:57:22Z</time></trkpt>
<trkpt lat="47.577702608" lon="6.859864555"><ele></ele><time>2013-8-9T21:57:25Z</time></trkpt>
<trkpt lat="47.577513847" lon="6.859955248"><ele></ele><time>2013-8-9T21:57:28Z</time></trkpt>
<trkpt lat="47.576504666" lon="6.860075193"><ele></ele><time>2013-8-9T21:57:31Z</time></trkpt>
<trkpt lat="47.575941822" lon="6.860145684"><ele></ele><time>2013-8-9T21:57:34Z</time></trkpt>
<trkpt lat="47.575850710" lon="6.860159179"><ele></ele><time>2013-8-9T21:57:37Z</time></trkpt>
<trkpt lat="47.575753816" lon="6.860183571"><ele></ele><time>2013-8-9T21:57:40Z</time></trkpt>
<trkpt lat="47.574884361" lon="6.860301588"><ele></ele><time>2013-8-9T21:57:43Z</time></trkpt>
<trkpt lat="47.574051032" lon="6.860416504"><ele></ele><time>2013-8-9T21:57:46Z</time></trkpt>
<trkpt lat="47.573814327" lon="6.860448103"><ele></ele><time>2013-8-9T21:57:49Z</time></trkpt>
<trkpt lat="47.573704273" lon="6.860199245"><ele></ele><time>2013-8-9T21:57:52Z</time></trkpt>
<trkpt lat="47.573770909" lon="6.860007886"><ele></ele><time>2013-8-9T21:57:55Z</time></trkpt>
<trkpt lat="47.573835785" lon="6.859370191"><ele></ele><time>2013-8-9T21:57:58Z</time></trkpt>
<trkpt lat="47.573835952" lon="6.859288300"><ele></ele><time>2013-8-9T21:58:1Z</time></trkpt>
<trkpt lat="47.573825391" lon="6.859238762"><ele></ele><time>2013-8-9T21:58:4Z</time></trkpt>
<trkpt lat="47.573828744" lon="6.859229542"><ele></ele><time>2013-8-9T21:58:7Z</time></trkpt>
<trkpt lat="47.573823044" lon="6.859218646"><ele></ele><time>2013-8-9T21:58:10Z</time></trkpt>
<trkpt lat="47.573812315" lon="6.859225435"><ele></ele><time>2013-8-9T21:58:13Z</time></trkpt>
<trkpt lat="47.573806615" lon="6.859230967"><ele></ele><time>2013-8-9T21:58:16Z</time></trkpt>
<trkpt lat="47.573806783" lon="6.859223759"><ele></ele><time>2013-8-9T21:58:19Z</time></trkpt>
<trkpt lat="47.573815752" lon="6.859218562"><ele></ele><time>2013-8-9T21:58:22Z</time></trkpt>
<trkpt lat="47.573820362" lon="6.859221160"><ele></ele><time>2013-8-9T21:58:25Z</time></trkpt>
<trkpt lat="47.573716594" lon="6.859086799"><ele></ele><time>2013-8-9T21:58:28Z</time></trkpt>
<trkpt lat="47.573675942" lon="6.859090654"><ele></ele><time>2013-8-9T21:58:31Z</time></trkpt>
<trkpt lat="47.572895167" lon="6.859110603"><ele></ele><time>2013-8-9T21:58:34Z</time></trkpt>
<trkpt lat="47.572255880" lon="6.859115716"><ele></ele><time>2013-8-9T21:58:37Z</time></trkpt>
<trkpt lat="47.571575018" lon="6.859104233"><ele></ele><time>2013-8-9T21:58:40Z</time></trkpt>
<trkpt lat="47.570920559" lon="6.859094678"><ele></ele><time>2013-8-9T21:58:43Z</time></trkpt>
<trkpt lat="47.570399623" lon="6.859155446"><ele></ele><time>2013-8-9T21:58:46Z</time></trkpt>
<trkpt lat="47.569831330" lon="6.859332975"><ele></ele><time>2013-8-9T21:58:49Z</time></trkpt>
<trkpt lat="47.569401339" lon="6.859527351"><ele></ele><time>2013-8-9T21:58:52Z</time></trkpt>
<trkpt lat="47.568762973" lon="6.859828513"><ele></ele><time>2013-8-9T21:58:55Z</time></trkpt>
<trkpt lat="47.568108095" lon="6.860133950"><ele></ele><time>2013-8-9T21:58:58Z</time></trkpt>
<trkpt lat="47.567940624" lon="6.860217433"><ele></ele><time>2013-8-9T21:59:1Z</time></trkpt>
<trkpt lat="47.567225145" lon="6.860558996"><ele></ele><time>2013-8-9T21:59:4Z</time></trkpt>
<trkpt lat="47.567128586" lon="6.860579196"><ele></ele><time>2013-8-9T21:59:7Z</time></trkpt>
<trkpt lat="47.567072846" lon="6.860558912"><ele></ele><time>2013-8-9T21:59:10Z</time></trkpt>
<trkpt lat="47.566824909" lon="6.860624626"><ele></ele><time>2013-8-9T21:59:13Z</time></trkpt>
<trkpt lat="47.566379998" lon="6.860808609"><ele></ele><time>2013-8-9T21:59:16Z</time></trkpt>
<trkpt lat="47.566235829" lon="6.860880023"><ele></ele><time>2013-8-9T21:59:19Z</time></trkpt>
<trkpt lat="47.566060983" lon="6.860974738"><ele></ele><time>2013-8-9T21:59:22Z</time></trkpt>
<trkpt lat="47.565979175" lon="6.861022683"><ele></ele><time>2013-8-9T21:59:25Z</time></trkpt>
<trkpt lat="47.565865349" lon="6.860909946"><ele></ele><time>2013-8-9T21:59:28Z</time></trkpt>
<trkpt lat="47.565777004" lon="6.860701404"><ele></ele><time>2013-8-9T21:59:31Z</time></trkpt>
<trkpt lat="47.565039145" lon="6.861031651"><ele></ele><time>2013-8-9T21:59:34Z</time></trkpt>
<trkpt lat="47.564836303" lon="6.861268692"><ele></ele><time>2013-8-9T21:59:37Z</time></trkpt>
<trkpt lat="47.564849546" lon="6.861249329"><ele></ele><time>2013-8-9T21:59:40Z</time></trkpt>
<trkpt lat="47.564865388" lon="6.861258801"><ele></ele><time>2013-8-9T21:59:43Z</time></trkpt>
<trkpt lat="47.564863125" lon="6.861250838"><ele></ele><time>2013-8-9T21:59:46Z</time></trkpt>
<trkpt lat="47.564856755" lon="6.861362821"><ele></ele><time>2013-8-9T21:59:49Z</time></trkpt>
<trkpt lat="47.564851977" lon="6.861459045"><ele></ele><time>2013-8-9T21:59:52Z</time></trkpt>
<trkpt lat="47.564673275" lon="6.861768086"><ele></ele><time>2013-8-9T21:59:55Z</time></trkpt>
<trkpt lat="47.563815219" lon="6.862192461"><ele></ele><time>2013-8-9T21:59:58Z</time></trkpt>
<trkpt lat="47.562929168" lon="6.862620525"><ele></ele><time>2013-8-9T22:0:1Z</time></trkpt>
<trkpt lat="47.562120147" lon="6.863002069"><ele></ele><time>2013-8-9T22:0:4Z</time></trkpt>
<trkpt lat="47.561376085" lon="6.863353187"><ele></ele><time>2013-8-9T22:0:7Z</time></trkpt>
<trkpt lat="47.561058495" lon="6.863507163"><ele></ele><time>2013-8-9T22:0:10Z</time></trkpt>
<trkpt lat="47.560348213" lon="6.863850402"><ele></ele><time>2013-8-9T22:0:13Z</time></trkpt>
<trkpt lat="47.559563918" lon="6.864224737"><ele></ele><time>2013-8-9T22:0:16Z</time></trkpt>
<trkpt lat="47.559475740" lon="6.864264216"><ele></ele><time>2013-8-9T22:0:19Z</time></trkpt>
<trkpt lat="47.558680465" lon="6.864555571"><ele></ele><time>2013-8-9T22:0:22Z</time></trkpt>
<trkpt lat="47.558542164" lon="6.864638887"><ele></ele><time>2013-8-9T22:0:25Z</time></trkpt>
<trkpt lat="47.558341585" lon="6.864663949"><ele></ele><time>2013-8-9T22:0:28Z</time></trkpt>
<trkpt lat="47.558185598" lon="6.864665290"><ele></ele><time>2013-8-9T22:0:31Z</time></trkpt>
<trkpt lat="47.557337266" lon="6.864863690"><ele></ele><time>2013-8-9T22:0:34Z</time></trkpt>
<trkpt lat="47.556383153" lon="6.865058988"><ele></ele><time>2013-8-9T22:0:37Z</time></trkpt>
<trkpt lat="47.555465167" lon="6.865219083"><ele></ele><time>2013-8-9T22:0:40Z</time></trkpt>
<trkpt lat="47.554602250" lon="6.865397701"><ele></ele><time>2013-8-9T22:0:43Z</time></trkpt>
<trkpt lat="47.554364456" lon="6.865451261"><ele></ele><time>2013-8-9T22:0:46Z</time></trkpt>
<trkpt lat="47.553496007" lon="6.865634490"><ele></ele><time>2013-8-9T22:0:49Z</time></trkpt>
<trkpt lat="47.553348821" lon="6.865657708"><ele></ele><time>2013-8-9T22:0:52Z</time></trkpt>
<trkpt lat="47.552574836" lon="6.865814030"><ele></ele><time>2013-8-9T22:0:55Z</time></trkpt>
<trkpt lat="47.552084830" lon="6.865919642"><ele></ele><time>2013-8-9T22:0:58Z</time></trkpt>
<trkpt lat="47.551233480" lon="6.866099266"><ele></ele><time>2013-8-9T22:1:1Z</time></trkpt>
<trkpt lat="47.550528813" lon="6.866240418"><ele></ele><time>2013-8-9T22:1:4Z</time></trkpt>
<trkpt lat="47.549680732" lon="6.866339995"><ele></ele><time>2013-8-9T22:1:7Z</time></trkpt>
<trkpt lat="47.549041193" lon="6.866300516"><ele></ele><time>2013-8-9T22:1:10Z</time></trkpt>
<trkpt lat="47.548209960" lon="6.866220133"><ele></ele><time>2013-8-9T22:1:13Z</time></trkpt>
<trkpt lat="47.547324412" lon="6.865967838"><ele></ele><time>2013-8-9T22:1:16Z</time></trkpt>
<trkpt lat="47.546548583" lon="6.865701545"><ele></ele><time>2013-8-9T22:1:19Z</time></trkpt>
<trkpt lat="47.545896638" lon="6.865475317"><ele></ele><time>2013-8-9T22:1:22Z</time></trkpt>
<trkpt lat="47.545207143" lon="6.865274152"><ele></ele><time>2013-8-9T22:1:25Z</time></trkpt>
<trkpt lat="47.545118127" lon="6.865235176"><ele></ele><time>2013-8-9T22:1:28Z</time></trkpt>
<trkpt lat="47.544998098" lon="6.865136186"><ele></ele><time>2013-8-9T22:1:31Z</time></trkpt>
<trkpt lat="47.544411868" lon="6.864925465"><ele></ele><time>2013-8-9T22:1:34Z</time></trkpt>
<trkpt lat="47.543800659" lon="6.864728238"><ele></ele><time>2013-8-9T22:1:37Z</time></trkpt>
<trkpt lat="47.543159360" lon="6.864501927"><ele></ele><time>2013-8-9T22:1:40Z</time></trkpt>
<trkpt lat="47.542400211" lon="6.864240076"><ele></ele><time>2013-8-9T22:1:43Z</time></trkpt>
<trkpt lat="47.541856729" lon="6.864047293"><ele></ele><time>2013-8-9T22:1:46Z</time></trkpt>
<trkpt lat="47.541171424" lon="6.863803715"><ele></ele><time>2013-8-9T22:1:49Z</time></trkpt>
<trkpt lat="47.540968917" lon="6.863732384"><ele></ele><time>2013-8-9T22:1:52Z</time></trkpt>
<trkpt lat="47.540168278" lon="6.863452597"><ele></ele><time>2013-8-9T22:1:55Z</time></trkpt>
<trkpt lat="47.539403765" lon="6.863190411"><ele></ele><time>2013-8-9T22:1:58Z</time></trkpt>
<trkpt lat="47.538999505" lon="6.863085553"><ele></ele><time>2013-8-9T22:2:1Z</time></trkpt>
<trkpt lat="47.538216887" lon="6.862759162"><ele></ele><time>2013-8-9T22:2:4Z</time></trkpt>
<trkpt lat="47.537255064" lon="6.862429501"><ele></ele><time>2013-8-9T22:2:7Z</time></trkpt>
<trkpt lat="47.536525335" lon="6.862189444"><ele></ele><time>2013-8-9T22:2:10Z</time></trkpt>
<trkpt lat="47.535880599" lon="6.861956343"><ele></ele><time>2013-8-9T22:2:13Z</time></trkpt>
<trkpt lat="47.535056574" lon="6.861674795"><ele></ele><time>2013-8-9T22:2:16Z</time></trkpt>
<trkpt lat="47.534223832" lon="6.861378746"><ele></ele><time>2013-8-9T22:2:19Z</time></trkpt>
<trkpt lat="47.533314731" lon="6.861059312"><ele></ele><time>2013-8-9T22:2:22Z</time></trkpt>
<trkpt lat="47.532451479" lon="6.860755887"><ele></ele><time>2013-8-9T22:2:25Z</time></trkpt>
<trkpt lat="47.531956863" lon="6.860584142"><ele></ele><time>2013-8-9T22:2:28Z</time></trkpt>
<trkpt lat="47.531207520" lon="6.860320531"><ele></ele><time>2013-8-9T22:2:31Z</time></trkpt>
<trkpt lat="47.530268328" lon="6.859994475"><ele></ele><time>2013-8-9T22:2:34Z</time></trkpt>
<trkpt lat="47.529836157" lon="6.859837398"><ele></ele><time>2013-8-9T22:2:37Z</time></trkpt>
<trkpt lat="47.529680086" lon="6.859822478"><ele></ele><time>2013-8-9T22:2:40Z</time></trkpt>
<trkpt lat="47.529312959" lon="6.859660037"><ele></ele><time>2013-8-9T22:2:43Z</time></trkpt>
<trkpt lat="47.529168874" lon="6.859633969"><ele></ele><time>2013-8-9T22:2:46Z</time></trkpt>
<trkpt lat="47.528470578" lon="6.859698929"><ele></ele><time>2013-8-9T22:2:49Z</time></trkpt>
<trkpt lat="47.527895328" lon="6.859942004"><ele></ele><time>2013-8-9T22:2:52Z</time></trkpt>
<trkpt lat="47.527585449" lon="6.860148870"><ele></ele><time>2013-8-9T22:2:55Z</time></trkpt>
<trkpt lat="47.526961500" lon="6.860643066"><ele></ele><time>2013-8-9T22:2:58Z</time></trkpt>
<trkpt lat="47.526401505" lon="6.861084877"><ele></ele><time>2013-8-9T22:3:1Z</time></trkpt>
<trkpt lat="47.526152646" lon="6.861280426"><ele></ele><time>2013-8-9T22:3:4Z</time></trkpt>
<trkpt lat="47.525713770" lon="6.861641603"><ele></ele><time>2013-8-9T22:3:7Z</time></trkpt>
<trkpt lat="47.525077416" lon="6.862402009"><ele></ele><time>2013-8-9T22:3:10Z</time></trkpt>
<trkpt lat="47.524598641" lon="6.863289233"><ele></ele><time>2013-8-9T22:3:13Z</time></trkpt>
<trkpt lat="47.524479702" lon="6.863564747"><ele></ele><time>2013-8-9T22:3:16Z</time></trkpt>
<trkpt lat="47.524209386" lon="6.864445601"><ele></ele><time>2013-8-9T22:3:19Z</time></trkpt>
<trkpt lat="47.524168817" lon="6.864628829"><ele></ele><time>2013-8-9T22:3:22Z</time></trkpt>
<trkpt lat="47.524176864" lon="6.864651125"><ele></ele><time>2013-8-9T22:3:25Z</time></trkpt>
<trkpt lat="47.524175188" lon="6.864682808"><ele></ele><time>2013-8-9T22:3:28Z</time></trkpt>
<trkpt lat="47.524172925" lon="6.864719018"><ele></ele><time>2013-8-9T22:3:31Z</time></trkpt>
<trkpt lat="47.524162196" lon="6.864751792"><ele></ele><time>2013-8-9T22:3:34Z</time></trkpt>
<trkpt lat="47.524151299" lon="6.864811974"><ele></ele><time>2013-8-9T22:3:37Z</time></trkpt>
<trkpt lat="47.524077706" lon="6.865261998"><ele></ele><time>2013-8-9T22:3:40Z</time></trkpt>
<trkpt lat="47.523992043" lon="6.865872284"><ele></ele><time>2013-8-9T22:3:43Z</time></trkpt>
<trkpt lat="47.523967819" lon="6.866382072"><ele></ele><time>2013-8-9T22:3:46Z</time></trkpt>
<trkpt lat="47.523950720" lon="6.866507716"><ele></ele><time>2013-8-9T22:3:49Z</time></trkpt>
<trkpt lat="47.523911325" lon="6.866635792"><ele></ele><time>2013-8-9T22:3:52Z</time></trkpt>
<trkpt lat="47.523844773" lon="6.867108699"><ele></ele><time>2013-8-9T22:3:55Z</time></trkpt>
<trkpt lat="47.523825830" lon="6.867236355"><ele></ele><time>2013-8-9T22:3:58Z</time></trkpt>
<trkpt lat="47.523693144" lon="6.868321728"><ele></ele><time>2013-8-9T22:4:1Z</time></trkpt>
<trkpt lat="47.523641344" lon="6.868702853"><ele></ele><time>2013-8-9T22:4:4Z</time></trkpt>
<trkpt lat="47.523504635" lon="6.869728966"><ele></ele><time>2013-8-9T22:4:7Z</time></trkpt>
<trkpt lat="47.523488877" lon="6.869886294"><ele></ele><time>2013-8-9T22:4:10Z</time></trkpt>
<trkpt lat="47.523421906" lon="6.870416785"><ele></ele><time>2013-8-9T22:4:13Z</time></trkpt>
<trkpt lat="47.523286706" lon="6.871522190"><ele></ele><time>2013-8-9T22:4:16Z</time></trkpt>
<trkpt lat="47.523135748" lon="6.872704625"><ele></ele><time>2013-8-9T22:4:19Z</time></trkpt>
<trkpt lat="47.523107836" lon="6.872947114"><ele></ele><time>2013-8-9T22:4:22Z</time></trkpt>
<trkpt lat="47.522998787" lon="6.873843893"><ele></ele><time>2013-8-9T22:4:25Z</time></trkpt>
<trkpt lat="47.522953190" lon="6.875000764"><ele></ele><time>2013-8-9T22:4:28Z</time></trkpt>
<trkpt lat="47.523027118" lon="6.875639213"><ele></ele><time>2013-8-9T22:4:31Z</time></trkpt>
<trkpt lat="47.523242869" lon="6.876711342"><ele></ele><time>2013-8-9T22:4:34Z</time></trkpt>
<trkpt lat="47.523256196" lon="6.876786444"><ele></ele><time>2013-8-9T22:4:37Z</time></trkpt>
<trkpt lat="47.523279078" lon="6.876995741"><ele></ele><time>2013-8-9T22:4:40Z</time></trkpt>
<trkpt lat="47.523431377" lon="6.878022440"><ele></ele><time>2013-8-9T22:4:43Z</time></trkpt>
<trkpt lat="47.523521651" lon="6.878326116"><ele></ele><time>2013-8-9T22:4:46Z</time></trkpt>
<trkpt lat="47.523584180" lon="6.878457628"><ele></ele><time>2013-8-9T22:4:49Z</time></trkpt>
<trkpt lat="47.523594405" lon="6.878798604"><ele></ele><time>2013-8-9T22:4:52Z</time></trkpt>
<trkpt lat="47.523345463" lon="6.879618270"><ele></ele><time>2013-8-9T22:4:55Z</time></trkpt>
<trkpt lat="47.523291064" lon="6.879830416"><ele></ele><time>2013-8-9T22:4:58Z</time></trkpt>
<trkpt lat="47.523253597" lon="6.880061757"><ele></ele><time>2013-8-9T22:5:1Z</time></trkpt>
<trkpt lat="47.523177154" lon="6.880376497"><ele></ele><time>2013-8-9T22:5:4Z</time></trkpt>
<trkpt lat="47.522613220" lon="6.880962225"><ele></ele><time>2013-8-9T22:5:7Z</time></trkpt>
<trkpt lat="47.522297809" lon="6.881199600"><ele></ele><time>2013-8-9T22:5:10Z</time></trkpt>
<trkpt lat="47.521919701" lon="6.881664628"><ele></ele><time>2013-8-9T22:5:13Z</time></trkpt>
<trkpt lat="47.521696994" lon="6.881870655"><ele></ele><time>2013-8-9T22:5:16Z</time></trkpt>
<trkpt lat="47.521565147" lon="6.881958414"><ele></ele><time>2013-8-9T22:5:19Z</time></trkpt>
<trkpt lat="47.521021748" lon="6.882105684"><ele></ele><time>2013-8-9T22:5:22Z</time></trkpt>
<trkpt lat="47.520596115" lon="6.881956318"><ele></ele><time>2013-8-9T22:5:25Z</time></trkpt>
<trkpt lat="47.520451527" lon="6.881843414"><ele></ele><time>2013-8-9T22:5:28Z</time></trkpt>
<trkpt lat="47.520359913" lon="6.881748782"><ele></ele><time>2013-8-9T22:5:31Z</time></trkpt>
<trkpt lat="47.520103008" lon="6.881396994"><ele></ele><time>2013-8-9T22:5:34Z</time></trkpt>
<trkpt lat="47.519783238" lon="6.880483031"><ele></ele><time>2013-8-9T22:5:37Z</time></trkpt>
<trkpt lat="47.519515352" lon="6.879609134"><ele></ele><time>2013-8-9T22:5:40Z</time></trkpt>
<trkpt lat="47.519120900" lon="6.878342461"><ele></ele><time>2013-8-9T22:5:43Z</time></trkpt>
<trkpt lat="47.518777745" lon="6.877262872"><ele></ele><time>2013-8-9T22:5:46Z</time></trkpt>
<trkpt lat="47.518513715" lon="6.876407498"><ele></ele><time>2013-8-9T22:5:49Z</time></trkpt>
<trkpt lat="47.518102666" lon="6.875110567"><ele></ele><time>2013-8-9T22:5:52Z</time></trkpt>
<trkpt lat="47.517777365" lon="6.874030056"><ele></ele><time>2013-8-9T22:5:55Z</time></trkpt>
<trkpt lat="47.517435383" lon="6.872925488"><ele></ele><time>2013-8-9T22:5:58Z</time></trkpt>
<trkpt lat="47.517113769" lon="6.871866686"><ele></ele><time>2013-8-9T22:6:1Z</time></trkpt>
<trkpt lat="47.517009834" lon="6.871549850"><ele></ele><time>2013-8-9T22:6:4Z</time></trkpt>
<trkpt lat="47.516968343" lon="6.871427475"><ele></ele><time>2013-8-9T22:6:7Z</time></trkpt>
<trkpt lat="47.516559223" lon="6.870185277"><ele></ele><time>2013-8-9T22:6:10Z</time></trkpt>
<trkpt lat="47.516476326" lon="6.869920911"><ele></ele><time>2013-8-9T22:6:13Z</time></trkpt>
<trkpt lat="47.516032923" lon="6.868502693"><ele></ele><time>2013-8-9T22:6:16Z</time></trkpt>
<trkpt lat="47.515967712" lon="6.868311334"><ele></ele><time>2013-8-9T22:6:19Z</time></trkpt>
<trkpt lat="47.515739556" lon="6.867547743"><ele></ele><time>2013-8-9T22:6:22Z</time></trkpt>
<trkpt lat="47.515655151" lon="6.867276756"><ele></ele><time>2013-8-9T22:6:25Z</time></trkpt>
<trkpt lat="47.515260279" lon="6.865977561"><ele></ele><time>2013-8-9T22:6:28Z</time></trkpt>
<trkpt lat="47.514942102" lon="6.864953376"><ele></ele><time>2013-8-9T22:6:31Z</time></trkpt>
<trkpt lat="47.514839927" lon="6.864639390"><ele></ele><time>2013-8-9T22:6:34Z</time></trkpt>
<trkpt lat="47.514713360" lon="6.864206381"><ele></ele><time>2013-8-9T22:6:37Z</time></trkpt>
<trkpt lat="47.514376575" lon="6.863108939"><ele></ele><time>2013-8-9T22:6:40Z</time></trkpt>
<trkpt lat="47.514191922" lon="6.862509884"><ele></ele><time>2013-8-9T22:6:43Z</time></trkpt>
<trkpt lat="47.513874834" lon="6.861502044"><ele></ele><time>2013-8-9T22:6:46Z</time></trkpt>
<trkpt lat="47.513528075" lon="6.860378617"><ele></ele><time>2013-8-9T22:6:49Z</time></trkpt>
<trkpt lat="47.513272176" lon="6.859550066"><ele></ele><time>2013-8-9T22:6:52Z</time></trkpt>
<trkpt lat="47.513119457" lon="6.859096354"><ele></ele><time>2013-8-9T22:6:55Z</time></trkpt>
<trkpt lat="47.512989873" lon="6.858547926"><ele></ele><time>2013-8-9T22:6:58Z</time></trkpt>
<trkpt lat="47.512886189" lon="6.858521691"><ele></ele><time>2013-8-9T22:7:1Z</time></trkpt>
<trkpt lat="47.512520738" lon="6.858777422"><ele></ele><time>2013-8-9T22:7:4Z</time></trkpt>
<trkpt lat="47.512590559" lon="6.858635349"><ele></ele><time>2013-8-9T22:7:7Z</time></trkpt>
<trkpt lat="47.512657531" lon="6.858539796"><ele></ele><time>2013-8-9T22:7:10Z</time></trkpt>
<trkpt lat="47.512655267" lon="6.858347766"><ele></ele><time>2013-8-9T22:7:13Z</time></trkpt>
<trkpt lat="47.512354106" lon="6.857396085"><ele></ele><time>2013-8-9T22:7:16Z</time></trkpt>
<trkpt lat="47.512140451" lon="6.856721174"><ele></ele><time>2013-8-9T22:7:19Z</time></trkpt>
<trkpt lat="47.511788243" lon="6.855571093"><ele></ele><time>2013-8-9T22:7:22Z</time></trkpt>
<trkpt lat="47.511385996" lon="6.854264103"><ele></ele><time>2013-8-9T22:7:25Z</time></trkpt>
<trkpt lat="47.511047367" lon="6.853189710"><ele></ele><time>2013-8-9T22:7:28Z</time></trkpt>
<trkpt lat="47.510664733" lon="6.851934269"><ele></ele><time>2013-8-9T22:7:31Z</time></trkpt>
<trkpt lat="47.510583596" lon="6.851694211"><ele></ele><time>2013-8-9T22:7:34Z</time></trkpt>
<trkpt lat="47.510360554" lon="6.850928022"><ele></ele><time>2013-8-9T22:7:37Z</time></trkpt>
<trkpt lat="47.510216804" lon="6.850847891"><ele></ele><time>2013-8-9T22:7:40Z</time></trkpt>
<trkpt lat="47.510079760" lon="6.850672206"><ele></ele><time>2013-8-9T22:7:43Z</time></trkpt>
<trkpt lat="47.509773988" lon="6.849666210"><ele></ele><time>2013-8-9T22:7:46Z</time></trkpt>
<trkpt lat="47.509740209" lon="6.849535452"><ele></ele><time>2013-8-9T22:7:49Z</time></trkpt>
<trkpt lat="47.509727050" lon="6.848978223"><ele></ele><time>2013-8-9T22:7:52Z</time></trkpt>
<trkpt lat="47.509450531" lon="6.848013047"><ele></ele><time>2013-8-9T22:7:55Z</time></trkpt>
<trkpt lat="47.509105112" lon="6.846758611"><ele></ele><time>2013-8-9T22:7:58Z</time></trkpt>
<trkpt lat="47.509023054" lon="6.846523499"><ele></ele><time>2013-8-9T22:8:1Z</time></trkpt>
<trkpt lat="47.508954490" lon="6.846376564"><ele></ele><time>2013-8-9T22:8:4Z</time></trkpt>
<trkpt lat="47.508616531" lon="6.845843643"><ele></ele><time>2013-8-9T22:8:7Z</time></trkpt>
<trkpt lat="47.508123592" lon="6.844919119"><ele></ele><time>2013-8-9T22:8:10Z</time></trkpt>
<trkpt lat="47.507660072" lon="6.843964085"><ele></ele><time>2013-8-9T22:8:13Z</time></trkpt>
<trkpt lat="47.507185405" lon="6.842871420"><ele></ele><time>2013-8-9T22:8:16Z</time></trkpt>
<trkpt lat="47.506926740" lon="6.842219140"><ele></ele><time>2013-8-9T22:8:19Z</time></trkpt>
<trkpt lat="47.506915927" lon="6.841650261"><ele></ele><time>2013-8-9T22:8:22Z</time></trkpt>
<trkpt lat="47.506899163" lon="6.841576165"><ele></ele><time>2013-8-9T22:8:25Z</time></trkpt>
<trkpt lat="47.506850045" lon="6.841417998"><ele></ele><time>2013-8-9T22:8:28Z</time></trkpt>
<trkpt lat="47.506572437" lon="6.841212809"><ele></ele><time>2013-8-9T22:8:31Z</time></trkpt>
<trkpt lat="47.506415024" lon="6.840693215"><ele></ele><time>2013-8-9T22:8:34Z</time></trkpt>
<trkpt lat="47.506246883" lon="6.840047138"><ele></ele><time>2013-8-9T22:8:37Z</time></trkpt>
<trkpt lat="47.505959719" lon="6.839076346"><ele></ele><time>2013-8-9T22:8:40Z</time></trkpt>
<trkpt lat="47.505840026" lon="6.838578209"><ele></ele><time>2013-8-9T22:8:43Z</time></trkpt>
<trkpt lat="47.505654451" lon="6.837706156"><ele></ele><time>2013-8-9T22:8:46Z</time></trkpt>
<trkpt lat="47.505397461" lon="6.836620616"><ele></ele><time>2013-8-9T22:8:49Z</time></trkpt>
<trkpt lat="47.505033938" lon="6.835530466"><ele></ele><time>2013-8-9T22:8:52Z</time></trkpt>
<trkpt lat="47.504897732" lon="6.835068539"><ele></ele><time>2013-8-9T22:8:55Z</time></trkpt>
<trkpt lat="47.504631523" lon="6.833942933"><ele></ele><time>2013-8-9T22:8:58Z</time></trkpt>
<trkpt lat="47.504608557" lon="6.833657697"><ele></ele><time>2013-8-9T22:9:1Z</time></trkpt>
<trkpt lat="47.504599672" lon="6.833658786"><ele></ele><time>2013-8-9T22:9:4Z</time></trkpt>
<trkpt lat="47.504599923" lon="6.833642777"><ele></ele><time>2013-8-9T22:9:7Z</time></trkpt>
<trkpt lat="47.504589362" lon="6.833636826"><ele></ele><time>2013-8-9T22:9:10Z</time></trkpt>
<trkpt lat="47.504513841" lon="6.833550073"><ele></ele><time>2013-8-9T22:9:13Z</time></trkpt>
<trkpt lat="47.504409570" lon="6.833511349"><ele></ele><time>2013-8-9T22:9:16Z</time></trkpt>
<trkpt lat="47.504380150" lon="6.833458543"><ele></ele><time>2013-8-9T22:9:19Z</time></trkpt>
<trkpt lat="47.504098099" lon="6.833575722"><ele></ele><time>2013-8-9T22:9:22Z</time></trkpt>
<trkpt lat="47.503793333" lon="6.833639257"><ele></ele><time>2013-8-9T22:9:25Z</time></trkpt>
<trkpt lat="47.503314977" lon="6.833743360"><ele></ele><time>2013-8-9T22:9:28Z</time></trkpt>
<trkpt lat="47.502591787" lon="6.833915440"><ele></ele><time>2013-8-9T22:9:31Z</time></trkpt>
<trkpt lat="47.501938250" lon="6.833947459"><ele></ele><time>2013-8-9T22:9:34Z</time></trkpt>
<trkpt lat="47.501644129" lon="6.833896162"><ele></ele><time>2013-8-9T22:9:37Z</time></trkpt>
<trkpt lat="47.501437599" lon="6.833858527"><ele></ele><time>2013-8-9T22:9:40Z</time></trkpt>
<trkpt lat="47.500907946" lon="6.833787868"><ele></ele><time>2013-8-9T22:9:43Z</time></trkpt>
<trkpt lat="47.500868049" lon="6.833781665"><ele></ele><time>2013-8-9T22:9:46Z</time></trkpt>
<trkpt lat="47.500282908" lon="6.833707904"><ele></ele><time>2013-8-9T22:9:49Z</time></trkpt>
<trkpt lat="47.499410100" lon="6.833607405"><ele></ele><time>2013-8-9T22:9:52Z</time></trkpt>
<trkpt lat="47.498930907" lon="6.833514115"><ele></ele><time>2013-8-9T22:9:55Z</time></trkpt>
<trkpt lat="47.498561768" lon="6.833306411"><ele></ele><time>2013-8-9T22:9:58Z</time></trkpt>
<trkpt lat="47.498003868" lon="6.832806850"><ele></ele><time>2013-8-9T22:10:1Z</time></trkpt>
<trkpt lat="47.497476982" lon="6.832383648"><ele></ele><time>2013-8-9T22:10:4Z</time></trkpt>
<trkpt lat="47.497113710" lon="6.832260769"><ele></ele><time>2013-8-9T22:10:7Z</time></trkpt>
<trkpt lat="47.496831659" lon="6.832332518"><ele></ele><time>2013-8-9T22:10:10Z</time></trkpt>
<trkpt lat="47.496029763" lon="6.832854878"><ele></ele><time>2013-8-9T22:10:13Z</time></trkpt>
<trkpt lat="47.495557359" lon="6.833168194"><ele></ele><time>2013-8-9T22:10:16Z</time></trkpt>
<trkpt lat="47.495151088" lon="6.833476145"><ele></ele><time>2013-8-9T22:10:19Z</time></trkpt>
<trkpt lat="47.495072633" lon="6.833448652"><ele></ele><time>2013-8-9T22:10:22Z</time></trkpt>
<trkpt lat="47.494902648" lon="6.833508583"><ele></ele><time>2013-8-9T22:10:25Z</time></trkpt>
<trkpt lat="47.494493863" lon="6.833768170"><ele></ele><time>2013-8-9T22:10:28Z</time></trkpt>
<trkpt lat="47.493903860" lon="6.834124234"><ele></ele><time>2013-8-9T22:10:31Z</time></trkpt>
<trkpt lat="47.493162230" lon="6.834174525"><ele></ele><time>2013-8-9T22:10:34Z</time></trkpt>
<trkpt lat="47.492756210" lon="6.834058184"><ele></ele><time>2013-8-9T22:10:37Z</time></trkpt>
<trkpt lat="47.492632242" lon="6.834020214"><ele></ele><time>2013-8-9T22:10:40Z</time></trkpt>
<trkpt lat="47.492044084" lon="6.833852073"><ele></ele><time>2013-8-9T22:10:43Z</time></trkpt>
<trkpt lat="47.491270518" lon="6.833624924"><ele></ele><time>2013-8-9T22:10:46Z</time></trkpt>
<trkpt lat="47.490491336" lon="6.833386542"><ele></ele><time>2013-8-9T22:10:49Z</time></trkpt>
<trkpt lat="47.489927486" lon="6.833222592"><ele></ele><time>2013-8-9T22:10:52Z</time></trkpt>
<trkpt lat="47.489497243" lon="6.833094517"><ele></ele><time>2013-8-9T22:10:55Z</time></trkpt>
<trkpt lat="47.489286773" lon="6.833080268"><ele></ele><time>2013-8-9T22:10:58Z</time></trkpt>
<trkpt lat="47.488863654" lon="6.833292833"><ele></ele><time>2013-8-9T22:11:1Z</time></trkpt>
<trkpt lat="47.488119174" lon="6.834261529"><ele></ele><time>2013-8-9T22:11:4Z</time></trkpt>
<trkpt lat="47.487836033" lon="6.834683726"><ele></ele><time>2013-8-9T22:11:7Z</time></trkpt>
<trkpt lat="47.487680130" lon="6.835692488"><ele></ele><time>2013-8-9T22:11:10Z</time></trkpt>
<trkpt lat="47.487817677" lon="6.836531432"><ele></ele><time>2013-8-9T22:11:13Z</time></trkpt>
<trkpt lat="47.487792280" lon="6.836930411"><ele></ele><time>2013-8-9T22:11:16Z</time></trkpt>
<trkpt lat="47.487639729" lon="6.837422848"><ele></ele><time>2013-8-9T22:11:19Z</time></trkpt>
<trkpt lat="47.487359857" lon="6.837539524"><ele></ele><time>2013-8-9T22:11:22Z</time></trkpt>
<trkpt lat="47.487272602" lon="6.837462746"><ele></ele><time>2013-8-9T22:11:25Z</time></trkpt>
<trkpt lat="47.487008320" lon="6.837245235"><ele></ele><time>2013-8-9T22:11:28Z</time></trkpt>
<trkpt lat="47.486937242" lon="6.836573677"><ele></ele><time>2013-8-9T22:11:31Z</time></trkpt>
<trkpt lat="47.486903127" lon="6.836063555"><ele></ele><time>2013-8-9T22:11:34Z</time></trkpt>
<trkpt lat="47.486957191" lon="6.835720064"><ele></ele><time>2013-8-9T22:11:37Z</time></trkpt>
<trkpt lat="47.486969093" lon="6.835125284"><ele></ele><time>2013-8-9T22:11:40Z</time></trkpt>
<trkpt lat="47.487025587" lon="6.834150469"><ele></ele><time>2013-8-9T22:11:43Z</time></trkpt>
<trkpt lat="47.487021228" lon="6.833033329"><ele></ele><time>2013-8-9T22:11:46Z</time></trkpt>
<trkpt lat="47.486937158" lon="6.832241239"><ele></ele><time>2013-8-9T22:11:49Z</time></trkpt>
<trkpt lat="47.486916119" lon="6.832065722"><ele></ele><time>2013-8-9T22:11:52Z</time></trkpt>
<trkpt lat="47.486803467" lon="6.831528861"><ele></ele><time>2013-8-9T22:11:55Z</time></trkpt>
<trkpt lat="47.486807741" lon="6.831521569"><ele></ele><time>2013-8-9T22:11:58Z</time></trkpt>
<trkpt lat="47.486745631" lon="6.831530286"><ele></ele><time>2013-8-9T22:12:1Z</time></trkpt>
<trkpt lat="47.486524098" lon="6.831786185"><ele></ele><time>2013-8-9T22:12:4Z</time></trkpt>
<trkpt lat="47.486263923" lon="6.832111236"><ele></ele><time>2013-8-9T22:12:7Z</time></trkpt>
<trkpt lat="47.486134842" lon="6.832370069"><ele></ele><time>2013-8-9T22:12:10Z</time></trkpt>
<trkpt lat="47.486081198" lon="6.832674583"><ele></ele><time>2013-8-9T22:12:13Z</time></trkpt>
<trkpt lat="47.486099051" lon="6.833011536"><ele></ele><time>2013-8-9T22:12:16Z</time></trkpt>
<trkpt lat="47.485892689" lon="6.834017700"><ele></ele><time>2013-8-9T22:12:19Z</time></trkpt>
<trkpt lat="47.485662187" lon="6.834595045"><ele></ele><time>2013-8-9T22:12:22Z</time></trkpt>
<trkpt lat="47.485002447" lon="6.835687542"><ele></ele><time>2013-8-9T22:12:25Z</time></trkpt>
<trkpt lat="47.484909240" lon="6.835834980"><ele></ele><time>2013-8-9T22:12:28Z</time></trkpt>
<trkpt lat="47.484802538" lon="6.835939083"><ele></ele><time>2013-8-9T22:12:31Z</time></trkpt>
<trkpt lat="47.484649653" lon="6.836104123"><ele></ele><time>2013-8-9T22:12:34Z</time></trkpt>
<trkpt lat="47.484403309" lon="6.836440070"><ele></ele><time>2013-8-9T22:12:37Z</time></trkpt>
<trkpt lat="47.484313287" lon="6.836678619"><ele></ele><time>2013-8-9T22:12:40Z</time></trkpt>
<trkpt lat="47.484281352" lon="6.836816669"><ele></ele><time>2013-8-9T22:12:43Z</time></trkpt>
<trkpt lat="47.484250087" lon="6.836963938"><ele></ele><time>2013-8-9T22:12:46Z</time></trkpt>
<trkpt lat="47.484134082" lon="6.837522592"><ele></ele><time>2013-8-9T22:12:49Z</time></trkpt>
<trkpt lat="47.483861502" lon="6.838275287"><ele></ele><time>2013-8-9T22:12:52Z</time></trkpt>
<trkpt lat="47.483587498" lon="6.838625735"><ele></ele><time>2013-8-9T22:12:55Z</time></trkpt>
<trkpt lat="47.483064635" lon="6.838610899"><ele></ele><time>2013-8-9T22:12:58Z</time></trkpt>
<trkpt lat="47.483016858" lon="6.838601595"><ele></ele><time>2013-8-9T22:13:1Z</time></trkpt>
<trkpt lat="47.482681414" lon="6.838706872"><ele></ele><time>2013-8-9T22:13:4Z</time></trkpt>
<trkpt lat="47.482487122" lon="6.838654736"><ele></ele><time>2013-8-9T22:13:7Z</time></trkpt>
<trkpt lat="47.482345803" lon="6.838628920"><ele></ele><time>2013-8-9T22:13:10Z</time></trkpt>
<trkpt lat="47.482203562" lon="6.838655239"><ele></ele><time>2013-8-9T22:13:13Z</time></trkpt>
<trkpt lat="47.481980436" lon="6.838579634"><ele></ele><time>2013-8-9T22:13:16Z</time></trkpt>
<trkpt lat="47.481957972" lon="6.838546442"><ele></ele><time>2013-8-9T22:13:19Z</time></trkpt>
<trkpt lat="47.481958224" lon="6.838543676"><ele></ele><time>2013-8-9T22:13:22Z</time></trkpt>
<trkpt lat="47.481911872" lon="6.838610647"><ele></ele><time>2013-8-9T22:13:25Z</time></trkpt>
<trkpt lat="47.481861329" lon="6.838817932"><ele></ele><time>2013-8-9T22:13:28Z</time></trkpt>
<trkpt lat="47.481667372" lon="6.839657966"><ele></ele><time>2013-8-9T22:13:31Z</time></trkpt>
<trkpt lat="47.481483137" lon="6.839817474"><ele></ele><time>2013-8-9T22:13:34Z</time></trkpt>
<trkpt lat="47.480807807" lon="6.840113271"><ele></ele><time>2013-8-9T22:13:37Z</time></trkpt>
<trkpt lat="47.480426012" lon="6.840294069"><ele></ele><time>2013-8-9T22:13:40Z</time></trkpt>
<trkpt lat="47.480173213" lon="6.840388784"><ele></ele><time>2013-8-9T22:13:43Z</time></trkpt>
<trkpt lat="47.479972383" lon="6.840480734"><ele></ele><time>2013-8-9T22:13:46Z</time></trkpt>
<trkpt lat="47.479767362" lon="6.840482829"><ele></ele><time>2013-8-9T22:13:49Z</time></trkpt>
<trkpt lat="47.479000920" lon="6.840245621"><ele></ele><time>2013-8-9T22:13:52Z</time></trkpt>
<trkpt lat="47.478290554" lon="6.840127939"><ele></ele><time>2013-8-9T22:13:55Z</time></trkpt>
<trkpt lat="47.477665180" lon="6.840033140"><ele></ele><time>2013-8-9T22:13:58Z</time></trkpt>
<trkpt lat="47.476923717" lon="6.840062225"><ele></ele><time>2013-8-9T22:14:1Z</time></trkpt>
<trkpt lat="47.476041438" lon="6.840257859"><ele></ele><time>2013-8-9T22:14:4Z</time></trkpt>
<trkpt lat="47.475459902" lon="6.840528175"><ele></ele><time>2013-8-9T22:14:7Z</time></trkpt>
<trkpt lat="47.475029910" lon="6.840710565"><ele></ele><time>2013-8-9T22:14:10Z</time></trkpt>
<trkpt lat="47.474804437" lon="6.840792541"><ele></ele><time>2013-8-9T22:14:13Z</time></trkpt>
<trkpt lat="47.474096334" lon="6.841098061"><ele></ele><time>2013-8-9T22:14:16Z</time></trkpt>
<trkpt lat="47.473517060" lon="6.841403330"><ele></ele><time>2013-8-9T22:14:19Z</time></trkpt>
<trkpt lat="47.472809041" lon="6.841886798"><ele></ele><time>2013-8-9T22:14:22Z</time></trkpt>
<trkpt lat="47.472621538" lon="6.842074888"><ele></ele><time>2013-8-9T22:14:25Z</time></trkpt>
<trkpt lat="47.472548029" lon="6.842146134"><ele></ele><time>2013-8-9T22:14:28Z</time></trkpt>
<trkpt lat="47.472147290" lon="6.842152169"><ele></ele><time>2013-8-9T22:14:31Z</time></trkpt>
<trkpt lat="47.472053915" lon="6.841890737"><ele></ele><time>2013-8-9T22:14:34Z</time></trkpt>
<trkpt lat="47.472019214" lon="6.841675825"><ele></ele><time>2013-8-9T22:14:37Z</time></trkpt>
<trkpt lat="47.471981999" lon="6.841547582"><ele></ele><time>2013-8-9T22:14:40Z</time></trkpt>
<trkpt lat="47.471816037" lon="6.841310291"><ele></ele><time>2013-8-9T22:14:43Z</time></trkpt>
<trkpt lat="47.471065521" lon="6.840969734"><ele></ele><time>2013-8-9T22:14:46Z</time></trkpt>
<trkpt lat="47.470548190" lon="6.840962442"><ele></ele><time>2013-8-9T22:14:49Z</time></trkpt>
<trkpt lat="47.469793148" lon="6.841183389"><ele></ele><time>2013-8-9T22:14:52Z</time></trkpt>
<trkpt lat="47.469128547" lon="6.841490334"><ele></ele><time>2013-8-9T22:14:55Z</time></trkpt>
<trkpt lat="47.468869546" lon="6.841609022"><ele></ele><time>2013-8-9T22:14:58Z</time></trkpt>
<trkpt lat="47.468383312" lon="6.841758387"><ele></ele><time>2013-8-9T22:15:1Z</time></trkpt>
<trkpt lat="47.467503715" lon="6.841820246"><ele></ele><time>2013-8-9T22:15:4Z</time></trkpt>
<trkpt lat="47.466652701" lon="6.841807254"><ele></ele><time>2013-8-9T22:15:7Z</time></trkpt>
<trkpt lat="47.466304097" lon="6.841869950"><ele></ele><time>2013-8-9T22:15:10Z</time></trkpt>
<trkpt lat="47.465343867" lon="6.842109086"><ele></ele><time>2013-8-9T22:15:13Z</time></trkpt>
<trkpt lat="47.465126608" lon="6.842133729"><ele></ele><time>2013-8-9T22:15:16Z</time></trkpt>
<trkpt lat="47.464281125" lon="6.842105314"><ele></ele><time>2013-8-9T22:15:19Z</time></trkpt>
<trkpt lat="47.463844847" lon="6.842035493"><ele></ele><time>2013-8-9T22:15:22Z</time></trkpt>
<trkpt lat="47.463220060" lon="6.841955194"><ele></ele><time>2013-8-9T22:15:25Z</time></trkpt>
<trkpt lat="47.462654449" lon="6.841929881"><ele></ele><time>2013-8-9T22:15:28Z</time></trkpt>
<trkpt lat="47.462480860" lon="6.841780851"><ele></ele><time>2013-8-9T22:15:31Z</time></trkpt>
<trkpt lat="47.462226218" lon="6.841745395"><ele></ele><time>2013-8-9T22:15:34Z</time></trkpt>
<trkpt lat="47.461825227" lon="6.841801722"><ele></ele><time>2013-8-9T22:15:37Z</time></trkpt>
<trkpt lat="47.461736128" lon="6.841796776"><ele></ele><time>2013-8-9T22:15:40Z</time></trkpt>
<trkpt lat="47.461068342" lon="6.841665097"><ele></ele><time>2013-8-9T22:15:43Z</time></trkpt>
<trkpt lat="47.460437100" lon="6.841571974"><ele></ele><time>2013-8-9T22:15:46Z</time></trkpt>
<trkpt lat="47.460006857" lon="6.841493687"><ele></ele><time>2013-8-9T22:15:49Z</time></trkpt>
<trkpt lat="47.459697062" lon="6.841321774"><ele></ele><time>2013-8-9T22:15:52Z</time></trkpt>
<trkpt lat="47.459402354" lon="6.841124212"><ele></ele><time>2013-8-9T22:15:55Z</time></trkpt>
<trkpt lat="47.458866415" lon="6.840757504"><ele></ele><time>2013-8-9T22:15:58Z</time></trkpt>
<trkpt lat="47.458601799" lon="6.840573689"><ele></ele><time>2013-8-9T22:16:1Z</time></trkpt>
<trkpt lat="47.457571328" lon="6.840133052"><ele></ele><time>2013-8-9T22:16:4Z</time></trkpt>
<trkpt lat="47.456687959" lon="6.840021741"><ele></ele><time>2013-8-9T22:16:7Z</time></trkpt>
<trkpt lat="47.455847338" lon="6.839902550"><ele></ele><time>2013-8-9T22:16:10Z</time></trkpt>
<trkpt lat="47.455036305" lon="6.839785371"><ele></ele><time>2013-8-9T22:16:13Z</time></trkpt>
<trkpt lat="47.454724582" lon="6.839743629"><ele></ele><time>2013-8-9T22:16:16Z</time></trkpt>
<trkpt lat="47.454588963" lon="6.839687051"><ele></ele><time>2013-8-9T22:16:19Z</time></trkpt>
<trkpt lat="47.454405399" lon="6.839589905"><ele></ele><time>2013-8-9T22:16:22Z</time></trkpt>
<trkpt lat="47.453833921" lon="6.839332832"><ele></ele><time>2013-8-9T22:16:25Z</time></trkpt>
<trkpt lat="47.452870086" lon="6.839142730"><ele></ele><time>2013-8-9T22:16:28Z</time></trkpt>
<trkpt lat="47.451991830" lon="6.838986743"><ele></ele><time>2013-8-9T22:16:31Z</time></trkpt>
<trkpt lat="47.451850595" lon="6.838979199"><ele></ele><time>2013-8-9T22:16:34Z</time></trkpt>
<trkpt lat="47.451057499" lon="6.838975763"><ele></ele><time>2013-8-9T22:16:37Z</time></trkpt>
<trkpt lat="47.450273540" lon="6.838841569"><ele></ele><time>2013-8-9T22:16:40Z</time></trkpt>
<trkpt lat="47.450038511" lon="6.838716511"><ele></ele><time>2013-8-9T22:16:43Z</time></trkpt>
<trkpt lat="47.449914459" lon="6.838602433"><ele></ele><time>2013-8-9T22:16:46Z</time></trkpt>
<trkpt lat="47.449696027" lon="6.838510735"><ele></ele><time>2013-8-9T22:16:49Z</time></trkpt>
<trkpt lat="47.449489245" lon="6.838434963"><ele></ele><time>2013-8-9T22:16:52Z</time></trkpt>
<trkpt lat="47.448998569" lon="6.837654775"><ele></ele><time>2013-8-9T22:16:55Z</time></trkpt>
<trkpt lat="47.448623646" lon="6.836827984"><ele></ele><time>2013-8-9T22:16:58Z</time></trkpt>
<trkpt lat="47.448172951" lon="6.836141422"><ele></ele><time>2013-8-9T22:17:1Z</time></trkpt>
<trkpt lat="47.447797861" lon="6.835330222"><ele></ele><time>2013-8-9T22:17:4Z</time></trkpt>
<trkpt lat="47.447776236" lon="6.835254198"><ele></ele><time>2013-8-9T22:17:7Z</time></trkpt>
<trkpt lat="47.447789144" lon="6.835257048"><ele></ele><time>2013-8-9T22:17:10Z</time></trkpt>
<trkpt lat="47.447776990" lon="6.835254785"><ele></ele><time>2013-8-9T22:17:13Z</time></trkpt>
<trkpt lat="47.447770536" lon="6.835252773"><ele></ele><time>2013-8-9T22:17:16Z</time></trkpt>
<trkpt lat="47.447723262" lon="6.835075244"><ele></ele><time>2013-8-9T22:17:19Z</time></trkpt>
<trkpt lat="47.447559396" lon="6.834895872"><ele></ele><time>2013-8-9T22:17:22Z</time></trkpt>
<trkpt lat="47.447508099" lon="6.834761174"><ele></ele><time>2013-8-9T22:17:25Z</time></trkpt>
<trkpt lat="47.447277010" lon="6.834127167"><ele></ele><time>2013-8-9T22:17:28Z</time></trkpt>
<trkpt lat="47.447058410" lon="6.833510427"><ele></ele><time>2013-8-9T22:17:31Z</time></trkpt>
<trkpt lat="47.446893621" lon="6.832782459"><ele></ele><time>2013-8-9T22:17:34Z</time></trkpt>
<trkpt lat="47.446910972" lon="6.832524128"><ele></ele><time>2013-8-9T22:17:37Z</time></trkpt>
<trkpt lat="47.447112640" lon="6.831709072"><ele></ele><time>2013-8-9T22:17:40Z</time></trkpt>
<trkpt lat="47.447138540" lon="6.831376059"><ele></ele><time>2013-8-9T22:17:43Z</time></trkpt>
<trkpt lat="47.447105516" lon="6.831102138"><ele></ele><time>2013-8-9T22:17:46Z</time></trkpt>
<trkpt lat="47.446704106" lon="6.829723651"><ele></ele><time>2013-8-9T22:17:49Z</time></trkpt>
<trkpt lat="47.446307475" lon="6.828566948"><ele></ele><time>2013-8-9T22:17:52Z</time></trkpt>
<trkpt lat="47.446034560" lon="6.827549636"><ele></ele><time>2013-8-9T22:17:55Z</time></trkpt>
<trkpt lat="47.445852589" lon="6.826594351"><ele></ele><time>2013-8-9T22:17:58Z</time></trkpt>
<trkpt lat="47.445689729" lon="6.825342514"><ele></ele><time>2013-8-9T22:18:1Z</time></trkpt>
<trkpt lat="47.445523012" lon="6.824138872"><ele></ele><time>2013-8-9T22:18:4Z</time></trkpt>
<trkpt lat="47.445389992" lon="6.823072024"><ele></ele><time>2013-8-9T22:18:7Z</time></trkpt>
<trkpt lat="47.445220929" lon="6.821784480"><ele></ele><time>2013-8-9T22:18:10Z</time></trkpt>
<trkpt lat="47.445071815" lon="6.820681840"><ele></ele><time>2013-8-9T22:18:13Z</time></trkpt>
<trkpt lat="47.444910128" lon="6.819428075"><ele></ele><time>2013-8-9T22:18:16Z</time></trkpt>
<trkpt lat="47.444751877" lon="6.818236336"><ele></ele><time>2013-8-9T22:18:19Z</time></trkpt>
<trkpt lat="47.444736035" lon="6.818105495"><ele></ele><time>2013-8-9T22:18:22Z</time></trkpt>
<trkpt lat="47.444684487" lon="6.817715652"><ele></ele><time>2013-8-9T22:18:25Z</time></trkpt>
<trkpt lat="47.444605948" lon="6.817053566"><ele></ele><time>2013-8-9T22:18:28Z</time></trkpt>
<trkpt lat="47.444624724" lon="6.816743435"><ele></ele><time>2013-8-9T22:18:31Z</time></trkpt>
<trkpt lat="47.444667891" lon="6.816563895"><ele></ele><time>2013-8-9T22:18:34Z</time></trkpt>
<trkpt lat="47.444716673" lon="6.816449398"><ele></ele><time>2013-8-9T22:18:37Z</time></trkpt>
<trkpt lat="47.444800828" lon="6.816279581"><ele></ele><time>2013-8-9T22:18:40Z</time></trkpt>
<trkpt lat="47.445501052" lon="6.815531496"><ele></ele><time>2013-8-9T22:18:43Z</time></trkpt>
<trkpt lat="47.446262045" lon="6.814780897"><ele></ele><time>2013-8-9T22:18:46Z</time></trkpt>
<trkpt lat="47.447066372" lon="6.814001547"><ele></ele><time>2013-8-9T22:18:49Z</time></trkpt>
<trkpt lat="47.447771458" lon="6.813316746"><ele></ele><time>2013-8-9T22:18:52Z</time></trkpt>
<trkpt lat="47.447814541" lon="6.813277518"><ele></ele><time>2013-8-9T22:18:55Z</time></trkpt>
<trkpt lat="47.448030878" lon="6.813070150"><ele></ele><time>2013-8-9T22:18:58Z</time></trkpt>
<trkpt lat="47.448811736" lon="6.812246544"><ele></ele><time>2013-8-9T22:19:1Z</time></trkpt>
<trkpt lat="47.449442726" lon="6.811576998"><ele></ele><time>2013-8-9T22:19:4Z</time></trkpt>
<trkpt lat="47.449555462" lon="6.811455544"><ele></ele><time>2013-8-9T22:19:7Z</time></trkpt>
<trkpt lat="47.449811446" lon="6.811220348"><ele></ele><time>2013-8-9T22:19:10Z</time></trkpt>
<trkpt lat="47.450248981" lon="6.811033683"><ele></ele><time>2013-8-9T22:19:13Z</time></trkpt>
<trkpt lat="47.450761534" lon="6.810337063"><ele></ele><time>2013-8-9T22:19:16Z</time></trkpt>
<trkpt lat="47.450928837" lon="6.810048977"><ele></ele><time>2013-8-9T22:19:19Z</time></trkpt>
<trkpt lat="47.450976698" lon="6.809938503"><ele></ele><time>2013-8-9T22:19:22Z</time></trkpt>
<trkpt lat="47.451081304" lon="6.809581183"><ele></ele><time>2013-8-9T22:19:25Z</time></trkpt>
<trkpt lat="47.451113407" lon="6.809397703"><ele></ele><time>2013-8-9T22:19:28Z</time></trkpt>
<trkpt lat="47.451155065" lon="6.808862016"><ele></ele><time>2013-8-9T22:19:31Z</time></trkpt>
<trkpt lat="47.451297138" lon="6.807756778"><ele></ele><time>2013-8-9T22:19:34Z</time></trkpt>
<trkpt lat="47.451472990" lon="6.806768216"><ele></ele><time>2013-8-9T22:19:37Z</time></trkpt>
<trkpt lat="47.451528227" lon="6.806252310"><ele></ele><time>2013-8-9T22:19:40Z</time></trkpt>
<trkpt lat="47.451583212" lon="6.805538256"><ele></ele><time>2013-8-9T22:19:43Z</time></trkpt>
<trkpt lat="47.451601233" lon="6.804815568"><ele></ele><time>2013-8-9T22:19:46Z</time></trkpt>
<trkpt lat="47.451572651" lon="6.804068908"><ele></ele><time>2013-8-9T22:19:49Z</time></trkpt>
<trkpt lat="47.451548176" lon="6.803563312"><ele></ele><time>2013-8-9T22:19:52Z</time></trkpt>
<trkpt lat="47.451511044" lon="6.802956378"><ele></ele><time>2013-8-9T22:19:55Z</time></trkpt>
<trkpt lat="47.451508613" lon="6.802917737"><ele></ele><time>2013-8-9T22:19:58Z</time></trkpt>
<trkpt lat="47.451511547" lon="6.802893011"><ele></ele><time>2013-8-9T22:20:1Z</time></trkpt>
<trkpt lat="47.451480199" lon="6.802485315"><ele></ele><time>2013-8-9T22:20:4Z</time></trkpt>
<trkpt lat="47.451431584" lon="6.801696829"><ele></ele><time>2013-8-9T22:20:7Z</time></trkpt>
<trkpt lat="47.451378275" lon="6.800849754"><ele></ele><time>2013-8-9T22:20:10Z</time></trkpt>
<trkpt lat="47.451328570" lon="6.799902935"><ele></ele><time>2013-8-9T22:20:13Z</time></trkpt>
<trkpt lat="47.451298898" lon="6.799389459"><ele></ele><time>2013-8-9T22:20:16Z</time></trkpt>
<trkpt lat="47.451192280" lon="6.798280366"><ele></ele><time>2013-8-9T22:20:19Z</time></trkpt>
<trkpt lat="47.451149197" lon="6.797748953"><ele></ele><time>2013-8-9T22:20:22Z</time></trkpt>
<trkpt lat="47.451010141" lon="6.797380988"><ele></ele><time>2013-8-9T22:20:25Z</time></trkpt>
<trkpt lat="47.450621976" lon="6.796406256"><ele></ele><time>2013-8-9T22:20:28Z</time></trkpt>
<trkpt lat="47.450161977" lon="6.795578627"><ele></ele><time>2013-8-9T22:20:31Z</time></trkpt>
<trkpt lat="47.449961817" lon="6.795621542"><ele></ele><time>2013-8-9T22:20:34Z</time></trkpt>
<trkpt lat="47.449586811" lon="6.795840394"><ele></ele><time>2013-8-9T22:20:37Z</time></trkpt>
<trkpt lat="47.449208284" lon="6.795757245"><ele></ele><time>2013-8-9T22:20:40Z</time></trkpt>
<trkpt lat="47.449185066" lon="6.795765879"><ele></ele><time>2013-8-9T22:20:43Z</time></trkpt>
<trkpt lat="47.449209038" lon="6.795744002"><ele></ele><time>2013-8-9T22:20:46Z</time></trkpt>
<trkpt lat="47.449210798" lon="6.795736123"><ele></ele><time>2013-8-9T22:20:49Z</time></trkpt>
<trkpt lat="47.449188251" lon="6.795716342"><ele></ele><time>2013-8-9T22:20:52Z</time></trkpt>
<trkpt lat="47.449175511" lon="6.795754312"><ele></ele><time>2013-8-9T22:20:55Z</time></trkpt>
<trkpt lat="47.449177271" lon="6.795765124"><ele></ele><time>2013-8-9T22:20:58Z</time></trkpt>
<trkpt lat="47.449186239" lon="6.795755904"><ele></ele><time>2013-8-9T22:21:1Z</time></trkpt>
<trkpt lat="47.449173834" lon="6.795771243"><ele></ele><time>2013-8-9T22:21:4Z</time></trkpt>
<trkpt lat="47.449179282" lon="6.795773003"><ele></ele><time>2013-8-9T22:21:7Z</time></trkpt>
<trkpt lat="47.449186575" lon="6.795777278"><ele></ele><time>2013-8-9T22:21:10Z</time></trkpt>
<trkpt lat="47.449182216" lon="6.795771495"><ele></ele><time>2013-8-9T22:21:13Z</time></trkpt>
<trkpt lat="47.449176516" lon="6.795773925"><ele></ele><time>2013-8-9T22:21:16Z</time></trkpt>
<trkpt lat="47.449167632" lon="6.795779290"><ele></ele><time>2013-8-9T22:21:19Z</time></trkpt>
<trkpt lat="47.449171822" lon="6.795774931"><ele></ele><time>2013-8-9T22:21:22Z</time></trkpt>
<trkpt lat="47.449172325" lon="6.795764202"><ele></ele><time>2013-8-9T22:21:25Z</time></trkpt>
<trkpt lat="47.449179199" lon="6.795765963"><ele></ele><time>2013-8-9T22:21:28Z</time></trkpt>
<trkpt lat="47.449194118" lon="6.795765711"><ele></ele><time>2013-8-9T22:21:31Z</time></trkpt>
<trkpt lat="47.449208284" lon="6.795779541"><ele></ele><time>2013-8-9T22:21:34Z</time></trkpt>
<trkpt lat="47.449285062" lon="6.795811225"><ele></ele><time>2013-8-9T22:21:37Z</time></trkpt>
<trkpt lat="47.449734751" lon="6.795899989"><ele></ele><time>2013-8-9T22:21:40Z</time></trkpt>
<trkpt lat="47.450026525" lon="6.795587260"><ele></ele><time>2013-8-9T22:21:43Z</time></trkpt>
<trkpt lat="47.450055024" lon="6.795576280"><ele></ele><time>2013-8-9T22:21:46Z</time></trkpt>
<trkpt lat="47.450360460" lon="6.795991603"><ele></ele><time>2013-8-9T22:21:49Z</time></trkpt>
<trkpt lat="47.450717781" lon="6.796707250"><ele></ele><time>2013-8-9T22:21:52Z</time></trkpt>
<trkpt lat="47.451076275" lon="6.797704194"><ele></ele><time>2013-8-9T22:21:55Z</time></trkpt>
<trkpt lat="47.451177444" lon="6.798770036"><ele></ele><time>2013-8-9T22:21:58Z</time></trkpt>
<trkpt lat="47.451270567" lon="6.800066717"><ele></ele><time>2013-8-9T22:22:1Z</time></trkpt>
<trkpt lat="47.451353716" lon="6.801533215"><ele></ele><time>2013-8-9T22:22:4Z</time></trkpt>
<trkpt lat="47.451430410" lon="6.802865602"><ele></ele><time>2013-8-9T22:22:7Z</time></trkpt>
<trkpt lat="47.451467123" lon="6.803461053"><ele></ele><time>2013-8-9T22:22:10Z</time></trkpt>
<trkpt lat="47.451485563" lon="6.803736314"><ele></ele><time>2013-8-9T22:22:13Z</time></trkpt>
<trkpt lat="47.451331755" lon="6.803915268"><ele></ele><time>2013-8-9T22:22:16Z</time></trkpt>
<trkpt lat="47.450917857" lon="6.803948712"><ele></ele><time>2013-8-9T22:22:19Z</time></trkpt>
<trkpt lat="47.450759104" lon="6.803833628"><ele></ele><time>2013-8-9T22:22:22Z</time></trkpt>
<trkpt lat="47.450395078" lon="6.803229293"><ele></ele><time>2013-8-9T22:22:25Z</time></trkpt>
<trkpt lat="47.450247388" lon="6.802938776"><ele></ele><time>2013-8-9T22:22:28Z</time></trkpt>
<trkpt lat="47.450231127" lon="6.803002395"><ele></ele><time>2013-8-9T22:22:31Z</time></trkpt>
<trkpt lat="47.450476382" lon="6.803479493"><ele></ele><time>2013-8-9T22:22:34Z</time></trkpt>
<trkpt lat="47.450419134" lon="6.803582422"><ele></ele><time>2013-8-9T22:22:37Z</time></trkpt>
<trkpt lat="47.450335231" lon="6.803644868"><ele></ele><time>2013-8-9T22:22:40Z</time></trkpt>
<trkpt lat="47.450263901" lon="6.803610921"><ele></ele><time>2013-8-9T22:22:43Z</time></trkpt>
<trkpt lat="47.450268762" lon="6.803611172"><ele></ele><time>2013-8-9T22:22:46Z</time></trkpt>
<trkpt lat="47.450272199" lon="6.803615866"><ele></ele><time>2013-8-9T22:22:49Z</time></trkpt>
<trkpt lat="47.450274043" lon="6.803619890"><ele></ele><time>2013-8-9T22:22:52Z</time></trkpt>
<trkpt lat="47.450370435" lon="6.803673115"><ele></ele><time>2013-8-9T22:22:55Z</time></trkpt>
<trkpt lat="47.450488284" lon="6.803549146"><ele></ele><time>2013-8-9T22:22:58Z</time></trkpt>
<trkpt lat="47.450498007" lon="6.803444792"><ele></ele><time>2013-8-9T22:23:1Z</time></trkpt>
<trkpt lat="47.450262224" lon="6.802997030"><ele></ele><time>2013-8-9T22:23:4Z</time></trkpt>
<trkpt lat="47.450003559" lon="6.802238887"><ele></ele><time>2013-8-9T22:23:7Z</time></trkpt>
<trkpt lat="47.449808093" lon="6.801653076"><ele></ele><time>2013-8-9T22:23:10Z</time></trkpt>
<trkpt lat="47.449639114" lon="6.801376054"><ele></ele><time>2013-8-9T22:23:13Z</time></trkpt>
<trkpt lat="47.449455801" lon="6.801106324"><ele></ele><time>2013-8-9T22:23:16Z</time></trkpt>
<trkpt lat="47.449252708" lon="6.800805582"><ele></ele><time>2013-8-9T22:23:19Z</time></trkpt>
<trkpt lat="47.449154304" lon="6.800429737"><ele></ele><time>2013-8-9T22:23:22Z</time></trkpt>
<trkpt lat="47.449127063" lon="6.800395874"><ele></ele><time>2013-8-9T22:23:25Z</time></trkpt>
<trkpt lat="47.449072832" lon="6.800283389"><ele></ele><time>2013-8-9T22:23:28Z</time></trkpt>
<trkpt lat="47.448832439" lon="6.800040565"><ele></ele><time>2013-8-9T22:23:31Z</time></trkpt>
<trkpt lat="47.448813245" lon="6.800042828"><ele></ele><time>2013-8-9T22:23:34Z</time></trkpt>
<trkpt lat="47.448745184" lon="6.799991615"><ele></ele><time>2013-8-9T22:23:37Z</time></trkpt>
<trkpt lat="47.448749710" lon="6.799992118"><ele></ele><time>2013-8-9T22:23:40Z</time></trkpt>
<trkpt lat="47.448750213" lon="6.799990609"><ele></ele><time>2013-8-9T22:23:43Z</time></trkpt>
<trkpt lat="47.448557932" lon="6.799971415"><ele></ele><time>2013-8-9T22:23:46Z</time></trkpt>
<trkpt lat="47.448109249" lon="6.799872592"><ele></ele><time>2013-8-9T22:23:49Z</time></trkpt>
<trkpt lat="47.447641036" lon="6.799782067"><ele></ele><time>2013-8-9T22:23:52Z</time></trkpt>
<trkpt lat="47.447137367" lon="6.799673103"><ele></ele><time>2013-8-9T22:23:55Z</time></trkpt>
<trkpt lat="47.446705280" lon="6.799603701"><ele></ele><time>2013-8-9T22:23:58Z</time></trkpt>
<trkpt lat="47.446352821" lon="6.799513763"><ele></ele><time>2013-8-9T22:24:1Z</time></trkpt>
<trkpt lat="47.446030704" lon="6.799411420"><ele></ele><time>2013-8-9T22:24:4Z</time></trkpt>
<trkpt lat="47.445527958" lon="6.799244117"><ele></ele><time>2013-8-9T22:24:7Z</time></trkpt>
<trkpt lat="47.445151024" lon="6.799146971"><ele></ele><time>2013-8-9T22:24:10Z</time></trkpt>
<trkpt lat="47.444871236" lon="6.799119227"><ele></ele><time>2013-8-9T22:24:13Z</time></trkpt>
<trkpt lat="47.444575103" lon="6.798988217"><ele></ele><time>2013-8-9T22:24:16Z</time></trkpt>
<trkpt lat="47.444291795" lon="6.798858382"><ele></ele><time>2013-8-9T22:24:19Z</time></trkpt>
<trkpt lat="47.444031118" lon="6.798747405"><ele></ele><time>2013-8-9T22:24:22Z</time></trkpt>
<trkpt lat="47.443934893" lon="6.798719075"><ele></ele><time>2013-8-9T22:24:25Z</time></trkpt>
<trkpt lat="47.443848476" lon="6.798580773"><ele></ele><time>2013-8-9T22:24:28Z</time></trkpt>
<trkpt lat="47.443901952" lon="6.798391007"><ele></ele><time>2013-8-9T22:24:31Z</time></trkpt>
<trkpt lat="47.443956435" lon="6.798182884"><ele></ele><time>2013-8-9T22:24:34Z</time></trkpt>
<trkpt lat="47.443998680" lon="6.797874430"><ele></ele><time>2013-8-9T22:24:37Z</time></trkpt>
<trkpt lat="47.443983341" lon="6.797813661"><ele></ele><time>2013-8-9T22:24:40Z</time></trkpt>
<trkpt lat="47.443890721" lon="6.797804022"><ele></ele><time>2013-8-9T22:24:43Z</time></trkpt>
<trkpt lat="47.443789802" lon="6.797891948"><ele></ele><time>2013-8-9T22:24:46Z</time></trkpt>
<trkpt lat="47.443710677" lon="6.797961015"><ele></ele><time>2013-8-9T22:24:49Z</time></trkpt>
<trkpt lat="47.443599366" lon="6.798067130"><ele></ele><time>2013-8-9T22:24:52Z</time></trkpt>
<trkpt lat="47.443467015" lon="6.798220687"><ele></ele><time>2013-8-9T22:24:55Z</time></trkpt>
<trkpt lat="47.443411443" lon="6.798303584"><ele></ele><time>2013-8-9T22:24:58Z</time></trkpt>
<trkpt lat="47.443375569" lon="6.798356892"><ele></ele><time>2013-8-9T22:25:1Z</time></trkpt>
<trkpt lat="47.443329468" lon="6.798419924"><ele></ele><time>2013-8-9T22:25:4Z</time></trkpt>
<trkpt lat="47.443280267" lon="6.798492009"><ele></ele><time>2013-8-9T22:25:7Z</time></trkpt>
<trkpt lat="47.443231484" lon="6.798549090"><ele></ele><time>2013-8-9T22:25:10Z</time></trkpt>
<trkpt lat="47.443189323" lon="6.798592089"><ele></ele><time>2013-8-9T22:25:13Z</time></trkpt>
<trkpt lat="47.443139199" lon="6.798630729"><ele></ele><time>2013-8-9T22:25:16Z</time></trkpt>
<trkpt lat="47.443089997" lon="6.798665933"><ele></ele><time>2013-8-9T22:25:19Z</time></trkpt>
<trkpt lat="47.443051524" lon="6.798697868"><ele></ele><time>2013-8-9T22:25:22Z</time></trkpt>
<trkpt lat="47.442994863" lon="6.798739862"><ele></ele><time>2013-8-9T22:25:25Z</time></trkpt>
<trkpt lat="47.442932753" lon="6.798780514"><ele></ele><time>2013-8-9T22:25:28Z</time></trkpt>
<trkpt lat="47.442784309" lon="6.798900375"><ele></ele><time>2013-8-9T22:25:31Z</time></trkpt>
<trkpt lat="47.442731168" lon="6.798946811"><ele></ele><time>2013-8-9T22:25:34Z</time></trkpt>
<trkpt lat="47.442456493" lon="6.799146636"><ele></ele><time>2013-8-9T22:25:37Z</time></trkpt>
<trkpt lat="47.442334872" lon="6.799229449"><ele></ele><time>2013-8-9T22:25:40Z</time></trkpt>
<trkpt lat="47.442214508" lon="6.799232801"><ele></ele><time>2013-8-9T22:25:43Z</time></trkpt>
<trkpt lat="47.442017281" lon="6.799027864"><ele></ele><time>2013-8-9T22:25:46Z</time></trkpt>
<trkpt lat="47.442023233" lon="6.798808929"><ele></ele><time>2013-8-9T22:25:49Z</time></trkpt>
<trkpt lat="47.442025999" lon="6.798573565"><ele></ele><time>2013-8-9T22:25:52Z</time></trkpt>
<trkpt lat="47.442019880" lon="6.798557304"><ele></ele><time>2013-8-9T22:25:55Z</time></trkpt>
<trkpt lat="47.441963470" lon="6.798220938"><ele></ele><time>2013-8-9T22:25:58Z</time></trkpt>
<trkpt lat="47.441964643" lon="6.798119601"><ele></ele><time>2013-8-9T22:26:1Z</time></trkpt>
<trkpt lat="47.441968499" lon="6.798028490"><ele></ele><time>2013-8-9T22:26:4Z</time></trkpt>
<trkpt lat="47.441957099" lon="6.797729256"><ele></ele><time>2013-8-9T22:26:7Z</time></trkpt>
<trkpt lat="47.441945281" lon="6.797433542"><ele></ele><time>2013-8-9T22:26:10Z</time></trkpt>
<trkpt lat="47.441977384" lon="6.797038671"><ele></ele><time>2013-8-9T22:26:13Z</time></trkpt>
<trkpt lat="47.441918878" lon="6.796647320"><ele></ele><time>2013-8-9T22:26:16Z</time></trkpt>
<trkpt lat="47.441865569" lon="6.796614463"><ele></ele><time>2013-8-9T22:26:19Z</time></trkpt>
<trkpt lat="47.441706900" lon="6.796520669"><ele></ele><time>2013-8-9T22:26:22Z</time></trkpt>
<trkpt lat="47.441663649" lon="6.796475491"><ele></ele><time>2013-8-9T22:26:25Z</time></trkpt>
<trkpt lat="47.441650154" lon="6.796472138"><ele></ele><time>2013-8-9T22:26:28Z</time></trkpt>
<trkpt lat="47.441556863" lon="6.796320677"><ele></ele><time>2013-8-9T22:26:31Z</time></trkpt>
<trkpt lat="47.441482432" lon="6.796258651"><ele></ele><time>2013-8-9T22:26:34Z</time></trkpt>
<trkpt lat="47.441376569" lon="6.796207856"><ele></ele><time>2013-8-9T22:26:37Z</time></trkpt>
<trkpt lat="47.441110779" lon="6.796098305"><ele></ele><time>2013-8-9T22:26:40Z</time></trkpt>
<trkpt lat="47.440914223" lon="6.796009121"><ele></ele><time>2013-8-9T22:26:43Z</time></trkpt>
<trkpt lat="47.440716075" lon="6.795896720"><ele></ele><time>2013-8-9T22:26:46Z</time></trkpt>
<trkpt lat="47.440476436" lon="6.795759005"><ele></ele><time>2013-8-9T22:26:49Z</time></trkpt>
<trkpt lat="47.440287424" lon="6.795736039"><ele></ele><time>2013-8-9T22:26:52Z</time></trkpt>
<trkpt lat="47.440272169" lon="6.795730926"><ele></ele><time>2013-8-9T22:26:55Z</time></trkpt>
<trkpt lat="47.440224895" lon="6.795714246"><ele></ele><time>2013-8-9T22:26:58Z</time></trkpt>
<trkpt lat="47.440100675" lon="6.795689184"><ele></ele><time>2013-8-9T22:27:1Z</time></trkpt>
<trkpt lat="47.439872352" lon="6.795767639"><ele></ele><time>2013-8-9T22:27:4Z</time></trkpt>
<trkpt lat="47.439624416" lon="6.795913568"><ele></ele><time>2013-8-9T22:27:7Z</time></trkpt>
<trkpt lat="47.439586949" lon="6.795924883"><ele></ele><time>2013-8-9T22:27:10Z</time></trkpt>
<trkpt lat="47.439350914" lon="6.795858331"><ele></ele><time>2013-8-9T22:27:13Z</time></trkpt>
<trkpt lat="47.439148407" lon="6.795717096"><ele></ele><time>2013-8-9T22:27:16Z</time></trkpt>
<trkpt lat="47.438977249" lon="6.795555325"><ele></ele><time>2013-8-9T22:27:19Z</time></trkpt>
<trkpt lat="47.438795697" lon="6.795483409"><ele></ele><time>2013-8-9T22:27:22Z</time></trkpt>
<trkpt lat="47.438513059" lon="6.795551218"><ele></ele><time>2013-8-9T22:27:25Z</time></trkpt>
<trkpt lat="47.438225057" lon="6.795619028"><ele></ele><time>2013-8-9T22:27:28Z</time></trkpt>
<trkpt lat="47.438170994" lon="6.795628415"><ele></ele><time>2013-8-9T22:27:31Z</time></trkpt>
<trkpt lat="47.438118355" lon="6.795603018"><ele></ele><time>2013-8-9T22:27:34Z</time></trkpt>
<trkpt lat="47.438080888" lon="6.795568401"><ele></ele><time>2013-8-9T22:27:37Z</time></trkpt>
<trkpt lat="47.438054066" lon="6.795493299"><ele></ele><time>2013-8-9T22:27:40Z</time></trkpt>
<trkpt lat="47.438013749" lon="6.795037994"><ele></ele><time>2013-8-9T22:27:43Z</time></trkpt>
<trkpt lat="47.438032106" lon="6.794818305"><ele></ele><time>2013-8-9T22:27:46Z</time></trkpt>
<trkpt lat="47.438005786" lon="6.794488141"><ele></ele><time>2013-8-9T22:27:49Z</time></trkpt>
<trkpt lat="47.437972678" lon="6.794304829"><ele></ele><time>2013-8-9T22:27:52Z</time></trkpt>
<trkpt lat="47.437951891" lon="6.794244312"><ele></ele><time>2013-8-9T22:27:55Z</time></trkpt>
<trkpt lat="47.437897325" lon="6.794181196"><ele></ele><time>2013-8-9T22:27:58Z</time></trkpt>
<trkpt lat="47.437841417" lon="6.794147668"><ele></ele><time>2013-8-9T22:28:1Z</time></trkpt>
<trkpt lat="47.437799256" lon="6.794165103"><ele></ele><time>2013-8-9T22:28:4Z</time></trkpt>
<trkpt lat="47.437664224" lon="6.794182705"><ele></ele><time>2013-8-9T22:28:7Z</time></trkpt>
<trkpt lat="47.437548721" lon="6.794220088"><ele></ele><time>2013-8-9T22:28:10Z</time></trkpt>
<trkpt lat="47.437333390" lon="6.794216065"><ele></ele><time>2013-8-9T22:28:13Z</time></trkpt>
<trkpt lat="47.437296426" lon="6.794240540"><ele></ele><time>2013-8-9T22:28:16Z</time></trkpt>
<trkpt lat="47.437166423" lon="6.794351600"><ele></ele><time>2013-8-9T22:28:19Z</time></trkpt>
<trkpt lat="47.437041365" lon="6.794392252"><ele></ele><time>2013-8-9T22:28:22Z</time></trkpt>
<trkpt lat="47.437014291" lon="6.794406250"><ele></ele><time>2013-8-9T22:28:25Z</time></trkpt>
<trkpt lat="47.436778005" lon="6.794452183"><ele></ele><time>2013-8-9T22:28:28Z</time></trkpt>
<trkpt lat="47.436526716" lon="6.794459308"><ele></ele><time>2013-8-9T22:28:31Z</time></trkpt>
<trkpt lat="47.436477262" lon="6.794458721"><ele></ele><time>2013-8-9T22:28:34Z</time></trkpt>
<trkpt lat="47.436229242" lon="6.794399461"><ele></ele><time>2013-8-9T22:28:37Z</time></trkpt>
<trkpt lat="47.436168473" lon="6.794389151"><ele></ele><time>2013-8-9T22:28:40Z</time></trkpt>
<trkpt lat="47.436003434" lon="6.794413123"><ele></ele><time>2013-8-9T22:28:43Z</time></trkpt>
<trkpt lat="47.435850464" lon="6.794421924"><ele></ele><time>2013-8-9T22:28:46Z</time></trkpt>
<trkpt lat="47.435521893" lon="6.794574643"><ele></ele><time>2013-8-9T22:28:49Z</time></trkpt>
<trkpt lat="47.435385352" lon="6.794656366"><ele></ele><time>2013-8-9T22:28:52Z</time></trkpt>
<trkpt lat="47.435233723" lon="6.794704562"><ele></ele><time>2013-8-9T22:28:55Z</time></trkpt>
<trkpt lat="47.435122998" lon="6.794727193"><ele></ele><time>2013-8-9T22:28:58Z</time></trkpt>
<trkpt lat="47.434953684" lon="6.794830626"><ele></ele><time>2013-8-9T22:29:1Z</time></trkpt>
<trkpt lat="47.434889982" lon="6.794856275"><ele></ele><time>2013-8-9T22:29:4Z</time></trkpt>
<trkpt lat="47.434701389" lon="6.794979991"><ele></ele><time>2013-8-9T22:29:7Z</time></trkpt>
<trkpt lat="47.434622431" lon="6.795077054"><ele></ele><time>2013-8-9T22:29:10Z</time></trkpt>
<trkpt lat="47.434481280" lon="6.795159448"><ele></ele><time>2013-8-9T22:29:13Z</time></trkpt>
<trkpt lat="47.434400814" lon="6.795202112"><ele></ele><time>2013-8-9T22:29:16Z</time></trkpt>
<trkpt lat="47.434240552" lon="6.795282662"><ele></ele><time>2013-8-9T22:29:19Z</time></trkpt>
<trkpt lat="47.433979623" lon="6.795255840"><ele></ele><time>2013-8-9T22:29:22Z</time></trkpt>
<trkpt lat="47.433941821" lon="6.795238322"><ele></ele><time>2013-8-9T22:29:25Z</time></trkpt>
<trkpt lat="47.433925560" lon="6.795232287"><ele></ele><time>2013-8-9T22:29:28Z</time></trkpt>
<trkpt lat="47.433924470" lon="6.795264641"><ele></ele><time>2013-8-9T22:29:31Z</time></trkpt>
<trkpt lat="47.433804190" lon="6.795331528"><ele></ele><time>2013-8-9T22:29:34Z</time></trkpt>
<trkpt lat="47.433740906" lon="6.795368241"><ele></ele><time>2013-8-9T22:29:37Z</time></trkpt>
<trkpt lat="47.433669157" lon="6.795368996"><ele></ele><time>2013-8-9T22:29:40Z</time></trkpt>
<trkpt lat="47.433569329" lon="6.795431692"><ele></ele><time>2013-8-9T22:29:43Z</time></trkpt>
<trkpt lat="47.433332372" lon="6.795495562"><ele></ele><time>2013-8-9T22:29:46Z</time></trkpt>
<trkpt lat="47.433144031" lon="6.795612825"><ele></ele><time>2013-8-9T22:29:49Z</time></trkpt>
<trkpt lat="47.432952253" lon="6.795659764"><ele></ele><time>2013-8-9T22:29:52Z</time></trkpt>
<trkpt lat="47.432643715" lon="6.795652974"><ele></ele><time>2013-8-9T22:29:55Z</time></trkpt>
<trkpt lat="47.432602057" lon="6.795652052"><ele></ele><time>2013-8-9T22:29:58Z</time></trkpt>
<trkpt lat="47.432459481" lon="6.795718186"><ele></ele><time>2013-8-9T22:30:1Z</time></trkpt>
<trkpt lat="47.432127222" lon="6.795624141"><ele></ele><time>2013-8-9T22:30:4Z</time></trkpt>
<trkpt lat="47.431979785" lon="6.795659512"><ele></ele><time>2013-8-9T22:30:7Z</time></trkpt>
<trkpt lat="47.431741236" lon="6.795696896"><ele></ele><time>2013-8-9T22:30:10Z</time></trkpt>
<trkpt lat="47.431712905" lon="6.795737632"><ele></ele><time>2013-8-9T22:30:13Z</time></trkpt>
<trkpt lat="47.431646017" lon="6.795885321"><ele></ele><time>2013-8-9T22:30:16Z</time></trkpt>
<trkpt lat="47.431611149" lon="6.795977186"><ele></ele><time>2013-8-9T22:30:19Z</time></trkpt>
<trkpt lat="47.431447450" lon="6.796062095"><ele></ele><time>2013-8-9T22:30:22Z</time></trkpt>
<trkpt lat="47.431299509" lon="6.796001829"><ele></ele><time>2013-8-9T22:30:25Z</time></trkpt>
<trkpt lat="47.431265060" lon="6.795906276"><ele></ele><time>2013-8-9T22:30:28Z</time></trkpt>
<trkpt lat="47.431189204" lon="6.795839053"><ele></ele><time>2013-8-9T22:30:31Z</time></trkpt>
<trkpt lat="47.431187527" lon="6.795849698"><ele></ele><time>2013-8-9T22:30:34Z</time></trkpt>
<trkpt lat="47.431175290" lon="6.795867886"><ele></ele><time>2013-8-9T22:30:37Z</time></trkpt>
<trkpt lat="47.431172691" lon="6.795886830"><ele></ele><time>2013-8-9T22:30:40Z</time></trkpt>
<trkpt lat="47.431169590" lon="6.795910215"><ele></ele><time>2013-8-9T22:30:43Z</time></trkpt>
<trkpt lat="47.431172524" lon="6.795921782"><ele></ele><time>2013-8-9T22:30:46Z</time></trkpt>
<trkpt lat="47.431164561" lon="6.795920776"><ele></ele><time>2013-8-9T22:30:49Z</time></trkpt>
<trkpt lat="47.431163387" lon="6.795916082"><ele></ele><time>2013-8-9T22:30:52Z</time></trkpt>
<trkpt lat="47.431149306" lon="6.795910886"><ele></ele><time>2013-8-9T22:30:55Z</time></trkpt>
<trkpt lat="47.431146959" lon="6.795895798"><ele></ele><time>2013-8-9T22:30:58Z</time></trkpt>
<trkpt lat="47.431137990" lon="6.795897726"><ele></ele><time>2013-8-9T22:31:1Z</time></trkpt>
<trkpt lat="47.430841355" lon="6.795925051"><ele></ele><time>2013-8-9T22:31:4Z</time></trkpt>
<trkpt lat="47.430825094" lon="6.795931840"><ele></ele><time>2013-8-9T22:31:7Z</time></trkpt>
<trkpt lat="47.430508090" lon="6.795897810"><ele></ele><time>2013-8-9T22:31:10Z</time></trkpt>
<trkpt lat="47.430288149" lon="6.795813823"><ele></ele><time>2013-8-9T22:31:13Z</time></trkpt>
<trkpt lat="47.430163175" lon="6.795829916"><ele></ele><time>2013-8-9T22:31:16Z</time></trkpt>
<trkpt lat="47.429879950" lon="6.795925135"><ele></ele><time>2013-8-9T22:31:19Z</time></trkpt>
<trkpt lat="47.429609466" lon="6.795894708"><ele></ele><time>2013-8-9T22:31:22Z</time></trkpt>
<trkpt lat="47.429495473" lon="6.795928907"><ele></ele><time>2013-8-9T22:31:25Z</time></trkpt>
<trkpt lat="47.429311657" lon="6.795865372"><ele></ele><time>2013-8-9T22:31:28Z</time></trkpt>
<trkpt lat="47.429014603" lon="6.795809548"><ele></ele><time>2013-8-9T22:31:31Z</time></trkpt>
<trkpt lat="47.428760296" lon="6.795755150"><ele></ele><time>2013-8-9T22:31:34Z</time></trkpt>
<trkpt lat="47.428656779" lon="6.795741236"><ele></ele><time>2013-8-9T22:31:37Z</time></trkpt>
<trkpt lat="47.428239779" lon="6.795757581"><ele></ele><time>2013-8-9T22:31:40Z</time></trkpt>
<trkpt lat="47.428215053" lon="6.795755317"><ele></ele><time>2013-8-9T22:31:43Z</time></trkpt>
<trkpt lat="47.427962339" lon="6.795728663"><ele></ele><time>2013-8-9T22:31:46Z</time></trkpt>
<trkpt lat="47.427871060" lon="6.795707792"><ele></ele><time>2013-8-9T22:31:49Z</time></trkpt>
<trkpt lat="47.427816577" lon="6.795704272"><ele></ele><time>2013-8-9T22:31:52Z</time></trkpt>
<trkpt lat="47.427489683" lon="6.795640569"><ele></ele><time>2013-8-9T22:31:55Z</time></trkpt>
<trkpt lat="47.427102607" lon="6.795583991"><ele></ele><time>2013-8-9T22:31:58Z</time></trkpt>
<trkpt lat="47.426748052" lon="6.795496987"><ele></ele><time>2013-8-9T22:32:1Z</time></trkpt>
<trkpt lat="47.426708154" lon="6.795487599"><ele></ele><time>2013-8-9T22:32:4Z</time></trkpt>
<trkpt lat="47.426392995" lon="6.795433955"><ele></ele><time>2013-8-9T22:32:7Z</time></trkpt>
<trkpt lat="47.426195517" lon="6.795389196"><ele></ele><time>2013-8-9T22:32:10Z</time></trkpt>
<trkpt lat="47.426134748" lon="6.795362039"><ele></ele><time>2013-8-9T22:32:13Z</time></trkpt>
<trkpt lat="47.426086469" lon="6.795372684"><ele></ele><time>2013-8-9T22:32:16Z</time></trkpt>
<trkpt lat="47.426043302" lon="6.795392465"><ele></ele><time>2013-8-9T22:32:19Z</time></trkpt>
<trkpt lat="47.425926709" lon="6.795394812"><ele></ele><time>2013-8-9T22:32:22Z</time></trkpt>
<trkpt lat="47.425911203" lon="6.795379389"><ele></ele><time>2013-8-9T22:32:25Z</time></trkpt>
<trkpt lat="47.425695034" lon="6.795406798"><ele></ele><time>2013-8-9T22:32:28Z</time></trkpt>
<trkpt lat="47.425294882" lon="6.795439403"><ele></ele><time>2013-8-9T22:32:31Z</time></trkpt>
<trkpt lat="47.424929934" lon="6.795394476"><ele></ele><time>2013-8-9T22:32:34Z</time></trkpt>
<trkpt lat="47.424733797" lon="6.795321973"><ele></ele><time>2013-8-9T22:32:37Z</time></trkpt>
<trkpt lat="47.424600190" lon="6.795283333"><ele></ele><time>2013-8-9T22:32:40Z</time></trkpt>
<trkpt lat="47.424173886" lon="6.795176966"><ele></ele><time>2013-8-9T22:32:43Z</time></trkpt>
<trkpt lat="47.423830731" lon="6.795099517"><ele></ele><time>2013-8-9T22:32:46Z</time></trkpt>
<trkpt lat="47.423669547" lon="6.795091052"><ele></ele><time>2013-8-9T22:32:49Z</time></trkpt>
<trkpt lat="47.423361847" lon="6.795062469"><ele></ele><time>2013-8-9T22:32:52Z</time></trkpt>
<trkpt lat="47.422698000" lon="6.794863651"><ele></ele><time>2013-8-9T22:32:55Z</time></trkpt>
<trkpt lat="47.422507564" lon="6.794844791"><ele></ele><time>2013-8-9T22:32:58Z</time></trkpt>
<trkpt lat="47.422418213" lon="6.794832889"><ele></ele><time>2013-8-9T22:33:1Z</time></trkpt>
<trkpt lat="47.422066005" lon="6.794758458"><ele></ele><time>2013-8-9T22:33:4Z</time></trkpt>
<trkpt lat="47.421770878" lon="6.794726439"><ele></ele><time>2013-8-9T22:33:7Z</time></trkpt>
<trkpt lat="47.421572730" lon="6.794701545"><ele></ele><time>2013-8-9T22:33:10Z</time></trkpt>
<trkpt lat="47.421328900" lon="6.794686625"><ele></ele><time>2013-8-9T22:33:13Z</time></trkpt>
<trkpt lat="47.421101080" lon="6.794697270"><ele></ele><time>2013-8-9T22:33:16Z</time></trkpt>
<trkpt lat="47.420895891" lon="6.794753428"><ele></ele><time>2013-8-9T22:33:19Z</time></trkpt>
<trkpt lat="47.420661952" lon="6.794819143"><ele></ele><time>2013-8-9T22:33:22Z</time></trkpt>
<trkpt lat="47.420575870" lon="6.794841941"><ele></ele><time>2013-8-9T22:33:25Z</time></trkpt>
<trkpt lat="47.420519544" lon="6.794851748"><ele></ele><time>2013-8-9T22:33:28Z</time></trkpt>
<trkpt lat="47.420458440" lon="6.794886449"><ele></ele><time>2013-8-9T22:33:31Z</time></trkpt>
<trkpt lat="47.420381159" lon="6.794871613"><ele></ele><time>2013-8-9T22:33:34Z</time></trkpt>
<trkpt lat="47.420141520" lon="6.794903632"><ele></ele><time>2013-8-9T22:33:37Z</time></trkpt>
<trkpt lat="47.420059377" lon="6.794899190"><ele></ele><time>2013-8-9T22:33:40Z</time></trkpt>
<trkpt lat="47.419954017" lon="6.794976471"><ele></ele><time>2013-8-9T22:33:43Z</time></trkpt>
<trkpt lat="47.419804568" lon="6.795134721"><ele></ele><time>2013-8-9T22:33:46Z</time></trkpt>
<trkpt lat="47.419600300" lon="6.795475278"><ele></ele><time>2013-8-9T22:33:49Z</time></trkpt>
<trkpt lat="47.419485468" lon="6.795719024"><ele></ele><time>2013-8-9T22:33:52Z</time></trkpt>
<trkpt lat="47.419325542" lon="6.796147339"><ele></ele><time>2013-8-9T22:33:55Z</time></trkpt>
<trkpt lat="47.419303497" lon="6.796190506"><ele></ele><time>2013-8-9T22:33:58Z</time></trkpt>
<trkpt lat="47.419280112" lon="6.796286898"><ele></ele><time>2013-8-9T22:34:1Z</time></trkpt>
<trkpt lat="47.419204759" lon="6.796675818"><ele></ele><time>2013-8-9T22:34:4Z</time></trkpt>
<trkpt lat="47.419146420" lon="6.797035066"><ele></ele><time>2013-8-9T22:34:7Z</time></trkpt>
<trkpt lat="47.419121107" lon="6.797460616"><ele></ele><time>2013-8-9T22:34:10Z</time></trkpt>
<trkpt lat="47.419076851" lon="6.797806537"><ele></ele><time>2013-8-9T22:34:13Z</time></trkpt>
<trkpt lat="47.419074336" lon="6.797835873"><ele></ele><time>2013-8-9T22:34:16Z</time></trkpt>
<trkpt lat="47.419058411" lon="6.797909299"><ele></ele><time>2013-8-9T22:34:19Z</time></trkpt>
<trkpt lat="47.419032678" lon="6.798265614"><ele></ele><time>2013-8-9T22:34:22Z</time></trkpt>
<trkpt lat="47.419007365" lon="6.798427720"><ele></ele><time>2013-8-9T22:34:25Z</time></trkpt>
<trkpt lat="47.419009544" lon="6.798536768"><ele></ele><time>2013-8-9T22:34:28Z</time></trkpt>
<trkpt lat="47.418996468" lon="6.798729636"><ele></ele><time>2013-8-9T22:34:31Z</time></trkpt>
<trkpt lat="47.418909632" lon="6.799288373"><ele></ele><time>2013-8-9T22:34:34Z</time></trkpt>
<trkpt lat="47.418720452" lon="6.799974265"><ele></ele><time>2013-8-9T22:34:37Z</time></trkpt>
<trkpt lat="47.418674100" lon="6.800081637"><ele></ele><time>2013-8-9T22:34:40Z</time></trkpt>
<trkpt lat="47.418485675" lon="6.800316665"><ele></ele><time>2013-8-9T22:34:43Z</time></trkpt>
<trkpt lat="47.418341758" lon="6.800499810"><ele></ele><time>2013-8-9T22:34:46Z</time></trkpt>
<trkpt lat="47.418326503" lon="6.800519172"><ele></ele><time>2013-8-9T22:34:49Z</time></trkpt>
<trkpt lat="47.418297501" lon="6.800535684"><ele></ele><time>2013-8-9T22:34:52Z</time></trkpt>
<trkpt lat="47.418213431" lon="6.800546246"><ele></ele><time>2013-8-9T22:34:55Z</time></trkpt>
<trkpt lat="47.418065658" lon="6.800463935"><ele></ele><time>2013-8-9T22:34:58Z</time></trkpt>
<trkpt lat="47.418059874" lon="6.800450441"><ele></ele><time>2013-8-9T22:35:1Z</time></trkpt>
<trkpt lat="47.417985946" lon="6.800378775"><ele></ele><time>2013-8-9T22:35:4Z</time></trkpt>
<trkpt lat="47.417791318" lon="6.800423451"><ele></ele><time>2013-8-9T22:35:7Z</time></trkpt>
<trkpt lat="47.417612616" lon="6.800478436"><ele></ele><time>2013-8-9T22:35:10Z</time></trkpt>
<trkpt lat="47.417458976" lon="6.800486315"><ele></ele><time>2013-8-9T22:35:13Z</time></trkpt>
<trkpt lat="47.417294607" lon="6.800499475"><ele></ele><time>2013-8-9T22:35:16Z</time></trkpt>
<trkpt lat="47.417110372" lon="6.800466701"><ele></ele><time>2013-8-9T22:35:19Z</time></trkpt>
<trkpt lat="47.416956816" lon="6.800403921"><ele></ele><time>2013-8-9T22:35:22Z</time></trkpt>
<trkpt lat="47.416884731" lon="6.800379949"><ele></ele><time>2013-8-9T22:35:25Z</time></trkpt>
<trkpt lat="47.416878026" lon="6.800376596"><ele></ele><time>2013-8-9T22:35:28Z</time></trkpt>
<trkpt lat="47.416879702" lon="6.800379781"><ele></ele><time>2013-8-9T22:35:31Z</time></trkpt>
<trkpt lat="47.416878948" lon="6.800384726"><ele></ele><time>2013-8-9T22:35:34Z</time></trkpt>
<trkpt lat="47.416661019" lon="6.800083648"><ele></ele><time>2013-8-9T22:35:37Z</time></trkpt>
<trkpt lat="47.416400509" lon="6.799733285"><ele></ele><time>2013-8-9T22:35:40Z</time></trkpt>
<trkpt lat="47.416162630" lon="6.799382670"><ele></ele><time>2013-8-9T22:35:43Z</time></trkpt>
<trkpt lat="47.415822074" lon="6.798812198"><ele></ele><time>2013-8-9T22:35:46Z</time></trkpt>
<trkpt lat="47.415749403" lon="6.798692085"><ele></ele><time>2013-8-9T22:35:49Z</time></trkpt>
<trkpt lat="47.415661225" lon="6.798661658"><ele></ele><time>2013-8-9T22:35:52Z</time></trkpt>
<trkpt lat="47.415617807" lon="6.798681608"><ele></ele><time>2013-8-9T22:35:55Z</time></trkpt>
<trkpt lat="47.415562403" lon="6.798659982"><ele></ele><time>2013-8-9T22:35:58Z</time></trkpt>
<trkpt lat="47.415297199" lon="6.798555795"><ele></ele><time>2013-8-9T22:36:1Z</time></trkpt>
<trkpt lat="47.415050771" lon="6.798468539"><ele></ele><time>2013-8-9T22:36:4Z</time></trkpt>
<trkpt lat="47.414749274" lon="6.798308613"><ele></ele><time>2013-8-9T22:36:7Z</time></trkpt>
<trkpt lat="47.414459847" lon="6.798202666"><ele></ele><time>2013-8-9T22:36:10Z</time></trkpt>
<trkpt lat="47.414210066" lon="6.798112309"><ele></ele><time>2013-8-9T22:36:13Z</time></trkpt>
<trkpt lat="47.413972775" lon="6.797982557"><ele></ele><time>2013-8-9T22:36:16Z</time></trkpt>
<trkpt lat="47.413898595" lon="6.797940815"><ele></ele><time>2013-8-9T22:36:19Z</time></trkpt>
<trkpt lat="47.413867330" lon="6.797947018"><ele></ele><time>2013-8-9T22:36:22Z</time></trkpt>
<trkpt lat="47.413687874" lon="6.797747612"><ele></ele><time>2013-8-9T22:36:25Z</time></trkpt>
<trkpt lat="47.413530294" lon="6.797620207"><ele></ele><time>2013-8-9T22:36:28Z</time></trkpt>
<trkpt lat="47.413292415" lon="6.797370762"><ele></ele><time>2013-8-9T22:36:31Z</time></trkpt>
<trkpt lat="47.413021848" lon="6.797194742"><ele></ele><time>2013-8-9T22:36:34Z</time></trkpt>
<trkpt lat="47.412906680" lon="6.797214858"><ele></ele><time>2013-8-9T22:36:37Z</time></trkpt>
<trkpt lat="47.412884636" lon="6.797233969"><ele></ele><time>2013-8-9T22:36:40Z</time></trkpt>
<trkpt lat="47.412836356" lon="6.797288032"><ele></ele><time>2013-8-9T22:36:43Z</time></trkpt>
<trkpt lat="47.412678609" lon="6.797302868"><ele></ele><time>2013-8-9T22:36:46Z</time></trkpt>
<trkpt lat="47.412293795" lon="6.797484923"><ele></ele><time>2013-8-9T22:36:49Z</time></trkpt>
<trkpt lat="47.412056085" lon="6.797735291"><ele></ele><time>2013-8-9T22:36:52Z</time></trkpt>
<trkpt lat="47.411999507" lon="6.797803184"><ele></ele><time>2013-8-9T22:36:55Z</time></trkpt>
<trkpt lat="47.411921471" lon="6.797856912"><ele></ele><time>2013-8-9T22:36:58Z</time></trkpt>
<trkpt lat="47.411736818" lon="6.798033519"><ele></ele><time>2013-8-9T22:37:1Z</time></trkpt>
<trkpt lat="47.411512183" lon="6.798263770"><ele></ele><time>2013-8-9T22:37:4Z</time></trkpt>
<trkpt lat="47.411303055" lon="6.798493685"><ele></ele><time>2013-8-9T22:37:7Z</time></trkpt>
<trkpt lat="47.411045730" lon="6.798437862"><ele></ele><time>2013-8-9T22:37:10Z</time></trkpt>
<trkpt lat="47.410873734" lon="6.798145669"><ele></ele><time>2013-8-9T22:37:13Z</time></trkpt>
<trkpt lat="47.410722859" lon="6.797812656"><ele></ele><time>2013-8-9T22:37:16Z</time></trkpt>
<trkpt lat="47.410586905" lon="6.797453407"><ele></ele><time>2013-8-9T22:37:19Z</time></trkpt>
<trkpt lat="47.410542900" lon="6.797276381"><ele></ele><time>2013-8-9T22:37:22Z</time></trkpt>
<trkpt lat="47.410499733" lon="6.796915960"><ele></ele><time>2013-8-9T22:37:25Z</time></trkpt>
<trkpt lat="47.410419351" lon="6.796613121"><ele></ele><time>2013-8-9T22:37:28Z</time></trkpt>
<trkpt lat="47.410374926" lon="6.796482280"><ele></ele><time>2013-8-9T22:37:31Z</time></trkpt>
<trkpt lat="47.410239642" lon="6.796137867"><ele></ele><time>2013-8-9T22:37:34Z</time></trkpt>
<trkpt lat="47.410183232" lon="6.795964027"><ele></ele><time>2013-8-9T22:37:37Z</time></trkpt>
<trkpt lat="47.410166888" lon="6.795901582"><ele></ele><time>2013-8-9T22:37:40Z</time></trkpt>
<trkpt lat="47.410141826" lon="6.795781720"><ele></ele><time>2013-8-9T22:37:43Z</time></trkpt>
<trkpt lat="47.409999082" lon="6.795472596"><ele></ele><time>2013-8-9T22:37:46Z</time></trkpt>
<trkpt lat="47.409864636" lon="6.795145785"><ele></ele><time>2013-8-9T22:37:49Z</time></trkpt>
<trkpt lat="47.409750391" lon="6.794850239"><ele></ele><time>2013-8-9T22:37:52Z</time></trkpt>
<trkpt lat="47.409630949" lon="6.794508509"><ele></ele><time>2013-8-9T22:37:55Z</time></trkpt>
<trkpt lat="47.409488205" lon="6.794049768"><ele></ele><time>2013-8-9T22:37:58Z</time></trkpt>
<trkpt lat="47.409287039" lon="6.793520115"><ele></ele><time>2013-8-9T22:38:1Z</time></trkpt>
<trkpt lat="47.408994343" lon="6.793041593"><ele></ele><time>2013-8-9T22:38:4Z</time></trkpt>
<trkpt lat="47.408655463" lon="6.792661138"><ele></ele><time>2013-8-9T22:38:7Z</time></trkpt>
<trkpt lat="47.408422865" lon="6.792558711"><ele></ele><time>2013-8-9T22:38:10Z</time></trkpt>
<trkpt lat="47.408296131" lon="6.792527195"><ele></ele><time>2013-8-9T22:38:13Z</time></trkpt>
<trkpt lat="47.408214658" lon="6.792512359"><ele></ele><time>2013-8-9T22:38:16Z</time></trkpt>
<trkpt lat="47.408028916" lon="6.792484447"><ele></ele><time>2013-8-9T22:38:19Z</time></trkpt>
<trkpt lat="47.407875443" lon="6.792496936"><ele></ele><time>2013-8-9T22:38:22Z</time></trkpt>
<trkpt lat="47.407760527" lon="6.792540858"><ele></ele><time>2013-8-9T22:38:25Z</time></trkpt>
<trkpt lat="47.407676121" lon="6.792589389"><ele></ele><time>2013-8-9T22:38:28Z</time></trkpt>
<trkpt lat="47.407522146" lon="6.792776473"><ele></ele><time>2013-8-9T22:38:31Z</time></trkpt>
<trkpt lat="47.407430951" lon="6.793103786"><ele></ele><time>2013-8-9T22:38:34Z</time></trkpt>
<trkpt lat="47.407373535" lon="6.793545010"><ele></ele><time>2013-8-9T22:38:37Z</time></trkpt>
<trkpt lat="47.407261888" lon="6.794025293"><ele></ele><time>2013-8-9T22:38:40Z</time></trkpt>
<trkpt lat="47.407051921" lon="6.794345733"><ele></ele><time>2013-8-9T22:38:43Z</time></trkpt>
<trkpt lat="47.406534758" lon="6.794762062"><ele></ele><time>2013-8-9T22:38:46Z</time></trkpt>
<trkpt lat="47.406114237" lon="6.795213930"><ele></ele><time>2013-8-9T22:38:49Z</time></trkpt>
<trkpt lat="47.405888429" lon="6.795553817"><ele></ele><time>2013-8-9T22:38:52Z</time></trkpt>
<trkpt lat="47.405817937" lon="6.795694046"><ele></ele><time>2013-8-9T22:38:55Z</time></trkpt>
<trkpt lat="47.405551393" lon="6.795959584"><ele></ele><time>2013-8-9T22:38:58Z</time></trkpt>
<trkpt lat="47.405184098" lon="6.796094952"><ele></ele><time>2013-8-9T22:39:1Z</time></trkpt>
<trkpt lat="47.404716052" lon="6.796381781"><ele></ele><time>2013-8-9T22:39:4Z</time></trkpt>
<trkpt lat="47.404285390" lon="6.796667101"><ele></ele><time>2013-8-9T22:39:7Z</time></trkpt>
<trkpt lat="47.404162260" lon="6.796790482"><ele></ele><time>2013-8-9T22:39:10Z</time></trkpt>
<trkpt lat="47.404072071" lon="6.796947308"><ele></ele><time>2013-8-9T22:39:13Z</time></trkpt>
<trkpt lat="47.403972577" lon="6.797109833"><ele></ele><time>2013-8-9T22:39:16Z</time></trkpt>
<trkpt lat="47.403638810" lon="6.797499424"><ele></ele><time>2013-8-9T22:39:19Z</time></trkpt>
<trkpt lat="47.403465640" lon="6.797605203"><ele></ele><time>2013-8-9T22:39:22Z</time></trkpt>
<trkpt lat="47.403114019" lon="6.797804274"><ele></ele><time>2013-8-9T22:39:25Z</time></trkpt>
<trkpt lat="47.402759464" lon="6.798076434"><ele></ele><time>2013-8-9T22:39:28Z</time></trkpt>
<trkpt lat="47.402672041" lon="6.798672052"><ele></ele><time>2013-8-9T22:39:31Z</time></trkpt>
<trkpt lat="47.402636921" lon="6.799198603"><ele></ele><time>2013-8-9T22:39:34Z</time></trkpt>
<trkpt lat="47.402538937" lon="6.799115958"><ele></ele><time>2013-8-9T22:39:37Z</time></trkpt>
<trkpt lat="47.402299885" lon="6.798091689"><ele></ele><time>2013-8-9T22:39:40Z</time></trkpt>
<trkpt lat="47.401808286" lon="6.797226844"><ele></ele><time>2013-8-9T22:39:43Z</time></trkpt>
<trkpt lat="47.401098087" lon="6.795859504"><ele></ele><time>2013-8-9T22:39:46Z</time></trkpt>
<trkpt lat="47.400688883" lon="6.794736413"><ele></ele><time>2013-8-9T22:39:49Z</time></trkpt>
<trkpt lat="47.400202900" lon="6.793990591"><ele></ele><time>2013-8-9T22:39:52Z</time></trkpt>
<trkpt lat="47.399671823" lon="6.793362871"><ele></ele><time>2013-8-9T22:39:55Z</time></trkpt>
<trkpt lat="47.399053238" lon="6.792660384"><ele></ele><time>2013-8-9T22:39:58Z</time></trkpt>
<trkpt lat="47.398435827" lon="6.792133665"><ele></ele><time>2013-8-9T22:40:1Z</time></trkpt>
<trkpt lat="47.397839958" lon="6.791570317"><ele></ele><time>2013-8-9T22:40:4Z</time></trkpt>
<trkpt lat="47.397316592" lon="6.791206626"><ele></ele><time>2013-8-9T22:40:7Z</time></trkpt>
<trkpt lat="47.397115845" lon="6.790991547"><ele></ele><time>2013-8-9T22:40:10Z</time></trkpt>
<trkpt lat="47.396533554" lon="6.789962836"><ele></ele><time>2013-8-9T22:40:13Z</time></trkpt>
<trkpt lat="47.396026533" lon="6.789124142"><ele></ele><time>2013-8-9T22:40:16Z</time></trkpt>
<trkpt lat="47.395544657" lon="6.788165337"><ele></ele><time>2013-8-9T22:40:19Z</time></trkpt>
<trkpt lat="47.395124221" lon="6.787170991"><ele></ele><time>2013-8-9T22:40:22Z</time></trkpt>
<trkpt lat="47.394993966" lon="6.786750890"><ele></ele><time>2013-8-9T22:40:25Z</time></trkpt>
<trkpt lat="47.394864801" lon="6.786362389"><ele></ele><time>2013-8-9T22:40:28Z</time></trkpt>
<trkpt lat="47.394766146" lon="6.786057875"><ele></ele><time>2013-8-9T22:40:31Z</time></trkpt>
<trkpt lat="47.394773103" lon="6.785390675"><ele></ele><time>2013-8-9T22:40:34Z</time></trkpt>
<trkpt lat="47.394863125" lon="6.785148606"><ele></ele><time>2013-8-9T22:40:37Z</time></trkpt>
<trkpt lat="47.394934371" lon="6.784780137"><ele></ele><time>2013-8-9T22:40:40Z</time></trkpt>
<trkpt lat="47.394968402" lon="6.784580816"><ele></ele><time>2013-8-9T22:40:43Z</time></trkpt>
<trkpt lat="47.395077199" lon="6.784304800"><ele></ele><time>2013-8-9T22:40:46Z</time></trkpt>
<trkpt lat="47.395143751" lon="6.784189548"><ele></ele><time>2013-8-9T22:40:49Z</time></trkpt>
<trkpt lat="47.395284651" lon="6.784001039"><ele></ele><time>2013-8-9T22:40:52Z</time></trkpt>
<trkpt lat="47.395278700" lon="6.783929206"><ele></ele><time>2013-8-9T22:40:55Z</time></trkpt>
<trkpt lat="47.395216841" lon="6.783942869"><ele></ele><time>2013-8-9T22:40:58Z</time></trkpt>
<trkpt lat="47.395190606" lon="6.784007912"><ele></ele><time>2013-8-9T22:41:1Z</time></trkpt>
<trkpt lat="47.395206783" lon="6.783999698"><ele></ele><time>2013-8-9T22:41:4Z</time></trkpt>
<trkpt lat="47.395190103" lon="6.783999614"><ele></ele><time>2013-8-9T22:41:7Z</time></trkpt>
<trkpt lat="47.395022968" lon="6.784026604"><ele></ele><time>2013-8-9T22:41:10Z</time></trkpt>
<trkpt lat="47.394524077" lon="6.784158619"><ele></ele><time>2013-8-9T22:41:13Z</time></trkpt>
<trkpt lat="47.394255186" lon="6.784086954"><ele></ele><time>2013-8-9T22:41:16Z</time></trkpt>
<trkpt lat="47.394107329" lon="6.783961561"><ele></ele><time>2013-8-9T22:41:19Z</time></trkpt>
<trkpt lat="47.394068604" lon="6.783899702"><ele></ele><time>2013-8-9T22:41:22Z</time></trkpt>
<trkpt lat="47.393743219" lon="6.783183468"><ele></ele><time>2013-8-9T22:41:25Z</time></trkpt>
<trkpt lat="47.393550184" lon="6.782505540"><ele></ele><time>2013-8-9T22:41:28Z</time></trkpt>
<trkpt lat="47.393507352" lon="6.782148806"><ele></ele><time>2013-8-9T22:41:31Z</time></trkpt>
<trkpt lat="47.393477261" lon="6.781902797"><ele></ele><time>2013-8-9T22:41:34Z</time></trkpt>
<trkpt lat="47.393440465" lon="6.781517649"><ele></ele><time>2013-8-9T22:41:37Z</time></trkpt>
<trkpt lat="47.393344324" lon="6.781179020"><ele></ele><time>2013-8-9T22:41:40Z</time></trkpt>
<trkpt lat="47.393252542" lon="6.780927814"><ele></ele><time>2013-8-9T22:41:43Z</time></trkpt>
<trkpt lat="47.393300906" lon="6.780514419"><ele></ele><time>2013-8-9T22:41:46Z</time></trkpt>
<trkpt lat="47.393302918" lon="6.780524477"><ele></ele><time>2013-8-9T22:41:49Z</time></trkpt>
<trkpt lat="47.393497964" lon="6.780426661"><ele></ele><time>2013-8-9T22:41:52Z</time></trkpt>
<trkpt lat="47.393725198" lon="6.780283833"><ele></ele><time>2013-8-9T22:41:55Z</time></trkpt>
<trkpt lat="47.393730562" lon="6.780277379"><ele></ele><time>2013-8-9T22:41:58Z</time></trkpt>
<trkpt lat="47.393753361" lon="6.780283749"><ele></ele><time>2013-8-9T22:42:1Z</time></trkpt>
<trkpt lat="47.393755373" lon="6.780268913"><ele></ele><time>2013-8-9T22:42:4Z</time></trkpt>
<trkpt lat="47.393768197" lon="6.780269081"><ele></ele><time>2013-8-9T22:42:7Z</time></trkpt>
<trkpt lat="47.393830726" lon="6.780471420"><ele></ele><time>2013-8-9T22:42:10Z</time></trkpt>
<trkpt lat="47.393878000" lon="6.780991685"><ele></ele><time>2013-8-9T22:42:13Z</time></trkpt>
<trkpt lat="47.393899290" lon="6.781222019"><ele></ele><time>2013-8-9T22:42:16Z</time></trkpt>
<trkpt lat="47.393899038" lon="6.781325117"><ele></ele><time>2013-8-9T22:42:19Z</time></trkpt>
<trkpt lat="47.393938182" lon="6.781601887"><ele></ele><time>2013-8-9T22:42:22Z</time></trkpt>
<trkpt lat="47.393965088" lon="6.781843202"><ele></ele><time>2013-8-9T22:42:25Z</time></trkpt>
<trkpt lat="47.394085452" lon="6.782307224"><ele></ele><time>2013-8-9T22:42:28Z</time></trkpt>
<trkpt lat="47.394127781" lon="6.782382075"><ele></ele><time>2013-8-9T22:42:31Z</time></trkpt>
<trkpt lat="47.394233895" lon="6.782470420"><ele></ele><time>2013-8-9T22:42:34Z</time></trkpt>
<trkpt lat="47.394330790" lon="6.782419123"><ele></ele><time>2013-8-9T22:42:37Z</time></trkpt>
<trkpt lat="47.394335317" lon="6.782402443"><ele></ele><time>2013-8-9T22:42:40Z</time></trkpt>
<trkpt lat="47.394358534" lon="6.782407137"><ele></ele><time>2013-8-9T22:42:43Z</time></trkpt>
<trkpt lat="47.394368257" lon="6.782289958"><ele></ele><time>2013-8-9T22:42:46Z</time></trkpt>
<trkpt lat="47.394372029" lon="6.782248300"><ele></ele><time>2013-8-9T22:42:49Z</time></trkpt>
<trkpt lat="47.394398935" lon="6.782151489"><ele></ele><time>2013-8-9T22:42:52Z</time></trkpt>
<trkpt lat="47.394401198" lon="6.782098934"><ele></ele><time>2013-8-9T22:42:55Z</time></trkpt>
<trkpt lat="47.394405473" lon="6.782050068"><ele></ele><time>2013-8-9T22:42:58Z</time></trkpt>
<trkpt lat="47.394414023" lon="6.782001201"><ele></ele><time>2013-8-9T22:43:1Z</time></trkpt>
<trkpt lat="47.394438162" lon="6.781923668"><ele></ele><time>2013-8-9T22:43:4Z</time></trkpt>
<trkpt lat="47.394463895" lon="6.781762065"><ele></ele><time>2013-8-9T22:43:7Z</time></trkpt>
<trkpt lat="47.394467918" lon="6.781710014"><ele></ele><time>2013-8-9T22:43:10Z</time></trkpt>
<trkpt lat="47.394489543" lon="6.781609515"><ele></ele><time>2013-8-9T22:43:13Z</time></trkpt>
<trkpt lat="47.394533465" lon="6.781497784"><ele></ele><time>2013-8-9T22:43:16Z</time></trkpt>
<trkpt lat="47.394573446" lon="6.781321177"><ele></ele><time>2013-8-9T22:43:19Z</time></trkpt>
<trkpt lat="47.394637903" lon="6.781220008"><ele></ele><time>2013-8-9T22:43:22Z</time></trkpt>
<trkpt lat="47.394663719" lon="6.781199388"><ele></ele><time>2013-8-9T22:43:25Z</time></trkpt>
<trkpt lat="47.394722896" lon="6.781068211"><ele></ele><time>2013-8-9T22:43:28Z</time></trkpt>
<trkpt lat="47.394735301" lon="6.781001408"><ele></ele><time>2013-8-9T22:43:31Z</time></trkpt>
<trkpt lat="47.394768996" lon="6.780909794"><ele></ele><time>2013-8-9T22:43:34Z</time></trkpt>
<trkpt lat="47.394782240" lon="6.780890850"><ele></ele><time>2013-8-9T22:43:37Z</time></trkpt>
<trkpt lat="47.394850384" lon="6.780736288"><ele></ele><time>2013-8-9T22:43:40Z</time></trkpt>
<trkpt lat="47.394878128" lon="6.780674849"><ele></ele><time>2013-8-9T22:43:43Z</time></trkpt>
<trkpt lat="47.394926408" lon="6.780554149"><ele></ele><time>2013-8-9T22:43:46Z</time></trkpt>
<trkpt lat="47.394942334" lon="6.780513916"><ele></ele><time>2013-8-9T22:43:49Z</time></trkpt>
<trkpt lat="47.394969407" lon="6.780460859"><ele></ele><time>2013-8-9T22:43:52Z</time></trkpt>
<trkpt lat="47.395004109" lon="6.780404868"><ele></ele><time>2013-8-9T22:43:55Z</time></trkpt>
<trkpt lat="47.395050880" lon="6.780285509"><ele></ele><time>2013-8-9T22:43:58Z</time></trkpt>
<trkpt lat="47.395078288" lon="6.780223986"><ele></ele><time>2013-8-9T22:44:1Z</time></trkpt>
<trkpt lat="47.395172417" lon="6.779980408"><ele></ele><time>2013-8-9T22:44:4Z</time></trkpt>
<trkpt lat="47.395263193" lon="6.779646473"><ele></ele><time>2013-8-9T22:44:7Z</time></trkpt>
<trkpt lat="47.395322369" lon="6.779448828"><ele></ele><time>2013-8-9T22:44:10Z</time></trkpt>
<trkpt lat="47.395391269" lon="6.779290745"><ele></ele><time>2013-8-9T22:44:13Z</time></trkpt>
<trkpt lat="47.395478105" lon="6.779045323"><ele></ele><time>2013-8-9T22:44:16Z</time></trkpt>
<trkpt lat="47.395596290" lon="6.778761428"><ele></ele><time>2013-8-9T22:44:19Z</time></trkpt>
<trkpt lat="47.395648425" lon="6.778639387"><ele></ele><time>2013-8-9T22:44:22Z</time></trkpt>
<trkpt lat="47.395673990" lon="6.778562358"><ele></ele><time>2013-8-9T22:44:25Z</time></trkpt>
<trkpt lat="47.395782787" lon="6.778350212"><ele></ele><time>2013-8-9T22:44:28Z</time></trkpt>
<trkpt lat="47.395856380" lon="6.778172180"><ele></ele><time>2013-8-9T22:44:31Z</time></trkpt>
<trkpt lat="47.395976577" lon="6.777845956"><ele></ele><time>2013-8-9T22:44:34Z</time></trkpt>
<trkpt lat="47.396021588" lon="6.777757024"><ele></ele><time>2013-8-9T22:44:37Z</time></trkpt>
<trkpt lat="47.396189226" lon="6.777532306"><ele></ele><time>2013-8-9T22:44:40Z</time></trkpt>
<trkpt lat="47.396285031" lon="6.777437339"><ele></ele><time>2013-8-9T22:44:43Z</time></trkpt>
<trkpt lat="47.396589629" lon="6.777175488"><ele></ele><time>2013-8-9T22:44:46Z</time></trkpt>
<trkpt lat="47.396714855" lon="6.777092591"><ele></ele><time>2013-8-9T22:44:49Z</time></trkpt>
<trkpt lat="47.396963546" lon="6.777073313"><ele></ele><time>2013-8-9T22:44:52Z</time></trkpt>
<trkpt lat="47.396983998" lon="6.777057638"><ele></ele><time>2013-8-9T22:44:55Z</time></trkpt>
<trkpt lat="47.397201425" lon="6.777078342"><ele></ele><time>2013-8-9T22:44:58Z</time></trkpt>
<trkpt lat="47.397341821" lon="6.776968958"><ele></ele><time>2013-8-9T22:45:1Z</time></trkpt>
<trkpt lat="47.397334194" lon="6.776869884"><ele></ele><time>2013-8-9T22:45:4Z</time></trkpt>
<trkpt lat="47.397291530" lon="6.776932580"><ele></ele><time>2013-8-9T22:45:7Z</time></trkpt>
<trkpt lat="47.397224559" lon="6.776909195"><ele></ele><time>2013-8-9T22:45:10Z</time></trkpt>
<trkpt lat="47.397117773" lon="6.776837278"><ele></ele><time>2013-8-9T22:45:13Z</time></trkpt>
<trkpt lat="47.396963295" lon="6.776830321"><ele></ele><time>2013-8-9T22:45:16Z</time></trkpt>
<trkpt lat="47.396814767" lon="6.776787909"><ele></ele><time>2013-8-9T22:45:19Z</time></trkpt>
<trkpt lat="47.396752993" lon="6.776775839"><ele></ele><time>2013-8-9T22:45:22Z</time></trkpt>
<trkpt lat="47.396687195" lon="6.776770139"><ele></ele><time>2013-8-9T22:45:25Z</time></trkpt>
<trkpt lat="47.396544535" lon="6.776740886"><ele></ele><time>2013-8-9T22:45:28Z</time></trkpt>
<trkpt lat="47.396237925" lon="6.776804505"><ele></ele><time>2013-8-9T22:45:31Z</time></trkpt>
<trkpt lat="47.395657645" lon="6.777001144"><ele></ele><time>2013-8-9T22:45:34Z</time></trkpt>
<trkpt lat="47.395573827" lon="6.777019752"><ele></ele><time>2013-8-9T22:45:37Z</time></trkpt>
<trkpt lat="47.395410631" lon="6.777140452"><ele></ele><time>2013-8-9T22:45:40Z</time></trkpt>
<trkpt lat="47.395240562" lon="6.777340276"><ele></ele><time>2013-8-9T22:45:43Z</time></trkpt>
<trkpt lat="47.395002600" lon="6.777481260"><ele></ele><time>2013-8-9T22:45:46Z</time></trkpt>
<trkpt lat="47.394978963" lon="6.777490815"><ele></ele><time>2013-8-9T22:45:49Z</time></trkpt>
<trkpt lat="47.394822892" lon="6.777616376"><ele></ele><time>2013-8-9T22:45:52Z</time></trkpt>
<trkpt lat="47.394716442" lon="6.777604055"><ele></ele><time>2013-8-9T22:45:55Z</time></trkpt>
<trkpt lat="47.394677550" lon="6.777589638"><ele></ele><time>2013-8-9T22:45:58Z</time></trkpt>
<trkpt lat="47.394438665" lon="6.777554685"><ele></ele><time>2013-8-9T22:46:1Z</time></trkpt>
<trkpt lat="47.394288629" lon="6.777540687"><ele></ele><time>2013-8-9T22:46:4Z</time></trkpt>
<trkpt lat="47.394200955" lon="6.777540520"><ele></ele><time>2013-8-9T22:46:7Z</time></trkpt>
<trkpt lat="47.393828044" lon="6.777483774"><ele></ele><time>2013-8-9T22:46:10Z</time></trkpt>
<trkpt lat="47.393563176" lon="6.777390568"><ele></ele><time>2013-8-9T22:46:13Z</time></trkpt>
<trkpt lat="47.393362848" lon="6.777322087"><ele></ele><time>2013-8-9T22:46:16Z</time></trkpt>
<trkpt lat="47.393161012" lon="6.777270790"><ele></ele><time>2013-8-9T22:46:19Z</time></trkpt>
<trkpt lat="47.392983986" lon="6.777215721"><ele></ele><time>2013-8-9T22:46:22Z</time></trkpt>
<trkpt lat="47.392836632" lon="6.777174482"><ele></ele><time>2013-8-9T22:46:25Z</time></trkpt>
<trkpt lat="47.392598419" lon="6.777177332"><ele></ele><time>2013-8-9T22:46:28Z</time></trkpt>
<trkpt lat="47.392378561" lon="6.777220331"><ele></ele><time>2013-8-9T22:46:31Z</time></trkpt>
<trkpt lat="47.392301615" lon="6.777216978"><ele></ele><time>2013-8-9T22:46:34Z</time></trkpt>
<trkpt lat="47.392065329" lon="6.777138188"><ele></ele><time>2013-8-9T22:46:37Z</time></trkpt>
<trkpt lat="47.391996514" lon="6.777093178"><ele></ele><time>2013-8-9T22:46:40Z</time></trkpt>
<trkpt lat="47.391989138" lon="6.777095608"><ele></ele><time>2013-8-9T22:46:43Z</time></trkpt>
<trkpt lat="47.391880173" lon="6.777025619"><ele></ele><time>2013-8-9T22:46:46Z</time></trkpt>
<trkpt lat="47.391637182" lon="6.776952278"><ele></ele><time>2013-8-9T22:46:49Z</time></trkpt>
<trkpt lat="47.391478261" lon="6.776796710"><ele></ele><time>2013-8-9T22:46:52Z</time></trkpt>
<trkpt lat="47.391447499" lon="6.776760500"><ele></ele><time>2013-8-9T22:46:55Z</time></trkpt>
<trkpt lat="47.391340211" lon="6.776681207"><ele></ele><time>2013-8-9T22:46:58Z</time></trkpt>
<trkpt lat="47.391017843" lon="6.776818838"><ele></ele><time>2013-8-9T22:47:1Z</time></trkpt>
<trkpt lat="47.390599670" lon="6.777004162"><ele></ele><time>2013-8-9T22:47:4Z</time></trkpt>
<trkpt lat="47.390095498" lon="6.777200801"><ele></ele><time>2013-8-9T22:47:7Z</time></trkpt>
<trkpt lat="47.389759552" lon="6.777454522"><ele></ele><time>2013-8-9T22:47:10Z</time></trkpt>
<trkpt lat="47.389626196" lon="6.777636995"><ele></ele><time>2013-8-9T22:47:13Z</time></trkpt>
<trkpt lat="47.389127556" lon="6.778194308"><ele></ele><time>2013-8-9T22:47:16Z</time></trkpt>
<trkpt lat="47.388573177" lon="6.778914314"><ele></ele><time>2013-8-9T22:47:19Z</time></trkpt>
<trkpt lat="47.388540739" lon="6.778963516"><ele></ele><time>2013-8-9T22:47:22Z</time></trkpt>
<trkpt lat="47.388185430" lon="6.779340953"><ele></ele><time>2013-8-9T22:47:25Z</time></trkpt>
<trkpt lat="47.387996167" lon="6.778922863"><ele></ele><time>2013-8-9T22:47:28Z</time></trkpt>
<trkpt lat="47.387817884" lon="6.778103784"><ele></ele><time>2013-8-9T22:47:31Z</time></trkpt>
<trkpt lat="47.387596602" lon="6.777134500"><ele></ele><time>2013-8-9T22:47:34Z</time></trkpt>
<trkpt lat="47.387214974" lon="6.776183322"><ele></ele><time>2013-8-9T22:47:37Z</time></trkpt>
<trkpt lat="47.386742821" lon="6.775085712"><ele></ele><time>2013-8-9T22:47:40Z</time></trkpt>
<trkpt lat="47.386678448" lon="6.774939867"><ele></ele><time>2013-8-9T22:47:43Z</time></trkpt>
<trkpt lat="47.386433277" lon="6.774364030"><ele></ele><time>2013-8-9T22:47:46Z</time></trkpt>
<trkpt lat="47.386300424" lon="6.774141574"><ele></ele><time>2013-8-9T22:47:49Z</time></trkpt>
<trkpt lat="47.385739675" lon="6.773906462"><ele></ele><time>2013-8-9T22:47:52Z</time></trkpt>
<trkpt lat="47.384866197" lon="6.773690879"><ele></ele><time>2013-8-9T22:47:55Z</time></trkpt>
<trkpt lat="47.384420950" lon="6.773579065"><ele></ele><time>2013-8-9T22:47:58Z</time></trkpt>
<trkpt lat="47.383933878" lon="6.773455767"><ele></ele><time>2013-8-9T22:48:1Z</time></trkpt>
<trkpt lat="47.383842180" lon="6.773433387"><ele></ele><time>2013-8-9T22:48:4Z</time></trkpt>
<trkpt lat="47.383343121" lon="6.773349065"><ele></ele><time>2013-8-9T22:48:7Z</time></trkpt>
<trkpt lat="47.383091580" lon="6.773264911"><ele></ele><time>2013-8-9T22:48:10Z</time></trkpt>
<trkpt lat="47.383083031" lon="6.773245800"><ele></ele><time>2013-8-9T22:48:13Z</time></trkpt>
<trkpt lat="47.383076409" lon="6.773204310"><ele></ele><time>2013-8-9T22:48:16Z</time></trkpt>
<trkpt lat="47.383078420" lon="6.773217386"><ele></ele><time>2013-8-9T22:48:19Z</time></trkpt>
<trkpt lat="47.383085042" lon="6.773245465"><ele></ele><time>2013-8-9T22:48:22Z</time></trkpt>
<trkpt lat="47.383088730" lon="6.773266252"><ele></ele><time>2013-8-9T22:48:25Z</time></trkpt>
<trkpt lat="47.383091496" lon="6.773250327"><ele></ele><time>2013-8-9T22:48:28Z</time></trkpt>
<trkpt lat="47.383081270" lon="6.773270695"><ele></ele><time>2013-8-9T22:48:31Z</time></trkpt>
<trkpt lat="47.383080432" lon="6.773311095"><ele></ele><time>2013-8-9T22:48:34Z</time></trkpt>
<trkpt lat="47.383079007" lon="6.773353592"><ele></ele><time>2013-8-9T22:48:37Z</time></trkpt>
<trkpt lat="47.383085210" lon="6.773415198"><ele></ele><time>2013-8-9T22:48:40Z</time></trkpt>
<trkpt lat="47.383083701" lon="6.773424083"><ele></ele><time>2013-8-9T22:48:43Z</time></trkpt>
<trkpt lat="47.383104153" lon="6.773427688"><ele></ele><time>2013-8-9T22:48:46Z</time></trkpt>
<trkpt lat="47.383114463" lon="6.773422910"><ele></ele><time>2013-8-9T22:48:49Z</time></trkpt>
<trkpt lat="47.383131394" lon="6.773417378"><ele></ele><time>2013-8-9T22:48:52Z</time></trkpt>
<trkpt lat="47.383135753" lon="6.773411175"><ele></ele><time>2013-8-9T22:48:55Z</time></trkpt>
<trkpt lat="47.383140111" lon="6.773397094"><ele></ele><time>2013-8-9T22:48:58Z</time></trkpt>
<trkpt lat="47.383110607" lon="6.773401452"><ele></ele><time>2013-8-9T22:49:1Z</time></trkpt>
<trkpt lat="47.383108679" lon="6.773432800"><ele></ele><time>2013-8-9T22:49:4Z</time></trkpt>
<trkpt lat="47.383109434" lon="6.773442105"><ele></ele><time>2013-8-9T22:49:7Z</time></trkpt>
<trkpt lat="47.383137345" lon="6.773392567"><ele></ele><time>2013-8-9T22:49:10Z</time></trkpt>
<trkpt lat="47.383152181" lon="6.773378821"><ele></ele><time>2013-8-9T22:49:13Z</time></trkpt>
<trkpt lat="47.383167185" lon="6.773328781"><ele></ele><time>2013-8-9T22:49:16Z</time></trkpt>
<trkpt lat="47.383184452" lon="6.773290476"><ele></ele><time>2013-8-9T22:49:19Z</time></trkpt>
<trkpt lat="47.383175567" lon="6.773302043"><ele></ele><time>2013-8-9T22:49:22Z</time></trkpt>
<trkpt lat="47.383162659" lon="6.773303384"><ele></ele><time>2013-8-9T22:49:25Z</time></trkpt>
<trkpt lat="47.383153606" lon="6.773309084"><ele></ele><time>2013-8-9T22:49:28Z</time></trkpt>
<trkpt lat="47.383151594" lon="6.773292823"><ele></ele><time>2013-8-9T22:49:31Z</time></trkpt>
<trkpt lat="47.383159306" lon="6.773269437"><ele></ele><time>2013-8-9T22:49:34Z</time></trkpt>
<trkpt lat="47.383164335" lon="6.773267258"><ele></ele><time>2013-8-9T22:49:37Z</time></trkpt>
<trkpt lat="47.383167772" lon="6.773265665"><ele></ele><time>2013-8-9T22:49:40Z</time></trkpt>
<trkpt lat="47.383179171" lon="6.773270695"><ele></ele><time>2013-8-9T22:49:43Z</time></trkpt>
<trkpt lat="47.383191492" lon="6.773243872"><ele></ele><time>2013-8-9T22:49:46Z</time></trkpt>
<trkpt lat="47.383194594" lon="6.773232222"><ele></ele><time>2013-8-9T22:49:49Z</time></trkpt>
<trkpt lat="47.383195264" lon="6.773239346"><ele></ele><time>2013-8-9T22:49:52Z</time></trkpt>
<trkpt lat="47.383195264" lon="6.773239346"><ele></ele><time>2013-8-9T22:49:55Z</time></trkpt>
<trkpt lat="47.383193169" lon="6.773239346"><ele></ele><time>2013-8-9T22:49:58Z</time></trkpt>
<trkpt lat="47.383194342" lon="6.773257619"><ele></ele><time>2013-8-9T22:50:1Z</time></trkpt>
<trkpt lat="47.383200126" lon="6.773268683"><ele></ele><time>2013-8-9T22:50:4Z</time></trkpt>
<trkpt lat="47.383211358" lon="6.773277484"><ele></ele><time>2013-8-9T22:50:7Z</time></trkpt>
<trkpt lat="47.383209430" lon="6.773282765"><ele></ele><time>2013-8-9T22:50:10Z</time></trkpt>
<trkpt lat="47.383205909" lon="6.773281591"><ele></ele><time>2013-8-9T22:50:13Z</time></trkpt>
<trkpt lat="47.383209597" lon="6.773287710"><ele></ele><time>2013-8-9T22:50:16Z</time></trkpt>
<trkpt lat="47.383202724" lon="6.773279495"><ele></ele><time>2013-8-9T22:50:19Z</time></trkpt>
<trkpt lat="47.383190403" lon="6.773297349"><ele></ele><time>2013-8-9T22:50:22Z</time></trkpt>
<trkpt lat="47.383179506" lon="6.773295756"><ele></ele><time>2013-8-9T22:50:25Z</time></trkpt>
<trkpt lat="47.383313365" lon="6.773384185"><ele></ele><time>2013-8-9T22:50:28Z</time></trkpt>
<trkpt lat="47.383499276" lon="6.773395501"><ele></ele><time>2013-8-9T22:50:31Z</time></trkpt>
<trkpt lat="47.383621149" lon="6.773395669"><ele></ele><time>2013-8-9T22:50:34Z</time></trkpt>
<trkpt lat="47.384008476" lon="6.773508824"><ele></ele><time>2013-8-9T22:50:37Z</time></trkpt>
<trkpt lat="47.384419190" lon="6.773640756"><ele></ele><time>2013-8-9T22:50:40Z</time></trkpt>
<trkpt lat="47.384624463" lon="6.773702446"><ele></ele><time>2013-8-9T22:50:43Z</time></trkpt>
<trkpt lat="47.384731919" lon="6.773848124"><ele></ele><time>2013-8-9T22:50:46Z</time></trkpt>
<trkpt lat="47.385008018" lon="6.774358079"><ele></ele><time>2013-8-9T22:50:49Z</time></trkpt>
<trkpt lat="47.385110445" lon="6.774689248"><ele></ele><time>2013-8-9T22:50:52Z</time></trkpt>
<trkpt lat="47.385219662" lon="6.775066182"><ele></ele><time>2013-8-9T22:50:55Z</time></trkpt>
<trkpt lat="47.385347988" lon="6.775459126"><ele></ele><time>2013-8-9T22:50:58Z</time></trkpt>
<trkpt lat="47.385475477" lon="6.775930272"><ele></ele><time>2013-8-9T22:51:1Z</time></trkpt>
<trkpt lat="47.385483691" lon="6.776004117"><ele></ele><time>2013-8-9T22:51:4Z</time></trkpt>
<trkpt lat="47.385548735" lon="6.776400413"><ele></ele><time>2013-8-9T22:51:7Z</time></trkpt>
<trkpt lat="47.385672201" lon="6.776920678"><ele></ele><time>2013-8-9T22:51:10Z</time></trkpt>
<trkpt lat="47.385824500" lon="6.777345641"><ele></ele><time>2013-8-9T22:51:13Z</time></trkpt>
<trkpt lat="47.385961795" lon="6.777714780"><ele></ele><time>2013-8-9T22:51:16Z</time></trkpt>
<trkpt lat="47.386152651" lon="6.778171845"><ele></ele><time>2013-8-9T22:51:19Z</time></trkpt>
<trkpt lat="47.386410730" lon="6.778628994"><ele></ele><time>2013-8-9T22:51:22Z</time></trkpt>
<trkpt lat="47.386432188" lon="6.778949937"><ele></ele><time>2013-8-9T22:51:25Z</time></trkpt>
<trkpt lat="47.386236051" lon="6.778796213"><ele></ele><time>2013-8-9T22:51:28Z</time></trkpt>
<trkpt lat="47.385999681" lon="6.778436042"><ele></ele><time>2013-8-9T22:51:31Z</time></trkpt>
<trkpt lat="47.385749649" lon="6.778105460"><ele></ele><time>2013-8-9T22:51:34Z</time></trkpt>
<trkpt lat="47.385516548" lon="6.777896248"><ele></ele><time>2013-8-9T22:51:37Z</time></trkpt>
<trkpt lat="47.385228714" lon="6.777673708"><ele></ele><time>2013-8-9T22:51:40Z</time></trkpt>
<trkpt lat="47.385011623" lon="6.777505651"><ele></ele><time>2013-8-9T22:51:43Z</time></trkpt>
<trkpt lat="47.384749269" lon="6.777307503"><ele></ele><time>2013-8-9T22:51:46Z</time></trkpt>
<trkpt lat="47.384651955" lon="6.777256457"><ele></ele><time>2013-8-9T22:51:49Z</time></trkpt>
<trkpt lat="47.384605436" lon="6.777208261"><ele></ele><time>2013-8-9T22:51:52Z</time></trkpt>
<trkpt lat="47.384524131" lon="6.777141709"><ele></ele><time>2013-8-9T22:51:55Z</time></trkpt>
<trkpt lat="47.384295557" lon="6.776933922"><ele></ele><time>2013-8-9T22:51:58Z</time></trkpt>
<trkpt lat="47.384106545" lon="6.776770642"><ele></ele><time>2013-8-9T22:52:1Z</time></trkpt>
<trkpt lat="47.383908229" lon="6.776596801"><ele></ele><time>2013-8-9T22:52:4Z</time></trkpt>
<trkpt lat="47.383607486" lon="6.776513904"><ele></ele><time>2013-8-9T22:52:7Z</time></trkpt>
<trkpt lat="47.383380504" lon="6.776453471"><ele></ele><time>2013-8-9T22:52:10Z</time></trkpt>
<trkpt lat="47.383144386" lon="6.776425224"><ele></ele><time>2013-8-9T22:52:13Z</time></trkpt>
<trkpt lat="47.382941712" lon="6.776432516"><ele></ele><time>2013-8-9T22:52:16Z</time></trkpt>
<trkpt lat="47.382726548" lon="6.776462859"><ele></ele><time>2013-8-9T22:52:19Z</time></trkpt>
<trkpt lat="47.382609202" lon="6.776487920"><ele></ele><time>2013-8-9T22:52:22Z</time></trkpt>
<trkpt lat="47.382409628" lon="6.776544750"><ele></ele><time>2013-8-9T22:52:25Z</time></trkpt>
<trkpt lat="47.382214246" lon="6.776545588"><ele></ele><time>2013-8-9T22:52:28Z</time></trkpt>
<trkpt lat="47.382091619" lon="6.776570315"><ele></ele><time>2013-8-9T22:52:31Z</time></trkpt>
<trkpt lat="47.382065719" lon="6.776568554"><ele></ele><time>2013-8-9T22:52:34Z</time></trkpt>
<trkpt lat="47.381845107" lon="6.776614320"><ele></ele><time>2013-8-9T22:52:37Z</time></trkpt>
<trkpt lat="47.381758522" lon="6.776623288"><ele></ele><time>2013-8-9T22:52:40Z</time></trkpt>
<trkpt lat="47.381657101" lon="6.776620941"><ele></ele><time>2013-8-9T22:52:43Z</time></trkpt>
<trkpt lat="47.381632207" lon="6.776630748"><ele></ele><time>2013-8-9T22:52:46Z</time></trkpt>
<trkpt lat="47.381444955" lon="6.776729403"><ele></ele><time>2013-8-9T22:52:49Z</time></trkpt>
<trkpt lat="47.381283101" lon="6.776745161"><ele></ele><time>2013-8-9T22:52:52Z</time></trkpt>
<trkpt lat="47.381145135" lon="6.776805511"><ele></ele><time>2013-8-9T22:52:55Z</time></trkpt>
<trkpt lat="47.380914716" lon="6.776893018"><ele></ele><time>2013-8-9T22:52:58Z</time></trkpt>
<trkpt lat="47.380834417" lon="6.776912212"><ele></ele><time>2013-8-9T22:53:1Z</time></trkpt>
<trkpt lat="47.380612548" lon="6.776970215"><ele></ele><time>2013-8-9T22:53:4Z</time></trkpt>
<trkpt lat="47.380474750" lon="6.777063087"><ele></ele><time>2013-8-9T22:53:7Z</time></trkpt>
<trkpt lat="47.380208457" lon="6.777187558"><ele></ele><time>2013-8-9T22:53:10Z</time></trkpt>
<trkpt lat="47.380070156" lon="6.777252685"><ele></ele><time>2013-8-9T22:53:13Z</time></trkpt>
<trkpt lat="47.379876114" lon="6.777338935"><ele></ele><time>2013-8-9T22:53:16Z</time></trkpt>
<trkpt lat="47.379718786" lon="6.777366092"><ele></ele><time>2013-8-9T22:53:19Z</time></trkpt>
<trkpt lat="47.379465150" lon="6.777411522"><ele></ele><time>2013-8-9T22:53:22Z</time></trkpt>
<trkpt lat="47.379394407" lon="6.777405404"><ele></ele><time>2013-8-9T22:53:25Z</time></trkpt>
<trkpt lat="47.379194414" lon="6.777445553"><ele></ele><time>2013-8-9T22:53:28Z</time></trkpt>
<trkpt lat="47.379089389" lon="6.777459299"><ele></ele><time>2013-8-9T22:53:31Z</time></trkpt>
<trkpt lat="47.378991908" lon="6.777475309"><ele></ele><time>2013-8-9T22:53:34Z</time></trkpt>
<trkpt lat="47.378904987" lon="6.777505735"><ele></ele><time>2013-8-9T22:53:37Z</time></trkpt>
<trkpt lat="47.378678508" lon="6.777512021"><ele></ele><time>2013-8-9T22:53:40Z</time></trkpt>
<trkpt lat="47.378666941" lon="6.777512273"><ele></ele><time>2013-8-9T22:53:43Z</time></trkpt>
<trkpt lat="47.378595527" lon="6.777547728"><ele></ele><time>2013-8-9T22:53:46Z</time></trkpt>
<trkpt lat="47.378473487" lon="6.777545717"><ele></ele><time>2013-8-9T22:53:49Z</time></trkpt>
<trkpt lat="47.378219767" lon="6.777537838"><ele></ele><time>2013-8-9T22:53:52Z</time></trkpt>
<trkpt lat="47.378156483" lon="6.777538005"><ele></ele><time>2013-8-9T22:53:55Z</time></trkpt>
<trkpt lat="47.377925478" lon="6.777546890"><ele></ele><time>2013-8-9T22:53:58Z</time></trkpt>
<trkpt lat="47.377747363" lon="6.777595254"><ele></ele><time>2013-8-9T22:54:1Z</time></trkpt>
<trkpt lat="47.377651138" lon="6.777633475"><ele></ele><time>2013-8-9T22:54:4Z</time></trkpt>
<trkpt lat="47.377594225" lon="6.777653173"><ele></ele><time>2013-8-9T22:54:7Z</time></trkpt>
<trkpt lat="47.377367578" lon="6.777711846"><ele></ele><time>2013-8-9T22:54:10Z</time></trkpt>
<trkpt lat="47.377171358" lon="6.777719809"><ele></ele><time>2013-8-9T22:54:13Z</time></trkpt>
<trkpt lat="47.376948148" lon="6.777720479"><ele></ele><time>2013-8-9T22:54:16Z</time></trkpt>
<trkpt lat="47.376715215" lon="6.777731292"><ele></ele><time>2013-8-9T22:54:19Z</time></trkpt>
<trkpt lat="47.376538189" lon="6.777748056"><ele></ele><time>2013-8-9T22:54:22Z</time></trkpt>
<trkpt lat="47.376327803" lon="6.777734142"><ele></ele><time>2013-8-9T22:54:25Z</time></trkpt>
<trkpt lat="47.376273489" lon="6.777713271"><ele></ele><time>2013-8-9T22:54:28Z</time></trkpt>
<trkpt lat="47.376055894" lon="6.777589554"><ele></ele><time>2013-8-9T22:54:31Z</time></trkpt>
<trkpt lat="47.375835031" lon="6.777405655"><ele></ele><time>2013-8-9T22:54:34Z</time></trkpt>
<trkpt lat="47.375794798" lon="6.777353939"><ele></ele><time>2013-8-9T22:54:37Z</time></trkpt>
<trkpt lat="47.375730090" lon="6.777225193"><ele></ele><time>2013-8-9T22:54:40Z</time></trkpt>
<trkpt lat="47.375649707" lon="6.777148917"><ele></ele><time>2013-8-9T22:54:43Z</time></trkpt>
<trkpt lat="47.375437142" lon="6.777091082"><ele></ele><time>2013-8-9T22:54:46Z</time></trkpt>
<trkpt lat="47.375404956" lon="6.777196024"><ele></ele><time>2013-8-9T22:54:49Z</time></trkpt>
<trkpt lat="47.375411661" lon="6.777230808"><ele></ele><time>2013-8-9T22:54:52Z</time></trkpt>
<trkpt lat="47.375437561" lon="6.777303144"><ele></ele><time>2013-8-9T22:54:55Z</time></trkpt>
<trkpt lat="47.375504952" lon="6.777487714"><ele></ele><time>2013-8-9T22:54:58Z</time></trkpt>
<trkpt lat="47.375597991" lon="6.777661471"><ele></ele><time>2013-8-9T22:55:1Z</time></trkpt>
<trkpt lat="47.375734532" lon="6.777837910"><ele></ele><time>2013-8-9T22:55:4Z</time></trkpt>
<trkpt lat="47.375865122" lon="6.778015103"><ele></ele><time>2013-8-9T22:55:7Z</time></trkpt>
<trkpt lat="47.376026055" lon="6.778199840"><ele></ele><time>2013-8-9T22:55:10Z</time></trkpt>
<trkpt lat="47.376226801" lon="6.778308386"><ele></ele><time>2013-8-9T22:55:13Z</time></trkpt>
<trkpt lat="47.376377759" lon="6.778339148"><ele></ele><time>2013-8-9T22:55:16Z</time></trkpt>
<trkpt lat="47.376526035" lon="6.778376112"><ele></ele><time>2013-8-9T22:55:19Z</time></trkpt>
<trkpt lat="47.376731308" lon="6.778389607"><ele></ele><time>2013-8-9T22:55:22Z</time></trkpt>
<trkpt lat="47.376986789" lon="6.778441239"><ele></ele><time>2013-8-9T22:55:25Z</time></trkpt>
<trkpt lat="47.377197426" lon="6.778509300"><ele></ele><time>2013-8-9T22:55:28Z</time></trkpt>
<trkpt lat="47.377433628" lon="6.778599573"><ele></ele><time>2013-8-9T22:55:31Z</time></trkpt>
<trkpt lat="47.377586262" lon="6.778661516"><ele></ele><time>2013-8-9T22:55:34Z</time></trkpt>
<trkpt lat="47.377664046" lon="6.778690936"><ele></ele><time>2013-8-9T22:55:37Z</time></trkpt>
<trkpt lat="47.377871834" lon="6.778778778"><ele></ele><time>2013-8-9T22:55:40Z</time></trkpt>
<trkpt lat="47.378127482" lon="6.778895203"><ele></ele><time>2013-8-9T22:55:43Z</time></trkpt>
<trkpt lat="47.378391177" lon="6.778989416"><ele></ele><time>2013-8-9T22:55:46Z</time></trkpt>
<trkpt lat="47.378640790" lon="6.779056387"><ele></ele><time>2013-8-9T22:55:49Z</time></trkpt>
<trkpt lat="47.378863413" lon="6.779106427"><ele></ele><time>2013-8-9T22:55:52Z</time></trkpt>
<trkpt lat="47.379103973" lon="6.779161915"><ele></ele><time>2013-8-9T22:55:55Z</time></trkpt>
<trkpt lat="47.379314611" lon="6.779237771"><ele></ele><time>2013-8-9T22:55:58Z</time></trkpt>
<trkpt lat="47.379572270" lon="6.779277082"><ele></ele><time>2013-8-9T22:56:1Z</time></trkpt>
<trkpt lat="47.379604960" lon="6.779291918"><ele></ele><time>2013-8-9T22:56:4Z</time></trkpt>
<trkpt lat="47.379637146" lon="6.779294768"><ele></ele><time>2013-8-9T22:56:7Z</time></trkpt>
<trkpt lat="47.379735215" lon="6.779295439"><ele></ele><time>2013-8-9T22:56:10Z</time></trkpt>
<trkpt lat="47.379998406" lon="6.779313125"><ele></ele><time>2013-8-9T22:56:13Z</time></trkpt>
<trkpt lat="47.380224466" lon="6.779303066"><ele></ele><time>2013-8-9T22:56:16Z</time></trkpt>
<trkpt lat="47.380419346" lon="6.779287392"><ele></ele><time>2013-8-9T22:56:19Z</time></trkpt>
<trkpt lat="47.380480450" lon="6.779263923"><ele></ele><time>2013-8-9T22:56:22Z</time></trkpt>
<trkpt lat="47.380780606" lon="6.779216398"><ele></ele><time>2013-8-9T22:56:25Z</time></trkpt>
<trkpt lat="47.381051257" lon="6.779157976"><ele></ele><time>2013-8-9T22:56:28Z</time></trkpt>
<trkpt lat="47.381270360" lon="6.779115144"><ele></ele><time>2013-8-9T22:56:31Z</time></trkpt>
<trkpt lat="47.381498264" lon="6.779044317"><ele></ele><time>2013-8-9T22:56:34Z</time></trkpt>
<trkpt lat="47.381545873" lon="6.779038953"><ele></ele><time>2013-8-9T22:56:37Z</time></trkpt>
<trkpt lat="47.381565068" lon="6.778982962"><ele></ele><time>2013-8-9T22:56:40Z</time></trkpt>
<trkpt lat="47.381546460" lon="6.778984387"><ele></ele><time>2013-8-9T22:56:43Z</time></trkpt>
<trkpt lat="47.381566660" lon="6.778945662"><ele></ele><time>2013-8-9T22:56:46Z</time></trkpt>
<trkpt lat="47.381575042" lon="6.778941890"><ele></ele><time>2013-8-9T22:56:49Z</time></trkpt>
<trkpt lat="47.381574791" lon="6.778973574"><ele></ele><time>2013-8-9T22:56:52Z</time></trkpt>
<trkpt lat="47.381580323" lon="6.778980363"><ele></ele><time>2013-8-9T22:56:55Z</time></trkpt>
<trkpt lat="47.381676380" lon="6.779068373"><ele></ele><time>2013-8-9T22:56:58Z</time></trkpt>
<trkpt lat="47.381771514" lon="6.779111791"><ele></ele><time>2013-8-9T22:57:1Z</time></trkpt>
<trkpt lat="47.382009476" lon="6.779162083"><ele></ele><time>2013-8-9T22:57:4Z</time></trkpt>
<trkpt lat="47.382276943" lon="6.779352604"><ele></ele><time>2013-8-9T22:57:7Z</time></trkpt>
<trkpt lat="47.382417088" lon="6.779667679"><ele></ele><time>2013-8-9T22:57:10Z</time></trkpt>
<trkpt lat="47.382446174" lon="6.779805478"><ele></ele><time>2013-8-9T22:57:13Z</time></trkpt>
<trkpt lat="47.382352715" lon="6.780231446"><ele></ele><time>2013-8-9T22:57:16Z</time></trkpt>
<trkpt lat="47.382014003" lon="6.780590024"><ele></ele><time>2013-8-9T22:57:19Z</time></trkpt>
<trkpt lat="47.381595913" lon="6.780844582"><ele></ele><time>2013-8-9T22:57:22Z</time></trkpt>
<trkpt lat="47.381165251" lon="6.781019680"><ele></ele><time>2013-8-9T22:57:25Z</time></trkpt>
<trkpt lat="47.380851516" lon="6.780982465"><ele></ele><time>2013-8-9T22:57:28Z</time></trkpt>
<trkpt lat="47.380650015" lon="6.780893868"><ele></ele><time>2013-8-9T22:57:31Z</time></trkpt>
<trkpt lat="47.380419010" lon="6.780809881"><ele></ele><time>2013-8-9T22:57:34Z</time></trkpt>
<trkpt lat="47.379875947" lon="6.780706113"><ele></ele><time>2013-8-9T22:57:37Z</time></trkpt>
<trkpt lat="47.379754158" lon="6.780678872"><ele></ele><time>2013-8-9T22:57:40Z</time></trkpt>
<trkpt lat="47.379604792" lon="6.780537553"><ele></ele><time>2013-8-9T22:57:43Z</time></trkpt>
<trkpt lat="47.379187290" lon="6.780065652"><ele></ele><time>2013-8-9T22:57:46Z</time></trkpt>
<trkpt lat="47.378783617" lon="6.780030616"><ele></ele><time>2013-8-9T22:57:49Z</time></trkpt>
<trkpt lat="47.378397463" lon="6.780212419"><ele></ele><time>2013-8-9T22:57:52Z</time></trkpt>
<trkpt lat="47.378155980" lon="6.780317444"><ele></ele><time>2013-8-9T22:57:55Z</time></trkpt>
<trkpt lat="47.377917850" lon="6.780384080"><ele></ele><time>2013-8-9T22:57:58Z</time></trkpt>
<trkpt lat="47.377737891" lon="6.780170174"><ele></ele><time>2013-8-9T22:58:1Z</time></trkpt>
<trkpt lat="47.377527421" lon="6.779887704"><ele></ele><time>2013-8-9T22:58:4Z</time></trkpt>
<trkpt lat="47.377238832" lon="6.779962303"><ele></ele><time>2013-8-9T22:58:7Z</time></trkpt>
<trkpt lat="47.377056610" lon="6.780271595"><ele></ele><time>2013-8-9T22:58:10Z</time></trkpt>
<trkpt lat="47.376850834" lon="6.780590192"><ele></ele><time>2013-8-9T22:58:13Z</time></trkpt>
<trkpt lat="47.376680011" lon="6.780929659"><ele></ele><time>2013-8-9T22:58:16Z</time></trkpt>
<trkpt lat="47.376615051" lon="6.781037534"><ele></ele><time>2013-8-9T22:58:19Z</time></trkpt>
<trkpt lat="47.376592252" lon="6.781036444"><ele></ele><time>2013-8-9T22:58:22Z</time></trkpt>
<trkpt lat="47.376579596" lon="6.781026553"><ele></ele><time>2013-8-9T22:58:25Z</time></trkpt>
<trkpt lat="47.376512540" lon="6.780947261"><ele></ele><time>2013-8-9T22:58:28Z</time></trkpt>
<trkpt lat="47.376522683" lon="6.780567812"><ele></ele><time>2013-8-9T22:58:31Z</time></trkpt>
<trkpt lat="47.376480941" lon="6.780192889"><ele></ele><time>2013-8-9T22:58:34Z</time></trkpt>
<trkpt lat="47.376200482" lon="6.780108567"><ele></ele><time>2013-8-9T22:58:37Z</time></trkpt>
<trkpt lat="47.376060085" lon="6.780411322"><ele></ele><time>2013-8-9T22:58:40Z</time></trkpt>
<trkpt lat="47.375945421" lon="6.780747520"><ele></ele><time>2013-8-9T22:58:43Z</time></trkpt>
<trkpt lat="47.375821034" lon="6.781077431"><ele></ele><time>2013-8-9T22:58:46Z</time></trkpt>
<trkpt lat="47.375632944" lon="6.781306090"><ele></ele><time>2013-8-9T22:58:49Z</time></trkpt>
<trkpt lat="47.375556082" lon="6.781277927"><ele></ele><time>2013-8-9T22:58:52Z</time></trkpt>
<trkpt lat="47.375549041" lon="6.781221349"><ele></ele><time>2013-8-9T22:58:55Z</time></trkpt>
<trkpt lat="47.375538815" lon="6.781011801"><ele></ele><time>2013-8-9T22:58:58Z</time></trkpt>
<trkpt lat="47.375526410" lon="6.780879702"><ele></ele><time>2013-8-9T22:59:1Z</time></trkpt>
<trkpt lat="47.375556668" lon="6.780755147"><ele></ele><time>2013-8-9T22:59:4Z</time></trkpt>
<trkpt lat="47.375469664" lon="6.780637046"><ele></ele><time>2013-8-9T22:59:7Z</time></trkpt>
<trkpt lat="47.375411326" lon="6.780612739"><ele></ele><time>2013-8-9T22:59:10Z</time></trkpt>
<trkpt lat="47.375399508" lon="6.780617265"><ele></ele><time>2013-8-9T22:59:13Z</time></trkpt>
<trkpt lat="47.375399005" lon="6.780614751"><ele></ele><time>2013-8-9T22:59:16Z</time></trkpt>
<trkpt lat="47.375367908" lon="6.780643249"><ele></ele><time>2013-8-9T22:59:19Z</time></trkpt>
<trkpt lat="47.375176465" lon="6.780936280"><ele></ele><time>2013-8-9T22:59:22Z</time></trkpt>
<trkpt lat="47.375106225" lon="6.781046754"><ele></ele><time>2013-8-9T22:59:25Z</time></trkpt>
<trkpt lat="47.375005223" lon="6.781173991"><ele></ele><time>2013-8-9T22:59:28Z</time></trkpt>
<trkpt lat="47.374859378" lon="6.781194946"><ele></ele><time>2013-8-9T22:59:31Z</time></trkpt>
<trkpt lat="47.374708168" lon="6.781251943"><ele></ele><time>2013-8-9T22:59:34Z</time></trkpt>
<trkpt lat="47.374463836" lon="6.781301061"><ele></ele><time>2013-8-9T22:59:37Z</time></trkpt>
<trkpt lat="47.374203997" lon="6.781304330"><ele></ele><time>2013-8-9T22:59:40Z</time></trkpt>
<trkpt lat="47.374000149" lon="6.781299971"><ele></ele><time>2013-8-9T22:59:43Z</time></trkpt>
<trkpt lat="47.373948768" lon="6.781277759"><ele></ele><time>2013-8-9T22:59:46Z</time></trkpt>
<trkpt lat="47.373907445" lon="6.781237358"><ele></ele><time>2013-8-9T22:59:49Z</time></trkpt>
<trkpt lat="47.373900153" lon="6.781218750"><ele></ele><time>2013-8-9T22:59:52Z</time></trkpt>
<trkpt lat="47.373801833" lon="6.780789932"><ele></ele><time>2013-8-9T22:59:55Z</time></trkpt>
<trkpt lat="47.373747267" lon="6.780567979"><ele></ele><time>2013-8-9T22:59:58Z</time></trkpt>
<trkpt lat="47.373727988" lon="6.780564794"><ele></ele><time>2013-8-9T23:0:1Z</time></trkpt>
<trkpt lat="47.373742573" lon="6.780513413"><ele></ele><time>2013-8-9T23:0:4Z</time></trkpt>
<trkpt lat="47.373729413" lon="6.780300764"><ele></ele><time>2013-8-9T23:0:7Z</time></trkpt>
<trkpt lat="47.373737376" lon="6.780256173"><ele></ele><time>2013-8-9T23:0:10Z</time></trkpt>
<trkpt lat="47.373841815" lon="6.780190375"><ele></ele><time>2013-8-9T23:0:13Z</time></trkpt>
<trkpt lat="47.374003502" lon="6.779910503"><ele></ele><time>2013-8-9T23:0:16Z</time></trkpt>
<trkpt lat="47.373955222" lon="6.779421754"><ele></ele><time>2013-8-9T23:0:19Z</time></trkpt>
<trkpt lat="47.373877354" lon="6.779323267"><ele></ele><time>2013-8-9T23:0:22Z</time></trkpt>
<trkpt lat="47.373781465" lon="6.779220421"><ele></ele><time>2013-8-9T23:0:25Z</time></trkpt>
<trkpt lat="47.373681720" lon="6.779176500"><ele></ele><time>2013-8-9T23:0:28Z</time></trkpt>
<trkpt lat="47.373693623" lon="6.779184798"><ele></ele><time>2013-8-9T23:0:31Z</time></trkpt>
<trkpt lat="47.373713907" lon="6.779189492"><ele></ele><time>2013-8-9T23:0:34Z</time></trkpt>
<trkpt lat="47.373743579" lon="6.779201059"><ele></ele><time>2013-8-9T23:0:37Z</time></trkpt>
<trkpt lat="47.373746261" lon="6.779183792"><ele></ele><time>2013-8-9T23:0:40Z</time></trkpt>
<trkpt lat="47.373741483" lon="6.779189995"><ele></ele><time>2013-8-9T23:0:43Z</time></trkpt>
<trkpt lat="47.373738885" lon="6.779194856"><ele></ele><time>2013-8-9T23:0:46Z</time></trkpt>
<trkpt lat="47.373823207" lon="6.779254032"><ele></ele><time>2013-8-9T23:0:49Z</time></trkpt>
<trkpt lat="47.374004172" lon="6.779532982"><ele></ele><time>2013-8-9T23:0:52Z</time></trkpt>
<trkpt lat="47.373995623" lon="6.780216694"><ele></ele><time>2013-8-9T23:0:55Z</time></trkpt>
<trkpt lat="47.373859165" lon="6.780254077"><ele></ele><time>2013-8-9T23:0:58Z</time></trkpt>
<trkpt lat="47.373791691" lon="6.780422218"><ele></ele><time>2013-8-9T23:1:1Z</time></trkpt>
<trkpt lat="47.373748524" lon="6.780533446"><ele></ele><time>2013-8-9T23:1:4Z</time></trkpt>
<trkpt lat="47.373752128" lon="6.780585917"><ele></ele><time>2013-8-9T23:1:7Z</time></trkpt>
<trkpt lat="47.373736538" lon="6.780556748"><ele></ele><time>2013-8-9T23:1:10Z</time></trkpt>
<trkpt lat="47.373739891" lon="6.780565800"><ele></ele><time>2013-8-9T23:1:13Z</time></trkpt>
<trkpt lat="47.373750787" lon="6.780584492"><ele></ele><time>2013-8-9T23:1:16Z</time></trkpt>
<trkpt lat="47.373814741" lon="6.780787082"><ele></ele><time>2013-8-9T23:1:19Z</time></trkpt>
<trkpt lat="47.373945415" lon="6.781228473"><ele></ele><time>2013-8-9T23:1:22Z</time></trkpt>
<trkpt lat="47.373937201" lon="6.781336935"><ele></ele><time>2013-8-9T23:1:25Z</time></trkpt>
<trkpt lat="47.373920018" lon="6.781425280"><ele></ele><time>2013-8-9T23:1:28Z</time></trkpt>
<trkpt lat="47.373901159" lon="6.781689394"><ele></ele><time>2013-8-9T23:1:31Z</time></trkpt>
<trkpt lat="47.373877438" lon="6.781643629"><ele></ele><time>2013-8-9T23:1:34Z</time></trkpt>
<trkpt lat="47.373752212" lon="6.781345904"><ele></ele><time>2013-8-9T23:1:37Z</time></trkpt>
<trkpt lat="47.373575438" lon="6.781250099"><ele></ele><time>2013-8-9T23:1:40Z</time></trkpt>
<trkpt lat="47.373427330" lon="6.781274490"><ele></ele><time>2013-8-9T23:1:43Z</time></trkpt>
<trkpt lat="47.373353150" lon="6.781322099"><ele></ele><time>2013-8-9T23:1:46Z</time></trkpt>
<trkpt lat="47.373319203" lon="6.781341294"><ele></ele><time>2013-8-9T23:1:49Z</time></trkpt>
<trkpt lat="47.373245358" lon="6.781413462"><ele></ele><time>2013-8-9T23:1:52Z</time></trkpt>
<trkpt lat="47.373169502" lon="6.781535754"><ele></ele><time>2013-8-9T23:1:55Z</time></trkpt>
<trkpt lat="47.373140752" lon="6.781556038"><ele></ele><time>2013-8-9T23:1:58Z</time></trkpt>
<trkpt lat="47.373019550" lon="6.781641953"><ele></ele><time>2013-8-9T23:2:1Z</time></trkpt>
<trkpt lat="47.372769686" lon="6.781755108"><ele></ele><time>2013-8-9T23:2:4Z</time></trkpt>
<trkpt lat="47.372606071" lon="6.781878741"><ele></ele><time>2013-8-9T23:2:7Z</time></trkpt>
<trkpt lat="47.372446312" lon="6.781971194"><ele></ele><time>2013-8-9T23:2:10Z</time></trkpt>
<trkpt lat="47.372336760" lon="6.782105556"><ele></ele><time>2013-8-9T23:2:13Z</time></trkpt>
<trkpt lat="47.372300047" lon="6.782170432"><ele></ele><time>2013-8-9T23:2:16Z</time></trkpt>
<trkpt lat="47.372256126" lon="6.782384086"><ele></ele><time>2013-8-9T23:2:19Z</time></trkpt>
<trkpt lat="47.372246571" lon="6.782396492"><ele></ele><time>2013-8-9T23:2:22Z</time></trkpt>
<trkpt lat="47.372242464" lon="6.782427505"><ele></ele><time>2013-8-9T23:2:25Z</time></trkpt>
<trkpt lat="47.372235926" lon="6.782519119"><ele></ele><time>2013-8-9T23:2:28Z</time></trkpt>
<trkpt lat="47.372144060" lon="6.782798571"><ele></ele><time>2013-8-9T23:2:31Z</time></trkpt>
<trkpt lat="47.372129140" lon="6.782857580"><ele></ele><time>2013-8-9T23:2:34Z</time></trkpt>
<trkpt lat="47.372066528" lon="6.782951374"><ele></ele><time>2013-8-9T23:2:37Z</time></trkpt>
<trkpt lat="47.371930406" lon="6.783127058"><ele></ele><time>2013-8-9T23:2:40Z</time></trkpt>
<trkpt lat="47.371906182" lon="6.783205681"><ele></ele><time>2013-8-9T23:2:43Z</time></trkpt>
<trkpt lat="47.371894782" lon="6.783357644"><ele></ele><time>2013-8-9T23:2:46Z</time></trkpt>
<trkpt lat="47.371893609" lon="6.783466106"><ele></ele><time>2013-8-9T23:2:49Z</time></trkpt>
<trkpt lat="47.371848011" lon="6.783702560"><ele></ele><time>2013-8-9T23:2:52Z</time></trkpt>
<trkpt lat="47.371846335" lon="6.783721587"><ele></ele><time>2013-8-9T23:2:55Z</time></trkpt>
<trkpt lat="47.371876845" lon="6.783950664"><ele></ele><time>2013-8-9T23:2:58Z</time></trkpt>
<trkpt lat="47.371904673" lon="6.784172952"><ele></ele><time>2013-8-9T23:3:1Z</time></trkpt>
<trkpt lat="47.371933004" lon="6.784370262"><ele></ele><time>2013-8-9T23:3:4Z</time></trkpt>
<trkpt lat="47.371953791" lon="6.784527591"><ele></ele><time>2013-8-9T23:3:7Z</time></trkpt>
<trkpt lat="47.371966196" lon="6.784737390"><ele></ele><time>2013-8-9T23:3:10Z</time></trkpt>
<trkpt lat="47.371945158" lon="6.785067637"><ele></ele><time>2013-8-9T23:3:13Z</time></trkpt>
<trkpt lat="47.371860081" lon="6.785280453"><ele></ele><time>2013-8-9T23:3:16Z</time></trkpt>
<trkpt lat="47.371711219" lon="6.785245333"><ele></ele><time>2013-8-9T23:3:19Z</time></trkpt>
<trkpt lat="47.371343924" lon="6.784888767"><ele></ele><time>2013-8-9T23:3:22Z</time></trkpt>
<trkpt lat="47.371322298" lon="6.784841996"><ele></ele><time>2013-8-9T23:3:25Z</time></trkpt>
<trkpt lat="47.371222135" lon="6.784599256"><ele></ele><time>2013-8-9T23:3:28Z</time></trkpt>
<trkpt lat="47.371146530" lon="6.784475874"><ele></ele><time>2013-8-9T23:3:31Z</time></trkpt>
<trkpt lat="47.371124821" lon="6.784352241"><ele></ele><time>2013-8-9T23:3:34Z</time></trkpt>
<trkpt lat="47.371117696" lon="6.784274625"><ele></ele><time>2013-8-9T23:3:37Z</time></trkpt>
<trkpt lat="47.371150302" lon="6.784266830"><ele></ele><time>2013-8-9T23:3:40Z</time></trkpt>
<trkpt lat="47.371151475" lon="6.784251491"><ele></ele><time>2013-8-9T23:3:43Z</time></trkpt>
<trkpt lat="47.371153571" lon="6.784275882"><ele></ele><time>2013-8-9T23:3:46Z</time></trkpt>
<trkpt lat="47.371150386" lon="6.784262555"><ele></ele><time>2013-8-9T23:3:49Z</time></trkpt>
<trkpt lat="47.371160779" lon="6.784236739"><ele></ele><time>2013-8-9T23:3:52Z</time></trkpt>
<trkpt lat="47.371178968" lon="6.784244785"><ele></ele><time>2013-8-9T23:3:55Z</time></trkpt>
<trkpt lat="47.371193301" lon="6.784231458"><ele></ele><time>2013-8-9T23:3:58Z</time></trkpt>
<trkpt lat="47.371200761" lon="6.784254340"><ele></ele><time>2013-8-9T23:4:1Z</time></trkpt>
<trkpt lat="47.371204700" lon="6.784247886"><ele></ele><time>2013-8-9T23:4:4Z</time></trkpt>
<trkpt lat="47.371209310" lon="6.784259118"><ele></ele><time>2013-8-9T23:4:7Z</time></trkpt>
<trkpt lat="47.371209562" lon="6.784244953"><ele></ele><time>2013-8-9T23:4:10Z</time></trkpt>
<trkpt lat="47.371201431" lon="6.784246378"><ele></ele><time>2013-8-9T23:4:13Z</time></trkpt>
<trkpt lat="47.371208305" lon="6.784272445"><ele></ele><time>2013-8-9T23:4:16Z</time></trkpt>
<trkpt lat="47.371214340" lon="6.784283593"><ele></ele><time>2013-8-9T23:4:19Z</time></trkpt>
<trkpt lat="47.371220207" lon="6.784270182"><ele></ele><time>2013-8-9T23:4:22Z</time></trkpt>
<trkpt lat="47.371216519" lon="6.784257358"><ele></ele><time>2013-8-9T23:4:25Z</time></trkpt>
<trkpt lat="47.371127503" lon="6.784077734"><ele></ele><time>2013-8-9T23:4:28Z</time></trkpt>
<trkpt lat="47.371060951" lon="6.783770537"><ele></ele><time>2013-8-9T23:4:31Z</time></trkpt>
<trkpt lat="47.371052653" lon="6.783676492"><ele></ele><time>2013-8-9T23:4:34Z</time></trkpt>
<trkpt lat="47.371035218" lon="6.783469627"><ele></ele><time>2013-8-9T23:4:37Z</time></trkpt>
<trkpt lat="47.371029602" lon="6.783353621"><ele></ele><time>2013-8-9T23:4:40Z</time></trkpt>
<trkpt lat="47.370993560" lon="6.783240298"><ele></ele><time>2013-8-9T23:4:43Z</time></trkpt>
<trkpt lat="47.370951986" lon="6.783176260"><ele></ele><time>2013-8-9T23:4:46Z</time></trkpt>
<trkpt lat="47.370935306" lon="6.783152036"><ele></ele><time>2013-8-9T23:4:49Z</time></trkpt>
<trkpt lat="47.370867832" lon="6.783125382"><ele></ele><time>2013-8-9T23:4:52Z</time></trkpt>
<trkpt lat="47.370801028" lon="6.783192521"><ele></ele><time>2013-8-9T23:4:55Z</time></trkpt>
<trkpt lat="47.370783929" lon="6.783227054"><ele></ele><time>2013-8-9T23:4:58Z</time></trkpt>
<trkpt lat="47.370764399" lon="6.783293439"><ele></ele><time>2013-8-9T23:5:1Z</time></trkpt>
<trkpt lat="47.370750317" lon="6.783408858"><ele></ele><time>2013-8-9T23:5:4Z</time></trkpt>
<trkpt lat="47.370660715" lon="6.783790821"><ele></ele><time>2013-8-9T23:5:7Z</time></trkpt>
<trkpt lat="47.370647555" lon="6.783849327"><ele></ele><time>2013-8-9T23:5:10Z</time></trkpt>
<trkpt lat="47.370610088" lon="6.784143029"><ele></ele><time>2013-8-9T23:5:13Z</time></trkpt>
<trkpt lat="47.370582428" lon="6.784267081"><ele></ele><time>2013-8-9T23:5:16Z</time></trkpt>
<trkpt lat="47.370565245" lon="6.784427008"><ele></ele><time>2013-8-9T23:5:19Z</time></trkpt>
<trkpt lat="47.370557031" lon="6.784515437"><ele></ele><time>2013-8-9T23:5:22Z</time></trkpt>
<trkpt lat="47.370542949" lon="6.784601267"><ele></ele><time>2013-8-9T23:5:25Z</time></trkpt>
<trkpt lat="47.370523084" lon="6.784778377"><ele></ele><time>2013-8-9T23:5:28Z</time></trkpt>
<trkpt lat="47.370524257" lon="6.784825735"><ele></ele><time>2013-8-9T23:5:31Z</time></trkpt>
<trkpt lat="47.370509589" lon="6.784858759"><ele></ele><time>2013-8-9T23:5:34Z</time></trkpt>
<trkpt lat="47.370488886" lon="6.784881055"><ele></ele><time>2013-8-9T23:5:37Z</time></trkpt>
<trkpt lat="47.370426524" lon="6.784889940"><ele></ele><time>2013-8-9T23:5:40Z</time></trkpt>
<trkpt lat="47.370386459" lon="6.784885079"><ele></ele><time>2013-8-9T23:5:43Z</time></trkpt>
<trkpt lat="47.370300712" lon="6.784827579"><ele></ele><time>2013-8-9T23:5:46Z</time></trkpt>
<trkpt lat="47.370206332" lon="6.784656169"><ele></ele><time>2013-8-9T23:5:49Z</time></trkpt>
<trkpt lat="47.370183533" lon="6.784379315"><ele></ele><time>2013-8-9T23:5:52Z</time></trkpt>
<trkpt lat="47.370163584" lon="6.783922669"><ele></ele><time>2013-8-9T23:5:55Z</time></trkpt>
<trkpt lat="47.370151933" lon="6.783511955"><ele></ele><time>2013-8-9T23:5:58Z</time></trkpt>
<trkpt lat="47.370142126" lon="6.783089424"><ele></ele><time>2013-8-9T23:6:1Z</time></trkpt>
<trkpt lat="47.370153945" lon="6.782751214"><ele></ele><time>2013-8-9T23:6:4Z</time></trkpt>
<trkpt lat="47.370117400" lon="6.782316109"><ele></ele><time>2013-8-9T23:6:7Z</time></trkpt>
<trkpt lat="47.370105246" lon="6.781996507"><ele></ele><time>2013-8-9T23:6:10Z</time></trkpt>
<trkpt lat="47.369961664" lon="6.781804226"><ele></ele><time>2013-8-9T23:6:13Z</time></trkpt>
<trkpt lat="47.369940709" lon="6.781784948"><ele></ele><time>2013-8-9T23:6:16Z</time></trkpt>
<trkpt lat="47.369862171" lon="6.781838089"><ele></ele><time>2013-8-9T23:6:19Z</time></trkpt>
<trkpt lat="47.369818417" lon="6.782007068"><ele></ele><time>2013-8-9T23:6:22Z</time></trkpt>
<trkpt lat="47.369766785" lon="6.782321390"><ele></ele><time>2013-8-9T23:6:25Z</time></trkpt>
<trkpt lat="47.369718170" lon="6.782633616"><ele></ele><time>2013-8-9T23:6:28Z</time></trkpt>
<trkpt lat="47.369658407" lon="6.782959923"><ele></ele><time>2013-8-9T23:6:31Z</time></trkpt>
<trkpt lat="47.369642230" lon="6.783032091"><ele></ele><time>2013-8-9T23:6:34Z</time></trkpt>
<trkpt lat="47.369602080" lon="6.783199478"><ele></ele><time>2013-8-9T23:6:37Z</time></trkpt>
<trkpt lat="47.369544832" lon="6.783460239"><ele></ele><time>2013-8-9T23:6:40Z</time></trkpt>
<trkpt lat="47.369525638" lon="6.783599295"><ele></ele><time>2013-8-9T23:6:43Z</time></trkpt>
<trkpt lat="47.369475597" lon="6.783923507"><ele></ele><time>2013-8-9T23:6:46Z</time></trkpt>
<trkpt lat="47.369440980" lon="6.784104137"><ele></ele><time>2013-8-9T23:6:49Z</time></trkpt>
<trkpt lat="47.369441483" lon="6.784203378"><ele></ele><time>2013-8-9T23:6:52Z</time></trkpt>
<trkpt lat="47.369413488" lon="6.784494733"><ele></ele><time>2013-8-9T23:6:55Z</time></trkpt>
<trkpt lat="47.369402675" lon="6.784628173"><ele></ele><time>2013-8-9T23:6:58Z</time></trkpt>
<trkpt lat="47.369357496" lon="6.784991194"><ele></ele><time>2013-8-9T23:7:1Z</time></trkpt>
<trkpt lat="47.369327322" lon="6.785309203"><ele></ele><time>2013-8-9T23:7:4Z</time></trkpt>
<trkpt lat="47.369285244" lon="6.785686891"><ele></ele><time>2013-8-9T23:7:7Z</time></trkpt>
<trkpt lat="47.369261021" lon="6.785804070"><ele></ele><time>2013-8-9T23:7:10Z</time></trkpt>
<trkpt lat="47.369250879" lon="6.786011774"><ele></ele><time>2013-8-9T23:7:13Z</time></trkpt>
<trkpt lat="47.369245682" lon="6.786094420"><ele></ele><time>2013-8-9T23:7:16Z</time></trkpt>
<trkpt lat="47.369223051" lon="6.786424834"><ele></ele><time>2013-8-9T23:7:19Z</time></trkpt>
<trkpt lat="47.369207209" lon="6.786552994"><ele></ele><time>2013-8-9T23:7:22Z</time></trkpt>
<trkpt lat="47.369166808" lon="6.786714429"><ele></ele><time>2013-8-9T23:7:25Z</time></trkpt>
<trkpt lat="47.368976120" lon="6.786638573"><ele></ele><time>2013-8-9T23:7:28Z</time></trkpt>
<trkpt lat="47.368940329" lon="6.786486190"><ele></ele><time>2013-8-9T23:7:31Z</time></trkpt>
<trkpt lat="47.368934965" lon="6.786454255"><ele></ele><time>2013-8-9T23:7:34Z</time></trkpt>
<trkpt lat="47.368944017" lon="6.786184441"><ele></ele><time>2013-8-9T23:7:37Z</time></trkpt>
<trkpt lat="47.368949465" lon="6.786041027"><ele></ele><time>2013-8-9T23:7:40Z</time></trkpt>
<trkpt lat="47.368954411" lon="6.785640288"><ele></ele><time>2013-8-9T23:7:43Z</time></trkpt>
<trkpt lat="47.369048288" lon="6.785062440"><ele></ele><time>2013-8-9T23:7:46Z</time></trkpt>
<trkpt lat="47.368972264" lon="6.784837553"><ele></ele><time>2013-8-9T23:7:49Z</time></trkpt>
<trkpt lat="47.368790042" lon="6.784865800"><ele></ele><time>2013-8-9T23:7:52Z</time></trkpt>
<trkpt lat="47.368801860" lon="6.784845348"><ele></ele><time>2013-8-9T23:7:55Z</time></trkpt>
<trkpt lat="47.368807057" lon="6.784713753"><ele></ele><time>2013-8-9T23:7:58Z</time></trkpt>
<trkpt lat="47.368755341" lon="6.784560196"><ele></ele><time>2013-8-9T23:8:1Z</time></trkpt>
<trkpt lat="47.368723741" lon="6.784504876"><ele></ele><time>2013-8-9T23:8:4Z</time></trkpt>
<trkpt lat="47.368717874" lon="6.784506217"><ele></ele><time>2013-8-9T23:8:7Z</time></trkpt>
<trkpt lat="47.368719382" lon="6.784505043"><ele></ele><time>2013-8-9T23:8:10Z</time></trkpt>
<trkpt lat="47.368717622" lon="6.784513509"><ele></ele><time>2013-8-9T23:8:13Z</time></trkpt>
<trkpt lat="47.368727094" lon="6.784524992"><ele></ele><time>2013-8-9T23:8:16Z</time></trkpt>
<trkpt lat="47.368732877" lon="6.784535218"><ele></ele><time>2013-8-9T23:8:19Z</time></trkpt>
<trkpt lat="47.368797502" lon="6.784676956"><ele></ele><time>2013-8-9T23:8:22Z</time></trkpt>
<trkpt lat="47.368817115" lon="6.784732863"><ele></ele><time>2013-8-9T23:8:25Z</time></trkpt>
<trkpt lat="47.368753245" lon="6.784927323"><ele></ele><time>2013-8-9T23:8:28Z</time></trkpt>
<trkpt lat="47.368726255" lon="6.785380449"><ele></ele><time>2013-8-9T23:8:31Z</time></trkpt>
<trkpt lat="47.368685603" lon="6.785700219"><ele></ele><time>2013-8-9T23:8:34Z</time></trkpt>
<trkpt lat="47.368587032" lon="6.786092073"><ele></ele><time>2013-8-9T23:8:37Z</time></trkpt>
<trkpt lat="47.368554929" lon="6.786256861"><ele></ele><time>2013-8-9T23:8:40Z</time></trkpt>
<trkpt lat="47.368531544" lon="6.786387786"><ele></ele><time>2013-8-9T23:8:43Z</time></trkpt>
<trkpt lat="47.368510673" lon="6.786597334"><ele></ele><time>2013-8-9T23:8:46Z</time></trkpt>
<trkpt lat="47.368491730" lon="6.786720632"><ele></ele><time>2013-8-9T23:8:49Z</time></trkpt>
<trkpt lat="47.368440265" lon="6.787000755"><ele></ele><time>2013-8-9T23:8:52Z</time></trkpt>
<trkpt lat="47.368410006" lon="6.787219690"><ele></ele><time>2013-8-9T23:8:55Z</time></trkpt>
<trkpt lat="47.368382011" lon="6.787486319"><ele></ele><time>2013-8-9T23:8:58Z</time></trkpt>
<trkpt lat="47.368322667" lon="6.787856882"><ele></ele><time>2013-8-9T23:9:1Z</time></trkpt>
<trkpt lat="47.368287882" lon="6.788054444"><ele></ele><time>2013-8-9T23:9:4Z</time></trkpt>
<trkpt lat="47.368168440" lon="6.788461721"><ele></ele><time>2013-8-9T23:9:7Z</time></trkpt>
<trkpt lat="47.368032066" lon="6.788896993"><ele></ele><time>2013-8-9T23:9:10Z</time></trkpt>
<trkpt lat="47.367834840" lon="6.789338971"><ele></ele><time>2013-8-9T23:9:13Z</time></trkpt>
<trkpt lat="47.367705423" lon="6.789824869"><ele></ele><time>2013-8-9T23:9:16Z</time></trkpt>
<trkpt lat="47.367590759" lon="6.790236924"><ele></ele><time>2013-8-9T23:9:19Z</time></trkpt>
<trkpt lat="47.367536193" lon="6.790578151"><ele></ele><time>2013-8-9T23:9:22Z</time></trkpt>
<trkpt lat="47.367391940" lon="6.791012669"><ele></ele><time>2013-8-9T23:9:25Z</time></trkpt>
<trkpt lat="47.367252465" lon="6.791435955"><ele></ele><time>2013-8-9T23:9:28Z</time></trkpt>
<trkpt lat="47.367144842" lon="6.791808447"><ele></ele><time>2013-8-9T23:9:31Z</time></trkpt>
<trkpt lat="47.367015425" lon="6.792290574"><ele></ele><time>2013-8-9T23:9:34Z</time></trkpt>
<trkpt lat="47.366994386" lon="6.792759877"><ele></ele><time>2013-8-9T23:9:37Z</time></trkpt>
<trkpt lat="47.366995057" lon="6.793158520"><ele></ele><time>2013-8-9T23:9:40Z</time></trkpt>
<trkpt lat="47.366923392" lon="6.793642659"><ele></ele><time>2013-8-9T23:9:43Z</time></trkpt>
<trkpt lat="47.366892043" lon="6.793858157"><ele></ele><time>2013-8-9T23:9:46Z</time></trkpt>
<trkpt lat="47.366726082" lon="6.794520747"><ele></ele><time>2013-8-9T23:9:49Z</time></trkpt>
<trkpt lat="47.366576381" lon="6.795078060"><ele></ele><time>2013-8-9T23:9:52Z</time></trkpt>
<trkpt lat="47.366395835" lon="6.795589272"><ele></ele><time>2013-8-9T23:9:55Z</time></trkpt>
<trkpt lat="47.366195088" lon="6.796025298"><ele></ele><time>2013-8-9T23:9:58Z</time></trkpt>
<trkpt lat="47.366023930" lon="6.796373147"><ele></ele><time>2013-8-9T23:10:1Z</time></trkpt>
<trkpt lat="47.366033904" lon="6.796382451"><ele></ele><time>2013-8-9T23:10:4Z</time></trkpt>
<trkpt lat="47.366015883" lon="6.796372728"><ele></ele><time>2013-8-9T23:10:7Z</time></trkpt>
<trkpt lat="47.366017224" lon="6.796358647"><ele></ele><time>2013-8-9T23:10:10Z</time></trkpt>
<trkpt lat="47.366027366" lon="6.796385469"><ele></ele><time>2013-8-9T23:10:13Z</time></trkpt>
<trkpt lat="47.366040442" lon="6.796406759"><ele></ele><time>2013-8-9T23:10:16Z</time></trkpt>
<trkpt lat="47.366032982" lon="6.796378680"><ele></ele><time>2013-8-9T23:10:19Z</time></trkpt>
<trkpt lat="47.366028121" lon="6.796300225"><ele></ele><time>2013-8-9T23:10:22Z</time></trkpt>
<trkpt lat="47.365997611" lon="6.796195703"><ele></ele><time>2013-8-9T23:10:25Z</time></trkpt>
<trkpt lat="47.365998784" lon="6.796211796"><ele></ele><time>2013-8-9T23:10:28Z</time></trkpt>
<trkpt lat="47.366008842" lon="6.796345571"><ele></ele><time>2013-8-9T23:10:31Z</time></trkpt>
<trkpt lat="47.366025522" lon="6.796435928"><ele></ele><time>2013-8-9T23:10:34Z</time></trkpt>
<trkpt lat="47.366039436" lon="6.796416985"><ele></ele><time>2013-8-9T23:10:37Z</time></trkpt>
<trkpt lat="47.366031725" lon="6.796405083"><ele></ele><time>2013-8-9T23:10:40Z</time></trkpt>
<trkpt lat="47.366026696" lon="6.796419751"><ele></ele><time>2013-8-9T23:10:43Z</time></trkpt>
<trkpt lat="47.365905745" lon="6.796714207"><ele></ele><time>2013-8-9T23:10:46Z</time></trkpt>
<trkpt lat="47.365812957" lon="6.796783190"><ele></ele><time>2013-8-9T23:10:49Z</time></trkpt>
<trkpt lat="47.365611959" lon="6.797047304"><ele></ele><time>2013-8-9T23:10:52Z</time></trkpt>
<trkpt lat="47.365441136" lon="6.797399595"><ele></ele><time>2013-8-9T23:10:55Z</time></trkpt>
<trkpt lat="47.365295710" lon="6.797874179"><ele></ele><time>2013-8-9T23:10:58Z</time></trkpt>
<trkpt lat="47.365190433" lon="6.798341889"><ele></ele><time>2013-8-9T23:11:1Z</time></trkpt>
<trkpt lat="47.365187332" lon="6.798378853"><ele></ele><time>2013-8-9T23:11:4Z</time></trkpt>
<trkpt lat="47.365155481" lon="6.798729803"><ele></ele><time>2013-8-9T23:11:7Z</time></trkpt>
<trkpt lat="47.365147350" lon="6.799045214"><ele></ele><time>2013-8-9T23:11:10Z</time></trkpt>
<trkpt lat="47.365157828" lon="6.799384849"><ele></ele><time>2013-8-9T23:11:13Z</time></trkpt>
<trkpt lat="47.365184314" lon="6.799621554"><ele></ele><time>2013-8-9T23:11:16Z</time></trkpt>
<trkpt lat="47.365192780" lon="6.800255310"><ele></ele><time>2013-8-9T23:11:19Z</time></trkpt>
<trkpt lat="47.365174256" lon="6.800739868"><ele></ele><time>2013-8-9T23:11:22Z</time></trkpt>
<trkpt lat="47.365172999" lon="6.801338755"><ele></ele><time>2013-8-9T23:11:25Z</time></trkpt>
<trkpt lat="47.365212813" lon="6.802089522"><ele></ele><time>2013-8-9T23:11:28Z</time></trkpt>
<trkpt lat="47.365200911" lon="6.802591598"><ele></ele><time>2013-8-9T23:11:31Z</time></trkpt>
<trkpt lat="47.365204264" lon="6.803822648"><ele></ele><time>2013-8-9T23:11:34Z</time></trkpt>
<trkpt lat="47.365206024" lon="6.803992298"><ele></ele><time>2013-8-9T23:11:37Z</time></trkpt>
<trkpt lat="47.365187835" lon="6.805015644"><ele></ele><time>2013-8-9T23:11:40Z</time></trkpt>
<trkpt lat="47.365170568" lon="6.805339688"><ele></ele><time>2013-8-9T23:11:43Z</time></trkpt>
<trkpt lat="47.365159588" lon="6.805576393"><ele></ele><time>2013-8-9T23:11:46Z</time></trkpt>
<trkpt lat="47.365142070" lon="6.805886943"><ele></ele><time>2013-8-9T23:11:49Z</time></trkpt>
<trkpt lat="47.365112649" lon="6.806824710"><ele></ele><time>2013-8-9T23:11:52Z</time></trkpt>
<trkpt lat="47.365111811" lon="6.807194604"><ele></ele><time>2013-8-9T23:11:55Z</time></trkpt>
<trkpt lat="47.365107955" lon="6.807486042"><ele></ele><time>2013-8-9T23:11:58Z</time></trkpt>
<trkpt lat="47.365089683" lon="6.807810590"><ele></ele><time>2013-8-9T23:12:1Z</time></trkpt>
<trkpt lat="47.365090353" lon="6.808106555"><ele></ele><time>2013-8-9T23:12:4Z</time></trkpt>
<trkpt lat="47.365090437" lon="6.808779286"><ele></ele><time>2013-8-9T23:12:7Z</time></trkpt>
<trkpt lat="47.365118600" lon="6.809130069"><ele></ele><time>2013-8-9T23:12:10Z</time></trkpt>
<trkpt lat="47.365163444" lon="6.809501136"><ele></ele><time>2013-8-9T23:12:13Z</time></trkpt>
<trkpt lat="47.365152463" lon="6.809865581"><ele></ele><time>2013-8-9T23:12:16Z</time></trkpt>
<trkpt lat="47.365120444" lon="6.810240336"><ele></ele><time>2013-8-9T23:12:19Z</time></trkpt>
<trkpt lat="47.365069315" lon="6.810726570"><ele></ele><time>2013-8-9T23:12:22Z</time></trkpt>
<trkpt lat="47.364955908" lon="6.811287235"><ele></ele><time>2013-8-9T23:12:25Z</time></trkpt>
<trkpt lat="47.364818444" lon="6.811737763"><ele></ele><time>2013-8-9T23:12:28Z</time></trkpt>
<trkpt lat="47.364653321" lon="6.812204383"><ele></ele><time>2013-8-9T23:12:31Z</time></trkpt>
<trkpt lat="47.364579896" lon="6.812419882"><ele></ele><time>2013-8-9T23:12:34Z</time></trkpt>
<trkpt lat="47.364364229" lon="6.812900668"><ele></ele><time>2013-8-9T23:12:37Z</time></trkpt>
<trkpt lat="47.364293653" lon="6.813078281"><ele></ele><time>2013-8-9T23:12:40Z</time></trkpt>
<trkpt lat="47.364293067" lon="6.813178863"><ele></ele><time>2013-8-9T23:12:43Z</time></trkpt>
<trkpt lat="47.364126686" lon="6.813631151"><ele></ele><time>2013-8-9T23:12:46Z</time></trkpt>
<trkpt lat="47.363989055" lon="6.813996350"><ele></ele><time>2013-8-9T23:12:49Z</time></trkpt>
<trkpt lat="47.363869948" lon="6.814401448"><ele></ele><time>2013-8-9T23:12:52Z</time></trkpt>
<trkpt lat="47.363713207" lon="6.814809898"><ele></ele><time>2013-8-9T23:12:55Z</time></trkpt>
<trkpt lat="47.363524782" lon="6.815327480"><ele></ele><time>2013-8-9T23:12:58Z</time></trkpt>
<trkpt lat="47.363486141" lon="6.815439211"><ele></ele><time>2013-8-9T23:13:1Z</time></trkpt>
<trkpt lat="47.363418667" lon="6.815581033"><ele></ele><time>2013-8-9T23:13:4Z</time></trkpt>
<trkpt lat="47.363202162" lon="6.815964673"><ele></ele><time>2013-8-9T23:13:7Z</time></trkpt>
<trkpt lat="47.362997057" lon="6.816356527"><ele></ele><time>2013-8-9T23:13:10Z</time></trkpt>
<trkpt lat="47.362843333" lon="6.816721307"><ele></ele><time>2013-8-9T23:13:13Z</time></trkpt>
<trkpt lat="47.362740403" lon="6.817085752"><ele></ele><time>2013-8-9T23:13:16Z</time></trkpt>
<trkpt lat="47.362587098" lon="6.817519851"><ele></ele><time>2013-8-9T23:13:19Z</time></trkpt>
<trkpt lat="47.362428429" lon="6.817979012"><ele></ele><time>2013-8-9T23:13:22Z</time></trkpt>
<trkpt lat="47.362237740" lon="6.818488799"><ele></ele><time>2013-8-9T23:13:25Z</time></trkpt>
<trkpt lat="47.362091895" lon="6.818897165"><ele></ele><time>2013-8-9T23:13:28Z</time></trkpt>
<trkpt lat="47.361962060" lon="6.819291701"><ele></ele><time>2013-8-9T23:13:31Z</time></trkpt>
<trkpt lat="47.361797271" lon="6.819689339"><ele></ele><time>2013-8-9T23:13:34Z</time></trkpt>
<trkpt lat="47.361721164" lon="6.819868376"><ele></ele><time>2013-8-9T23:13:37Z</time></trkpt>
<trkpt lat="47.361715715" lon="6.819984298"><ele></ele><time>2013-8-9T23:13:40Z</time></trkpt>
<trkpt lat="47.361725774" lon="6.820018161"><ele></ele><time>2013-8-9T23:13:43Z</time></trkpt>
<trkpt lat="47.361927694" lon="6.820196277"><ele></ele><time>2013-8-9T23:13:46Z</time></trkpt>
<trkpt lat="47.362155682" lon="6.820459468"><ele></ele><time>2013-8-9T23:13:49Z</time></trkpt>
<trkpt lat="47.362228772" lon="6.820623251"><ele></ele><time>2013-8-9T23:13:52Z</time></trkpt>
<trkpt lat="47.362251738" lon="6.820745878"><ele></ele><time>2013-8-9T23:13:55Z</time></trkpt>
<trkpt lat="47.362267747" lon="6.820974620"><ele></ele><time>2013-8-9T23:13:58Z</time></trkpt>
<trkpt lat="47.362302951" lon="6.821205374"><ele></ele><time>2013-8-9T23:14:1Z</time></trkpt>
<trkpt lat="47.362320721" lon="6.821443168"><ele></ele><time>2013-8-9T23:14:4Z</time></trkpt>
<trkpt lat="47.362326253" lon="6.821522377"><ele></ele><time>2013-8-9T23:14:7Z</time></trkpt>
<trkpt lat="47.362285685" lon="6.821856564"><ele></ele><time>2013-8-9T23:14:10Z</time></trkpt>
<trkpt lat="47.362263808" lon="6.821943652"><ele></ele><time>2013-8-9T23:14:13Z</time></trkpt>
<trkpt lat="47.362178983" lon="6.821989333"><ele></ele><time>2013-8-9T23:14:16Z</time></trkpt>
<trkpt lat="47.362176804" lon="6.821991345"><ele></ele><time>2013-8-9T23:14:19Z</time></trkpt>
<trkpt lat="47.362163393" lon="6.822112463"><ele></ele><time>2013-8-9T23:14:22Z</time></trkpt>
<trkpt lat="47.362150736" lon="6.822230397"><ele></ele><time>2013-8-9T23:14:25Z</time></trkpt>
<trkpt lat="47.362130703" lon="6.822389150"><ele></ele><time>2013-8-9T23:14:28Z</time></trkpt>
<trkpt lat="47.362123746" lon="6.822589058"><ele></ele><time>2013-8-9T23:14:31Z</time></trkpt>
<trkpt lat="47.362106647" lon="6.822727947"><ele></ele><time>2013-8-9T23:14:34Z</time></trkpt>
<trkpt lat="47.362091895" lon="6.822880749"><ele></ele><time>2013-8-9T23:14:37Z</time></trkpt>
<trkpt lat="47.362061637" lon="6.823227005"><ele></ele><time>2013-8-9T23:14:40Z</time></trkpt>
<trkpt lat="47.362044789" lon="6.823532190"><ele></ele><time>2013-8-9T23:14:43Z</time></trkpt>
<trkpt lat="47.362039005" lon="6.823796472"><ele></ele><time>2013-8-9T23:14:46Z</time></trkpt>
<trkpt lat="47.362055518" lon="6.823871993"><ele></ele><time>2013-8-9T23:14:49Z</time></trkpt>
<trkpt lat="47.362054177" lon="6.823962098"><ele></ele><time>2013-8-9T23:14:52Z</time></trkpt>
<trkpt lat="47.362030959" lon="6.824176004"><ele></ele><time>2013-8-9T23:14:55Z</time></trkpt>
<trkpt lat="47.361995839" lon="6.824643379"><ele></ele><time>2013-8-9T23:14:58Z</time></trkpt>
<trkpt lat="47.361966837" lon="6.824915288"><ele></ele><time>2013-8-9T23:15:1Z</time></trkpt>
<trkpt lat="47.361970106" lon="6.825073371"><ele></ele><time>2013-8-9T23:15:4Z</time></trkpt>
<trkpt lat="47.361985529" lon="6.825476792"><ele></ele><time>2013-8-9T23:15:7Z</time></trkpt>
<trkpt lat="47.361992570" lon="6.825517193"><ele></ele><time>2013-8-9T23:15:10Z</time></trkpt>
<trkpt lat="47.362005394" lon="6.825656667"><ele></ele><time>2013-8-9T23:15:13Z</time></trkpt>
<trkpt lat="47.361967005" lon="6.825840399"><ele></ele><time>2013-8-9T23:15:16Z</time></trkpt>
<trkpt lat="47.361986702" lon="6.825891361"><ele></ele><time>2013-8-9T23:15:19Z</time></trkpt>
<trkpt lat="47.361993995" lon="6.825897312"><ele></ele><time>2013-8-9T23:15:22Z</time></trkpt>
<trkpt lat="47.361987373" lon="6.825913321"><ele></ele><time>2013-8-9T23:15:25Z</time></trkpt>
<trkpt lat="47.361955605" lon="6.826153966"><ele></ele><time>2013-8-9T23:15:28Z</time></trkpt>
<trkpt lat="47.361960048" lon="6.826384636"><ele></ele><time>2013-8-9T23:15:31Z</time></trkpt>
<trkpt lat="47.361986032" lon="6.826628968"><ele></ele><time>2013-8-9T23:15:34Z</time></trkpt>
<trkpt lat="47.362031043" lon="6.826761151"><ele></ele><time>2013-8-9T23:15:37Z</time></trkpt>
<trkpt lat="47.362056691" lon="6.826790152"><ele></ele><time>2013-8-9T23:15:40Z</time></trkpt>
<trkpt lat="47.362060128" lon="6.826917389"><ele></ele><time>2013-8-9T23:15:43Z</time></trkpt>
<trkpt lat="47.362063900" lon="6.827165661"><ele></ele><time>2013-8-9T23:15:46Z</time></trkpt>
<trkpt lat="47.362103714" lon="6.827413347"><ele></ele><time>2013-8-9T23:15:49Z</time></trkpt>
<trkpt lat="47.362118717" lon="6.827721046"><ele></ele><time>2013-8-9T23:15:52Z</time></trkpt>
<trkpt lat="47.362098768" lon="6.827952471"><ele></ele><time>2013-8-9T23:15:55Z</time></trkpt>
<trkpt lat="47.362148641" lon="6.828367878"><ele></ele><time>2013-8-9T23:15:58Z</time></trkpt>
<trkpt lat="47.362160627" lon="6.828895435"><ele></ele><time>2013-8-9T23:16:1Z</time></trkpt>
<trkpt lat="47.362172445" lon="6.829467667"><ele></ele><time>2013-8-9T23:16:4Z</time></trkpt>
<trkpt lat="47.362170098" lon="6.829574201"><ele></ele><time>2013-8-9T23:16:7Z</time></trkpt>
<trkpt lat="47.362192813" lon="6.829748126"><ele></ele><time>2013-8-9T23:16:10Z</time></trkpt>
<trkpt lat="47.362178983" lon="6.830138471"><ele></ele><time>2013-8-9T23:16:13Z</time></trkpt>
<trkpt lat="47.362158699" lon="6.830648174"><ele></ele><time>2013-8-9T23:16:16Z</time></trkpt>
<trkpt lat="47.362148305" lon="6.830684133"><ele></ele><time>2013-8-9T23:16:19Z</time></trkpt>
<trkpt lat="47.362151239" lon="6.830769712"><ele></ele><time>2013-8-9T23:16:22Z</time></trkpt>
<trkpt lat="47.362165991" lon="6.830960400"><ele></ele><time>2013-8-9T23:16:25Z</time></trkpt>
<trkpt lat="47.362161465" lon="6.830969453"><ele></ele><time>2013-8-9T23:16:28Z</time></trkpt>
<trkpt lat="47.362147048" lon="6.830997616"><ele></ele><time>2013-8-9T23:16:31Z</time></trkpt>
<trkpt lat="47.362145204" lon="6.831011865"><ele></ele><time>2013-8-9T23:16:34Z</time></trkpt>
<trkpt lat="47.362138163" lon="6.831032066"><ele></ele><time>2013-8-9T23:16:37Z</time></trkpt>
<trkpt lat="47.362142941" lon="6.831050841"><ele></ele><time>2013-8-9T23:16:40Z</time></trkpt>
<trkpt lat="47.362135565" lon="6.831076741"><ele></ele><time>2013-8-9T23:16:43Z</time></trkpt>
<trkpt lat="47.362150904" lon="6.831164500"><ele></ele><time>2013-8-9T23:16:46Z</time></trkpt>
<trkpt lat="47.362140175" lon="6.831295341"><ele></ele><time>2013-8-9T23:16:49Z</time></trkpt>
<trkpt lat="47.362127435" lon="6.831419226"><ele></ele><time>2013-8-9T23:16:52Z</time></trkpt>
<trkpt lat="47.362112766" lon="6.831628773"><ele></ele><time>2013-8-9T23:16:55Z</time></trkpt>
<trkpt lat="47.362094158" lon="6.831934461"><ele></ele><time>2013-8-9T23:16:58Z</time></trkpt>
<trkpt lat="47.362033473" lon="6.832221625"><ele></ele><time>2013-8-9T23:17:1Z</time></trkpt>
<trkpt lat="47.362036239" lon="6.832506023"><ele></ele><time>2013-8-9T23:17:4Z</time></trkpt>
<trkpt lat="47.362033473" lon="6.833026037"><ele></ele><time>2013-8-9T23:17:7Z</time></trkpt>
<trkpt lat="47.362051411" lon="6.833365588"><ele></ele><time>2013-8-9T23:17:10Z</time></trkpt>
<trkpt lat="47.361988965" lon="6.833502715"><ele></ele><time>2013-8-9T23:17:13Z</time></trkpt>
<trkpt lat="47.361971699" lon="6.833600029"><ele></ele><time>2013-8-9T23:17:16Z</time></trkpt>
<trkpt lat="47.361970106" lon="6.833614949"><ele></ele><time>2013-8-9T23:17:19Z</time></trkpt>
<trkpt lat="47.361985529" lon="6.833789293"><ele></ele><time>2013-8-9T23:17:22Z</time></trkpt>
<trkpt lat="47.361976141" lon="6.834198246"><ele></ele><time>2013-8-9T23:17:25Z</time></trkpt>
<trkpt lat="47.361967675" lon="6.834645337"><ele></ele><time>2013-8-9T23:17:28Z</time></trkpt>
<trkpt lat="47.361965161" lon="6.835146658"><ele></ele><time>2013-8-9T23:17:31Z</time></trkpt>
<trkpt lat="47.361969855" lon="6.835581344"><ele></ele><time>2013-8-9T23:17:34Z</time></trkpt>
<trkpt lat="47.361978153" lon="6.835717047"><ele></ele><time>2013-8-9T23:17:37Z</time></trkpt>
<trkpt lat="47.361996006" lon="6.835859204"><ele></ele><time>2013-8-9T23:17:40Z</time></trkpt>
<trkpt lat="47.361970441" lon="6.836441997"><ele></ele><time>2013-8-9T23:17:43Z</time></trkpt>
<trkpt lat="47.361957617" lon="6.836847346"><ele></ele><time>2013-8-9T23:17:46Z</time></trkpt>
<trkpt lat="47.361958455" lon="6.836903086"><ele></ele><time>2013-8-9T23:17:49Z</time></trkpt>
<trkpt lat="47.361934064" lon="6.837229142"><ele></ele><time>2013-8-9T23:17:52Z</time></trkpt>
<trkpt lat="47.361960970" lon="6.837781090"><ele></ele><time>2013-8-9T23:17:55Z</time></trkpt>
<trkpt lat="47.361988546" lon="6.838025255"><ele></ele><time>2013-8-9T23:17:58Z</time></trkpt>
<trkpt lat="47.361993827" lon="6.838046629"><ele></ele><time>2013-8-9T23:18:1Z</time></trkpt>
<trkpt lat="47.362084100" lon="6.838475447"><ele></ele><time>2013-8-9T23:18:4Z</time></trkpt>
<trkpt lat="47.362109665" lon="6.838580305"><ele></ele><time>2013-8-9T23:18:7Z</time></trkpt>
<trkpt lat="47.362143695" lon="6.839003842"><ele></ele><time>2013-8-9T23:18:10Z</time></trkpt>
<trkpt lat="47.362135230" lon="6.839141809"><ele></ele><time>2013-8-9T23:18:13Z</time></trkpt>
<trkpt lat="47.362113437" lon="6.839212719"><ele></ele><time>2013-8-9T23:18:16Z</time></trkpt>
<trkpt lat="47.362097846" lon="6.839240715"><ele></ele><time>2013-8-9T23:18:19Z</time></trkpt>
<trkpt lat="47.361956024" lon="6.839333586"><ele></ele><time>2013-8-9T23:18:22Z</time></trkpt>
<trkpt lat="47.361953259" lon="6.839328138"><ele></ele><time>2013-8-9T23:18:25Z</time></trkpt>
<trkpt lat="47.361852340" lon="6.839329228"><ele></ele><time>2013-8-9T23:18:28Z</time></trkpt>
<trkpt lat="47.361721918" lon="6.839336017"><ele></ele><time>2013-8-9T23:18:31Z</time></trkpt>
<trkpt lat="47.361610774" lon="6.839340795"><ele></ele><time>2013-8-9T23:18:34Z</time></trkpt>
<trkpt lat="47.361501977" lon="6.839386979"><ele></ele><time>2013-8-9T23:18:37Z</time></trkpt>
<trkpt lat="47.361400220" lon="6.839398714"><ele></ele><time>2013-8-9T23:18:40Z</time></trkpt>
<trkpt lat="47.361276923" lon="6.839410951"><ele></ele><time>2013-8-9T23:18:43Z</time></trkpt>
<trkpt lat="47.361227637" lon="6.839441964"><ele></ele><time>2013-8-9T23:18:46Z</time></trkpt>
<trkpt lat="47.361196624" lon="6.839457136"><ele></ele><time>2013-8-9T23:18:49Z</time></trkpt>
<trkpt lat="47.361192852" lon="6.839454705"><ele></ele><time>2013-8-9T23:18:52Z</time></trkpt>
<trkpt lat="47.361203749" lon="6.839479096"><ele></ele><time>2013-8-9T23:18:55Z</time></trkpt>
<trkpt lat="47.361200983" lon="6.839500973"><ele></ele><time>2013-8-9T23:18:58Z</time></trkpt>
<trkpt lat="47.361157983" lon="6.839709682"><ele></ele><time>2013-8-9T23:19:1Z</time></trkpt>
<trkpt lat="47.361135101" lon="6.839851504"><ele></ele><time>2013-8-9T23:19:4Z</time></trkpt>
<trkpt lat="47.361058993" lon="6.840185272"><ele></ele><time>2013-8-9T23:19:7Z</time></trkpt>
<trkpt lat="47.360973079" lon="6.840510992"><ele></ele><time>2013-8-9T23:19:10Z</time></trkpt>
<trkpt lat="47.360949777" lon="6.840526499"><ele></ele><time>2013-8-9T23:19:13Z</time></trkpt>
<trkpt lat="47.360924128" lon="6.840521973"><ele></ele><time>2013-8-9T23:19:16Z</time></trkpt>
<trkpt lat="47.360872747" lon="6.840393227"><ele></ele><time>2013-8-9T23:19:19Z</time></trkpt>
<trkpt lat="47.360828156" lon="6.840353832"><ele></ele><time>2013-8-9T23:19:22Z</time></trkpt>
<trkpt lat="47.360768225" lon="6.840382414"><ele></ele><time>2013-8-9T23:19:25Z</time></trkpt>
<trkpt lat="47.360669067" lon="6.840552567"><ele></ele><time>2013-8-9T23:19:28Z</time></trkpt>
<trkpt lat="47.360567898" lon="6.840710482"><ele></ele><time>2013-8-9T23:19:31Z</time></trkpt>
<trkpt lat="47.360488689" lon="6.840800168"><ele></ele><time>2013-8-9T23:19:34Z</time></trkpt>
<trkpt lat="47.360360781" lon="6.840891698"><ele></ele><time>2013-8-9T23:19:37Z</time></trkpt>
<trkpt lat="47.360023493" lon="6.840950958"><ele></ele><time>2013-8-9T23:19:40Z</time></trkpt>
<trkpt lat="47.359814448" lon="6.840919862"><ele></ele><time>2013-8-9T23:19:43Z</time></trkpt>
<trkpt lat="47.359595681" lon="6.840910641"><ele></ele><time>2013-8-9T23:19:46Z</time></trkpt>
<trkpt lat="47.359501300" lon="6.840905361"><ele></ele><time>2013-8-9T23:19:49Z</time></trkpt>
<trkpt lat="47.359135430" lon="6.840865714"><ele></ele><time>2013-8-9T23:19:52Z</time></trkpt>
<trkpt lat="47.358917668" lon="6.840789858"><ele></ele><time>2013-8-9T23:19:55Z</time></trkpt>
<trkpt lat="47.358883638" lon="6.840715176"><ele></ele><time>2013-8-9T23:19:58Z</time></trkpt>
<trkpt lat="47.358733769" lon="6.840619538"><ele></ele><time>2013-8-9T23:20:1Z</time></trkpt>
<trkpt lat="47.358421879" lon="6.840514932"><ele></ele><time>2013-8-9T23:20:4Z</time></trkpt>
<trkpt lat="47.358080652" lon="6.840386353"><ele></ele><time>2013-8-9T23:20:7Z</time></trkpt>
<trkpt lat="47.358024074" lon="6.840259200"><ele></ele><time>2013-8-9T23:20:10Z</time></trkpt>
<trkpt lat="47.357922317" lon="6.839975305"><ele></ele><time>2013-8-9T23:20:13Z</time></trkpt>
<trkpt lat="47.357700784" lon="6.839645477"><ele></ele><time>2013-8-9T23:20:16Z</time></trkpt>
<trkpt lat="47.357538343" lon="6.839222191"><ele></ele><time>2013-8-9T23:20:19Z</time></trkpt>
<trkpt lat="47.357532391" lon="6.839138707"><ele></ele><time>2013-8-9T23:20:22Z</time></trkpt>
<trkpt lat="47.357559968" lon="6.838730006"><ele></ele><time>2013-8-9T23:20:25Z</time></trkpt>
<trkpt lat="47.357568182" lon="6.838647695"><ele></ele><time>2013-8-9T23:20:28Z</time></trkpt>
<trkpt lat="47.357597267" lon="6.838409482"><ele></ele><time>2013-8-9T23:20:31Z</time></trkpt>
<trkpt lat="47.357659629" lon="6.837917212"><ele></ele><time>2013-8-9T23:20:34Z</time></trkpt>
<trkpt lat="47.357703047" lon="6.837517060"><ele></ele><time>2013-8-9T23:20:37Z</time></trkpt>
<trkpt lat="47.357725175" lon="6.837336263"><ele></ele><time>2013-8-9T23:20:40Z</time></trkpt>
<trkpt lat="47.357729785" lon="6.837238278"><ele></ele><time>2013-8-9T23:20:43Z</time></trkpt>
<trkpt lat="47.357723750" lon="6.836885652"><ele></ele><time>2013-8-9T23:20:46Z</time></trkpt>
<trkpt lat="47.357735066" lon="6.836531097"><ele></ele><time>2013-8-9T23:20:49Z</time></trkpt>
<trkpt lat="47.357738335" lon="6.836497653"><ele></ele><time>2013-8-9T23:20:52Z</time></trkpt>
<trkpt lat="47.357710339" lon="6.836430598"><ele></ele><time>2013-8-9T23:20:55Z</time></trkpt>
<trkpt lat="47.357298704" lon="6.836011168"><ele></ele><time>2013-8-9T23:20:58Z</time></trkpt>
<trkpt lat="47.357087145" lon="6.835663738"><ele></ele><time>2013-8-9T23:21:1Z</time></trkpt>
<trkpt lat="47.356956638" lon="6.835340783"><ele></ele><time>2013-8-9T23:21:4Z</time></trkpt>
<trkpt lat="47.356818253" lon="6.834994946"><ele></ele><time>2013-8-9T23:21:7Z</time></trkpt>
<trkpt lat="47.356639216" lon="6.834514663"><ele></ele><time>2013-8-9T23:21:10Z</time></trkpt>
<trkpt lat="47.356436960" lon="6.833898928"><ele></ele><time>2013-8-9T23:21:13Z</time></trkpt>
<trkpt lat="47.356286924" lon="6.833412358"><ele></ele><time>2013-8-9T23:21:16Z</time></trkpt>
<trkpt lat="47.356196065" lon="6.833026875"><ele></ele><time>2013-8-9T23:21:19Z</time></trkpt>
<trkpt lat="47.356096404" lon="6.832637033"><ele></ele><time>2013-8-9T23:21:22Z</time></trkpt>
<trkpt lat="47.356066816" lon="6.832538713"><ele></ele><time>2013-8-9T23:21:25Z</time></trkpt>
<trkpt lat="47.356002359" lon="6.832407033"><ele></ele><time>2013-8-9T23:21:28Z</time></trkpt>
<trkpt lat="47.355989451" lon="6.832407536"><ele></ele><time>2013-8-9T23:21:31Z</time></trkpt>
<trkpt lat="47.355960449" lon="6.832463192"><ele></ele><time>2013-8-9T23:21:34Z</time></trkpt>
<trkpt lat="47.355828434" lon="6.832946325"><ele></ele><time>2013-8-9T23:21:37Z</time></trkpt>
<trkpt lat="47.355703041" lon="6.833350165"><ele></ele><time>2013-8-9T23:21:40Z</time></trkpt>
<trkpt lat="47.355535570" lon="6.833642023"><ele></ele><time>2013-8-9T23:21:43Z</time></trkpt>
<trkpt lat="47.355351001" lon="6.834642571"><ele></ele><time>2013-8-9T23:21:46Z</time></trkpt>
<trkpt lat="47.355185877" lon="6.835486796"><ele></ele><time>2013-8-9T23:21:49Z</time></trkpt>
<trkpt lat="47.354875077" lon="6.836183164"><ele></ele><time>2013-8-9T23:21:52Z</time></trkpt>
<trkpt lat="47.354735518" lon="6.836319119"><ele></ele><time>2013-8-9T23:21:55Z</time></trkpt>
<trkpt lat="47.354431506" lon="6.836380893"><ele></ele><time>2013-8-9T23:21:58Z</time></trkpt>
<trkpt lat="47.354298653" lon="6.836455241"><ele></ele><time>2013-8-9T23:22:1Z</time></trkpt>
<trkpt lat="47.354139816" lon="6.836665207"><ele></ele><time>2013-8-9T23:22:4Z</time></trkpt>
<trkpt lat="47.353944853" lon="6.836975841"><ele></ele><time>2013-8-9T23:22:7Z</time></trkpt>
<trkpt lat="47.353919623" lon="6.837358475"><ele></ele><time>2013-8-9T23:22:10Z</time></trkpt>
<trkpt lat="47.353927419" lon="6.837473223"><ele></ele><time>2013-8-9T23:22:13Z</time></trkpt>
<trkpt lat="47.353925239" lon="6.837508092"><ele></ele><time>2013-8-9T23:22:16Z</time></trkpt>
<trkpt lat="47.353916187" lon="6.837644130"><ele></ele><time>2013-8-9T23:22:19Z</time></trkpt>
<trkpt lat="47.353894394" lon="6.837737169"><ele></ele><time>2013-8-9T23:22:22Z</time></trkpt>
<trkpt lat="47.353866482" lon="6.837852420"><ele></ele><time>2013-8-9T23:22:25Z</time></trkpt>
<trkpt lat="47.353823315" lon="6.837947471"><ele></ele><time>2013-8-9T23:22:28Z</time></trkpt>
<trkpt lat="47.353765732" lon="6.838021735"><ele></ele><time>2013-8-9T23:22:31Z</time></trkpt>
<trkpt lat="47.353655091" lon="6.838069428"><ele></ele><time>2013-8-9T23:22:34Z</time></trkpt>
<trkpt lat="47.353453254" lon="6.838134890"><ele></ele><time>2013-8-9T23:22:37Z</time></trkpt>
<trkpt lat="47.353367843" lon="6.838201527"><ele></ele><time>2013-8-9T23:22:40Z</time></trkpt>
<trkpt lat="47.353305817" lon="6.838177387"><ele></ele><time>2013-8-9T23:22:43Z</time></trkpt>
<trkpt lat="47.353313277" lon="6.838191301"><ele></ele><time>2013-8-9T23:22:46Z</time></trkpt>
<trkpt lat="47.353378069" lon="6.838330608"><ele></ele><time>2013-8-9T23:22:49Z</time></trkpt>
<trkpt lat="47.353557106" lon="6.838626824"><ele></ele><time>2013-8-9T23:22:52Z</time></trkpt>
<trkpt lat="47.353769671" lon="6.838967213"><ele></ele><time>2013-8-9T23:22:55Z</time></trkpt>
<trkpt lat="47.353984248" lon="6.839332832"><ele></ele><time>2013-8-9T23:22:58Z</time></trkpt>
<trkpt lat="47.354166470" lon="6.839689650"><ele></ele><time>2013-8-9T23:23:1Z</time></trkpt>
<trkpt lat="47.354387753" lon="6.840176890"><ele></ele><time>2013-8-9T23:23:4Z</time></trkpt>
<trkpt lat="47.354386412" lon="6.840231959"><ele></ele><time>2013-8-9T23:23:7Z</time></trkpt>
<trkpt lat="47.354321200" lon="6.841006195"><ele></ele><time>2013-8-9T23:23:10Z</time></trkpt>
<trkpt lat="47.354301754" lon="6.841366617"><ele></ele><time>2013-8-9T23:23:13Z</time></trkpt>
<trkpt lat="47.354276190" lon="6.841790406"><ele></ele><time>2013-8-9T23:23:16Z</time></trkpt>
<trkpt lat="47.354238136" lon="6.841968689"><ele></ele><time>2013-8-9T23:23:19Z</time></trkpt>
<trkpt lat="47.354207206" lon="6.842088550"><ele></ele><time>2013-8-9T23:23:22Z</time></trkpt>
<trkpt lat="47.354107797" lon="6.842499180"><ele></ele><time>2013-8-9T23:23:25Z</time></trkpt>
<trkpt lat="47.353911912" lon="6.842936631"><ele></ele><time>2013-8-9T23:23:28Z</time></trkpt>
<trkpt lat="47.353633884" lon="6.843466535"><ele></ele><time>2013-8-9T23:23:31Z</time></trkpt>
<trkpt lat="47.353437077" lon="6.843931563"><ele></ele><time>2013-8-9T23:23:34Z</time></trkpt>
<trkpt lat="47.353408998" lon="6.844013287"><ele></ele><time>2013-8-9T23:23:37Z</time></trkpt>
<trkpt lat="47.353265919" lon="6.844320819"><ele></ele><time>2013-8-9T23:23:40Z</time></trkpt>
<trkpt lat="47.353139603" lon="6.844583256"><ele></ele><time>2013-8-9T23:23:43Z</time></trkpt>
<trkpt lat="47.352921590" lon="6.845184825"><ele></ele><time>2013-8-9T23:23:46Z</time></trkpt>
<trkpt lat="47.352708690" lon="6.845416920"><ele></ele><time>2013-8-9T23:23:49Z</time></trkpt>
<trkpt lat="47.352503249" lon="6.844994053"><ele></ele><time>2013-8-9T23:23:52Z</time></trkpt>
<trkpt lat="47.352360422" lon="6.844671182"><ele></ele><time>2013-8-9T23:23:55Z</time></trkpt>
<trkpt lat="47.352167889" lon="6.844237419"><ele></ele><time>2013-8-9T23:23:58Z</time></trkpt>
<trkpt lat="47.352072755" lon="6.844026279"><ele></ele><time>2013-8-9T23:24:1Z</time></trkpt>
<trkpt lat="47.351878546" lon="6.843574997"><ele></ele><time>2013-8-9T23:24:4Z</time></trkpt>
<trkpt lat="47.351685092" lon="6.843113825"><ele></ele><time>2013-8-9T23:24:7Z</time></trkpt>
<trkpt lat="47.351526674" lon="6.842622394"><ele></ele><time>2013-8-9T23:24:10Z</time></trkpt>
<trkpt lat="47.351437071" lon="6.842123000"><ele></ele><time>2013-8-9T23:24:13Z</time></trkpt>
<trkpt lat="47.351420140" lon="6.841829969"><ele></ele><time>2013-8-9T23:24:16Z</time></trkpt>
<trkpt lat="47.351278150" lon="6.841691080"><ele></ele><time>2013-8-9T23:24:19Z</time></trkpt>
<trkpt lat="47.351233056" lon="6.841746485"><ele></ele><time>2013-8-9T23:24:22Z</time></trkpt>
<trkpt lat="47.350844135" lon="6.842391556"><ele></ele><time>2013-8-9T23:24:25Z</time></trkpt>
<trkpt lat="47.350624865" lon="6.842383342"><ele></ele><time>2013-8-9T23:24:28Z</time></trkpt>
<trkpt lat="47.350590248" lon="6.842326513"><ele></ele><time>2013-8-9T23:24:31Z</time></trkpt>
<trkpt lat="47.350368714" lon="6.841909345"><ele></ele><time>2013-8-9T23:24:34Z</time></trkpt>
<trkpt lat="47.350330744" lon="6.841842290"><ele></ele><time>2013-8-9T23:24:37Z</time></trkpt>
<trkpt lat="47.350071324" lon="6.841647830"><ele></ele><time>2013-8-9T23:24:40Z</time></trkpt>
<trkpt lat="47.349751471" lon="6.841538865"><ele></ele><time>2013-8-9T23:24:43Z</time></trkpt>
<trkpt lat="47.349489788" lon="6.841469631"><ele></ele><time>2013-8-9T23:24:46Z</time></trkpt>
<trkpt lat="47.349307062" lon="6.841327893"><ele></ele><time>2013-8-9T23:24:49Z</time></trkpt>
<trkpt lat="47.349178735" lon="6.841120776"><ele></ele><time>2013-8-9T23:24:52Z</time></trkpt>
<trkpt lat="47.349166079" lon="6.841149777"><ele></ele><time>2013-8-9T23:24:55Z</time></trkpt>
<trkpt lat="47.349152584" lon="6.841175593"><ele></ele><time>2013-8-9T23:24:58Z</time></trkpt>
<trkpt lat="47.349158283" lon="6.841199147"><ele></ele><time>2013-8-9T23:25:1Z</time></trkpt>
<trkpt lat="47.349213688" lon="6.841180455"><ele></ele><time>2013-8-9T23:25:4Z</time></trkpt>
<trkpt lat="47.349216454" lon="6.841144916"><ele></ele><time>2013-8-9T23:25:7Z</time></trkpt>
<trkpt lat="47.349264901" lon="6.840347210"><ele></ele><time>2013-8-9T23:25:10Z</time></trkpt>
<trkpt lat="47.349231541" lon="6.840152247"><ele></ele><time>2013-8-9T23:25:13Z</time></trkpt>
<trkpt lat="47.348877322" lon="6.839877656"><ele></ele><time>2013-8-9T23:25:16Z</time></trkpt>
<trkpt lat="47.348552439" lon="6.839767518"><ele></ele><time>2013-8-9T23:25:19Z</time></trkpt>
<trkpt lat="47.348424280" lon="6.839693421"><ele></ele><time>2013-8-9T23:25:22Z</time></trkpt>
<trkpt lat="47.348384298" lon="6.839704653"><ele></ele><time>2013-8-9T23:25:25Z</time></trkpt>
<trkpt lat="47.348284135" lon="6.840143697"><ele></ele><time>2013-8-9T23:25:28Z</time></trkpt>
<trkpt lat="47.348173745" lon="6.840840820"><ele></ele><time>2013-8-9T23:25:31Z</time></trkpt>
<trkpt lat="47.347913822" lon="6.841351949"><ele></ele><time>2013-8-9T23:25:34Z</time></trkpt>
<trkpt lat="47.347456254" lon="6.841745144"><ele></ele><time>2013-8-9T23:25:37Z</time></trkpt>
<trkpt lat="47.346929619" lon="6.841973886"><ele></ele><time>2013-8-9T23:25:40Z</time></trkpt>
<trkpt lat="47.346091764" lon="6.842227355"><ele></ele><time>2013-8-9T23:25:43Z</time></trkpt>
<trkpt lat="47.345208731" lon="6.842137165"><ele></ele><time>2013-8-9T23:25:46Z</time></trkpt>
<trkpt lat="47.344767842" lon="6.842076313"><ele></ele><time>2013-8-9T23:25:49Z</time></trkpt>
<trkpt lat="47.343699234" lon="6.842083856"><ele></ele><time>2013-8-9T23:25:52Z</time></trkpt>
<trkpt lat="47.343400922" lon="6.842166921"><ele></ele><time>2013-8-9T23:25:55Z</time></trkpt>
<trkpt lat="47.342903037" lon="6.842668578"><ele></ele><time>2013-8-9T23:25:58Z</time></trkpt>
<trkpt lat="47.342666667" lon="6.842812328"><ele></ele><time>2013-8-9T23:26:1Z</time></trkpt>
<trkpt lat="47.341892095" lon="6.843037130"><ele></ele><time>2013-8-9T23:26:4Z</time></trkpt>
<trkpt lat="47.341390941" lon="6.843385566"><ele></ele><time>2013-8-9T23:26:7Z</time></trkpt>
<trkpt lat="47.340929853" lon="6.843704246"><ele></ele><time>2013-8-9T23:26:10Z</time></trkpt>
<trkpt lat="47.340474967" lon="6.844027955"><ele></ele><time>2013-8-9T23:26:13Z</time></trkpt>
<trkpt lat="47.340097614" lon="6.844274886"><ele></ele><time>2013-8-9T23:26:16Z</time></trkpt>
<trkpt lat="47.339687403" lon="6.844556518"><ele></ele><time>2013-8-9T23:26:19Z</time></trkpt>
<trkpt lat="47.339379955" lon="6.844762377"><ele></ele><time>2013-8-9T23:26:22Z</time></trkpt>
<trkpt lat="47.339092540" lon="6.844961364"><ele></ele><time>2013-8-9T23:26:25Z</time></trkpt>
<trkpt lat="47.338864720" lon="6.845216677"><ele></ele><time>2013-8-9T23:26:28Z</time></trkpt>
<trkpt lat="47.338825241" lon="6.845567040"><ele></ele><time>2013-8-9T23:26:31Z</time></trkpt>
<trkpt lat="47.338827252" lon="6.845963336"><ele></ele><time>2013-8-9T23:26:34Z</time></trkpt>
<trkpt lat="47.338897074" lon="6.846302049"><ele></ele><time>2013-8-9T23:26:37Z</time></trkpt>
<trkpt lat="47.338960106" lon="6.846620059"><ele></ele><time>2013-8-9T23:26:40Z</time></trkpt>
<trkpt lat="47.339005535" lon="6.846784428"><ele></ele><time>2013-8-9T23:26:43Z</time></trkpt>
<trkpt lat="47.339118021" lon="6.847026497"><ele></ele><time>2013-8-9T23:26:46Z</time></trkpt>
<trkpt lat="47.339175101" lon="6.847233111"><ele></ele><time>2013-8-9T23:26:49Z</time></trkpt>
<trkpt lat="47.339089103" lon="6.847563442"><ele></ele><time>2013-8-9T23:26:52Z</time></trkpt>
<trkpt lat="47.339020371" lon="6.847887570"><ele></ele><time>2013-8-9T23:26:55Z</time></trkpt>
<trkpt lat="47.338955831" lon="6.848191582"><ele></ele><time>2013-8-9T23:26:58Z</time></trkpt>
<trkpt lat="47.338962033" lon="6.848300966"><ele></ele><time>2013-8-9T23:27:1Z</time></trkpt>
<trkpt lat="47.338991454" lon="6.848544879"><ele></ele><time>2013-8-9T23:27:4Z</time></trkpt>
<trkpt lat="47.338972846" lon="6.848644875"><ele></ele><time>2013-8-9T23:27:7Z</time></trkpt>
<trkpt lat="47.338967901" lon="6.848669937"><ele></ele><time>2013-8-9T23:27:10Z</time></trkpt>
<trkpt lat="47.338943928" lon="6.848803712"><ele></ele><time>2013-8-9T23:27:13Z</time></trkpt>
<trkpt lat="47.338881316" lon="6.848939331"><ele></ele><time>2013-8-9T23:27:16Z</time></trkpt>
<trkpt lat="47.338793641" lon="6.849075202"><ele></ele><time>2013-8-9T23:27:19Z</time></trkpt>
<trkpt lat="47.338764807" lon="6.849084254"><ele></ele><time>2013-8-9T23:27:22Z</time></trkpt>
<trkpt lat="47.338740500" lon="6.849151561"><ele></ele><time>2013-8-9T23:27:25Z</time></trkpt>
<trkpt lat="47.338563809" lon="6.849224064"><ele></ele><time>2013-8-9T23:27:28Z</time></trkpt>
<trkpt lat="47.338188551" lon="6.849281732"><ele></ele><time>2013-8-9T23:27:31Z</time></trkpt>
<trkpt lat="47.337822430" lon="6.849388098"><ele></ele><time>2013-8-9T23:27:34Z</time></trkpt>
<trkpt lat="47.337482711" lon="6.849535452"><ele></ele><time>2013-8-9T23:27:37Z</time></trkpt>
<trkpt lat="47.337107705" lon="6.849698816"><ele></ele><time>2013-8-9T23:27:40Z</time></trkpt>
<trkpt lat="47.336916179" lon="6.849913141"><ele></ele><time>2013-8-9T23:27:43Z</time></trkpt>
<trkpt lat="47.336755162" lon="6.850091759"><ele></ele><time>2013-8-9T23:27:46Z</time></trkpt>
<trkpt lat="47.336547039" lon="6.850327123"><ele></ele><time>2013-8-9T23:27:49Z</time></trkpt>
<trkpt lat="47.336332798" lon="6.850463832"><ele></ele><time>2013-8-9T23:27:52Z</time></trkpt>
<trkpt lat="47.336316537" lon="6.850468945"><ele></ele><time>2013-8-9T23:27:55Z</time></trkpt>
<trkpt lat="47.336299354" lon="6.850502472"><ele></ele><time>2013-8-9T23:27:58Z</time></trkpt>
<trkpt lat="47.336065415" lon="6.850582603"><ele></ele><time>2013-8-9T23:28:1Z</time></trkpt>
<trkpt lat="47.335847402" lon="6.850705985"><ele></ele><time>2013-8-9T23:28:4Z</time></trkpt>
<trkpt lat="47.335634921" lon="6.851003962"><ele></ele><time>2013-8-9T23:28:7Z</time></trkpt>
<trkpt lat="47.335538697" lon="6.851071520"><ele></ele><time>2013-8-9T23:28:10Z</time></trkpt>
<trkpt lat="47.335341470" lon="6.851251144"><ele></ele><time>2013-8-9T23:28:13Z</time></trkpt>
<trkpt lat="47.335256981" lon="6.851526573"><ele></ele><time>2013-8-9T23:28:16Z</time></trkpt>
<trkpt lat="47.335079033" lon="6.851805020"><ele></ele><time>2013-8-9T23:28:19Z</time></trkpt>
<trkpt lat="47.334924387" lon="6.851862939"><ele></ele><time>2013-8-9T23:28:22Z</time></trkpt>
<trkpt lat="47.334774435" lon="6.851781467"><ele></ele><time>2013-8-9T23:28:25Z</time></trkpt>
<trkpt lat="47.334426586" lon="6.851569656"><ele></ele><time>2013-8-9T23:28:28Z</time></trkpt>
<trkpt lat="47.334209997" lon="6.851421045"><ele></ele><time>2013-8-9T23:28:31Z</time></trkpt>
<trkpt lat="47.333989972" lon="6.851312583"><ele></ele><time>2013-8-9T23:28:34Z</time></trkpt>
<trkpt lat="47.333860137" lon="6.851256173"><ele></ele><time>2013-8-9T23:28:37Z</time></trkpt>
<trkpt lat="47.333754860" lon="6.851213174"><ele></ele><time>2013-8-9T23:28:40Z</time></trkpt>
<trkpt lat="47.333569620" lon="6.851154752"><ele></ele><time>2013-8-9T23:28:43Z</time></trkpt>
<trkpt lat="47.333229734" lon="6.850903295"><ele></ele><time>2013-8-9T23:28:46Z</time></trkpt>
<trkpt lat="47.333043991" lon="6.850721072"><ele></ele><time>2013-8-9T23:28:49Z</time></trkpt>
<trkpt lat="47.332909126" lon="6.850589309"><ele></ele><time>2013-8-9T23:28:52Z</time></trkpt>
<trkpt lat="47.332774764" lon="6.850465173"><ele></ele><time>2013-8-9T23:28:55Z</time></trkpt>
<trkpt lat="47.332699662" lon="6.850415133"><ele></ele><time>2013-8-9T23:28:58Z</time></trkpt>
<trkpt lat="47.332495311" lon="6.850329470"><ele></ele><time>2013-8-9T23:29:1Z</time></trkpt>
<trkpt lat="47.332460443" lon="6.850325698"><ele></ele><time>2013-8-9T23:29:4Z</time></trkpt>
<trkpt lat="47.332149390" lon="6.850017328"><ele></ele><time>2013-8-9T23:29:7Z</time></trkpt>
<trkpt lat="47.332010670" lon="6.849842146"><ele></ele><time>2013-8-9T23:29:10Z</time></trkpt>
<trkpt lat="47.331910925" lon="6.849863771"><ele></ele><time>2013-8-9T23:29:13Z</time></trkpt>
<trkpt lat="47.331907488" lon="6.849889671"><ele></ele><time>2013-8-9T23:29:16Z</time></trkpt>
<trkpt lat="47.332099099" lon="6.850259649"><ele></ele><time>2013-8-9T23:29:19Z</time></trkpt>
<trkpt lat="47.332138661" lon="6.850536335"><ele></ele><time>2013-8-9T23:29:22Z</time></trkpt>
<trkpt lat="47.332090968" lon="6.850585956"><ele></ele><time>2013-8-9T23:29:25Z</time></trkpt>
<trkpt lat="47.332067164" lon="6.850591991"><ele></ele><time>2013-8-9T23:29:28Z</time></trkpt>
<trkpt lat="47.331764158" lon="6.850679582"><ele></ele><time>2013-8-9T23:29:31Z</time></trkpt>
<trkpt lat="47.331689056" lon="6.850656197"><ele></ele><time>2013-8-9T23:29:34Z</time></trkpt>
<trkpt lat="47.331500128" lon="6.850397866"><ele></ele><time>2013-8-9T23:29:37Z</time></trkpt>
<trkpt lat="47.331476491" lon="6.850394513"><ele></ele><time>2013-8-9T23:29:40Z</time></trkpt>
<trkpt lat="47.331304746" lon="6.850318657"><ele></ele><time>2013-8-9T23:29:43Z</time></trkpt>
<trkpt lat="47.331146998" lon="6.850171555"><ele></ele><time>2013-8-9T23:29:46Z</time></trkpt>
<trkpt lat="47.331071729" lon="6.850097962"><ele></ele><time>2013-8-9T23:29:49Z</time></trkpt>
<trkpt lat="47.330915909" lon="6.849990925"><ele></ele><time>2013-8-9T23:29:52Z</time></trkpt>
<trkpt lat="47.330737207" lon="6.849767799"><ele></ele><time>2013-8-9T23:29:55Z</time></trkpt>
<trkpt lat="47.330626901" lon="6.849508798"><ele></ele><time>2013-8-9T23:29:58Z</time></trkpt>
<trkpt lat="47.330562193" lon="6.849336047"><ele></ele><time>2013-8-9T23:30:1Z</time></trkpt>
<trkpt lat="47.330484409" lon="6.849146448"><ele></ele><time>2013-8-9T23:30:4Z</time></trkpt>
<trkpt lat="47.330396315" lon="6.848971769"><ele></ele><time>2013-8-9T23:30:7Z</time></trkpt>
<trkpt lat="47.330356836" lon="6.848890381"><ele></ele><time>2013-8-9T23:30:10Z</time></trkpt>
<trkpt lat="47.330244100" lon="6.848674128"><ele></ele><time>2013-8-9T23:30:13Z</time></trkpt>
<trkpt lat="47.330112504" lon="6.848477237"><ele></ele><time>2013-8-9T23:30:16Z</time></trkpt>
<trkpt lat="47.330020471" lon="6.848399620"><ele></ele><time>2013-8-9T23:30:19Z</time></trkpt>
<trkpt lat="47.329903292" lon="6.848337343"><ele></ele><time>2013-8-9T23:30:22Z</time></trkpt>
<trkpt lat="47.329778234" lon="6.848329129"><ele></ele><time>2013-8-9T23:30:25Z</time></trkpt>
<trkpt lat="47.329674549" lon="6.848321334"><ele></ele><time>2013-8-9T23:30:28Z</time></trkpt>
<trkpt lat="47.329509593" lon="6.848333320"><ele></ele><time>2013-8-9T23:30:31Z</time></trkpt>
<trkpt lat="47.329372633" lon="6.848450834"><ele></ele><time>2013-8-9T23:30:34Z</time></trkpt>
<trkpt lat="47.329339022" lon="6.848503137"><ele></ele><time>2013-8-9T23:30:37Z</time></trkpt>
<trkpt lat="47.329329299" lon="6.848510932"><ele></ele><time>2013-8-9T23:30:40Z</time></trkpt>
<trkpt lat="47.329282193" lon="6.848537335"><ele></ele><time>2013-8-9T23:30:43Z</time></trkpt>
<trkpt lat="47.329264423" lon="6.848449661"><ele></ele><time>2013-8-9T23:30:46Z</time></trkpt>
<trkpt lat="47.329249671" lon="6.848446056"><ele></ele><time>2013-8-9T23:30:49Z</time></trkpt>
<trkpt lat="47.329259142" lon="6.848202478"><ele></ele><time>2013-8-9T23:30:52Z</time></trkpt>
<trkpt lat="47.329295017" lon="6.848017070"><ele></ele><time>2013-8-9T23:30:55Z</time></trkpt>
<trkpt lat="47.329317816" lon="6.847908441"><ele></ele><time>2013-8-9T23:30:58Z</time></trkpt>
<trkpt lat="47.329347907" lon="6.847830070"><ele></ele><time>2013-8-9T23:31:1Z</time></trkpt>
<trkpt lat="47.329376657" lon="6.847762093"><ele></ele><time>2013-8-9T23:31:4Z</time></trkpt>
<trkpt lat="47.329475982" lon="6.847571069"><ele></ele><time>2013-8-9T23:31:7Z</time></trkpt>
<trkpt lat="47.329664659" lon="6.847348195"><ele></ele><time>2013-8-9T23:31:10Z</time></trkpt>
<trkpt lat="47.329730205" lon="6.847287007"><ele></ele><time>2013-8-9T23:31:13Z</time></trkpt>
<trkpt lat="47.329914440" lon="6.847074777"><ele></ele><time>2013-8-9T23:31:16Z</time></trkpt>
<trkpt lat="47.329964815" lon="6.847019205"><ele></ele><time>2013-8-9T23:31:19Z</time></trkpt>
<trkpt lat="47.330154078" lon="6.846765904"><ele></ele><time>2013-8-9T23:31:22Z</time></trkpt>
<trkpt lat="47.330217361" lon="6.846611425"><ele></ele><time>2013-8-9T23:31:25Z</time></trkpt>
<trkpt lat="47.330272179" lon="6.846407829"><ele></ele><time>2013-8-9T23:31:28Z</time></trkpt>
<trkpt lat="47.330284417" lon="6.846366171"><ele></ele><time>2013-8-9T23:31:31Z</time></trkpt>
<trkpt lat="47.330345185" lon="6.846216805"><ele></ele><time>2013-8-9T23:31:34Z</time></trkpt>
<trkpt lat="47.330391454" lon="6.846086634"><ele></ele><time>2013-8-9T23:31:37Z</time></trkpt>
<trkpt lat="47.330435459" lon="6.845952105"><ele></ele><time>2013-8-9T23:31:40Z</time></trkpt>
<trkpt lat="47.330479966" lon="6.845834842"><ele></ele><time>2013-8-9T23:31:43Z</time></trkpt>
<trkpt lat="47.330654897" lon="6.845559832"><ele></ele><time>2013-8-9T23:31:46Z</time></trkpt>
<trkpt lat="47.330672080" lon="6.845406946"><ele></ele><time>2013-8-9T23:31:49Z</time></trkpt>
<trkpt lat="47.330695298" lon="6.845298065"><ele></ele><time>2013-8-9T23:31:52Z</time></trkpt>
<trkpt lat="47.330662357" lon="6.845197733"><ele></ele><time>2013-8-9T23:31:55Z</time></trkpt>
<trkpt lat="47.330672247" lon="6.845162697"><ele></ele><time>2013-8-9T23:31:58Z</time></trkpt>
<trkpt lat="47.330675181" lon="6.845102431"><ele></ele><time>2013-8-9T23:32:1Z</time></trkpt>
<trkpt lat="47.330679456" lon="6.845089523"><ele></ele><time>2013-8-9T23:32:4Z</time></trkpt>
<trkpt lat="47.330703931" lon="6.845038896"><ele></ele><time>2013-8-9T23:32:7Z</time></trkpt>
<trkpt lat="47.330695381" lon="6.844951976"><ele></ele><time>2013-8-9T23:32:10Z</time></trkpt>
<trkpt lat="47.330556577" lon="6.844602032"><ele></ele><time>2013-8-9T23:32:13Z</time></trkpt>
<trkpt lat="47.330533527" lon="6.844517710"><ele></ele><time>2013-8-9T23:32:16Z</time></trkpt>
<trkpt lat="47.330509219" lon="6.844424000"><ele></ele><time>2013-8-9T23:32:19Z</time></trkpt>
<trkpt lat="47.330430010" lon="6.844234234"><ele></ele><time>2013-8-9T23:32:22Z</time></trkpt>
<trkpt lat="47.330403607" lon="6.844187044"><ele></ele><time>2013-8-9T23:32:25Z</time></trkpt>
<trkpt lat="47.330307635" lon="6.844126862"><ele></ele><time>2013-8-9T23:32:28Z</time></trkpt>
<trkpt lat="47.330193138" lon="6.844048575"><ele></ele><time>2013-8-9T23:32:31Z</time></trkpt>
<trkpt lat="47.330095572" lon="6.843868364"><ele></ele><time>2013-8-9T23:32:34Z</time></trkpt>
<trkpt lat="47.330061458" lon="6.843756298"><ele></ele><time>2013-8-9T23:32:37Z</time></trkpt>
<trkpt lat="47.330040755" lon="6.843693601"><ele></ele><time>2013-8-9T23:32:40Z</time></trkpt>
<trkpt lat="47.330015609" lon="6.843493525"><ele></ele><time>2013-8-9T23:32:43Z</time></trkpt>
<trkpt lat="47.329901783" lon="6.843132936"><ele></ele><time>2013-8-9T23:32:46Z</time></trkpt>
<trkpt lat="47.329841349" lon="6.842927830"><ele></ele><time>2013-8-9T23:32:49Z</time></trkpt>
<trkpt lat="47.329624342" lon="6.842359705"><ele></ele><time>2013-8-9T23:32:52Z</time></trkpt>
<trkpt lat="47.329541612" lon="6.842176812"><ele></ele><time>2013-8-9T23:32:55Z</time></trkpt>
<trkpt lat="47.329379926" lon="6.841931306"><ele></ele><time>2013-8-9T23:32:58Z</time></trkpt>
<trkpt lat="47.329259897" lon="6.841700049"><ele></ele><time>2013-8-9T23:33:1Z</time></trkpt>
<trkpt lat="47.329129390" lon="6.841595359"><ele></ele><time>2013-8-9T23:33:4Z</time></trkpt>
<trkpt lat="47.329121847" lon="6.841574404"><ele></ele><time>2013-8-9T23:33:7Z</time></trkpt>
<trkpt lat="47.329081195" lon="6.841466278"><ele></ele><time>2013-8-9T23:33:10Z</time></trkpt>
<trkpt lat="47.329062000" lon="6.841400312"><ele></ele><time>2013-8-9T23:33:13Z</time></trkpt>
<trkpt lat="47.329041883" lon="6.841379274"><ele></ele><time>2013-8-9T23:33:16Z</time></trkpt>
<trkpt lat="47.328759665" lon="6.841174336"><ele></ele><time>2013-8-9T23:33:19Z</time></trkpt>
<trkpt lat="47.328711469" lon="6.841057912"><ele></ele><time>2013-8-9T23:33:22Z</time></trkpt>
<trkpt lat="47.328706104" lon="6.840571929"><ele></ele><time>2013-8-9T23:33:25Z</time></trkpt>
<trkpt lat="47.328871647" lon="6.840059124"><ele></ele><time>2013-8-9T23:33:28Z</time></trkpt>
<trkpt lat="47.328937529" lon="6.839907412"><ele></ele><time>2013-8-9T23:33:31Z</time></trkpt>
<trkpt lat="47.328974493" lon="6.839629384"><ele></ele><time>2013-8-9T23:33:34Z</time></trkpt>
<trkpt lat="47.328982791" lon="6.839584708"><ele></ele><time>2013-8-9T23:33:37Z</time></trkpt>
<trkpt lat="47.328959405" lon="6.839392511"><ele></ele><time>2013-8-9T23:33:40Z</time></trkpt>
<trkpt lat="47.328948090" lon="6.839166200"><ele></ele><time>2013-8-9T23:33:43Z</time></trkpt>
<trkpt lat="47.328865109" lon="6.838930752"><ele></ele><time>2013-8-9T23:33:46Z</time></trkpt>
<trkpt lat="47.328849938" lon="6.838645097"><ele></ele><time>2013-8-9T23:33:49Z</time></trkpt>
<trkpt lat="47.328743320" lon="6.838249303"><ele></ele><time>2013-8-9T23:33:52Z</time></trkpt>
<trkpt lat="47.328698812" lon="6.838180739"><ele></ele><time>2013-8-9T23:33:55Z</time></trkpt>
<trkpt lat="47.328676432" lon="6.838083509"><ele></ele><time>2013-8-9T23:33:58Z</time></trkpt>
<trkpt lat="47.328597642" lon="6.838028775"><ele></ele><time>2013-8-9T23:34:1Z</time></trkpt>
<trkpt lat="47.328590434" lon="6.838008240"><ele></ele><time>2013-8-9T23:34:4Z</time></trkpt>
<trkpt lat="47.328590183" lon="6.838002959"><ele></ele><time>2013-8-9T23:34:7Z</time></trkpt>
<trkpt lat="47.328559169" lon="6.837946717"><ele></ele><time>2013-8-9T23:34:10Z</time></trkpt>
<trkpt lat="47.328451462" lon="6.837599203"><ele></ele><time>2013-8-9T23:34:13Z</time></trkpt>
<trkpt lat="47.328224564" lon="6.837006435"><ele></ele><time>2013-8-9T23:34:16Z</time></trkpt>
<trkpt lat="47.328125825" lon="6.836602762"><ele></ele><time>2013-8-9T23:34:19Z</time></trkpt>
<trkpt lat="47.328114007" lon="6.836368572"><ele></ele><time>2013-8-9T23:34:22Z</time></trkpt>
<trkpt lat="47.328117192" lon="6.836223481"><ele></ele><time>2013-8-9T23:34:25Z</time></trkpt>
<trkpt lat="47.328082239" lon="6.836048635"><ele></ele><time>2013-8-9T23:34:28Z</time></trkpt>
<trkpt lat="47.328015268" lon="6.835602885"><ele></ele><time>2013-8-9T23:34:31Z</time></trkpt>
<trkpt lat="47.328015100" lon="6.835245900"><ele></ele><time>2013-8-9T23:34:34Z</time></trkpt>
<trkpt lat="47.328038150" lon="6.834765281"><ele></ele><time>2013-8-9T23:34:37Z</time></trkpt>
<trkpt lat="47.328093974" lon="6.834501671"><ele></ele><time>2013-8-9T23:34:40Z</time></trkpt>
<trkpt lat="47.328122389" lon="6.834296649"><ele></ele><time>2013-8-9T23:34:43Z</time></trkpt>
<trkpt lat="47.328100260" lon="6.833990542"><ele></ele><time>2013-8-9T23:34:46Z</time></trkpt>
<trkpt lat="47.328100260" lon="6.833939329"><ele></ele><time>2013-8-9T23:34:49Z</time></trkpt>
<trkpt lat="47.328092298" lon="6.833771691"><ele></ele><time>2013-8-9T23:34:52Z</time></trkpt>
<trkpt lat="47.328122053" lon="6.833663900"><ele></ele><time>2013-8-9T23:34:55Z</time></trkpt>
<trkpt lat="47.328156419" lon="6.833627857"><ele></ele><time>2013-8-9T23:34:58Z</time></trkpt>
<trkpt lat="47.328166142" lon="6.833579913"><ele></ele><time>2013-8-9T23:35:1Z</time></trkpt>
<trkpt lat="47.328152731" lon="6.833458375"><ele></ele><time>2013-8-9T23:35:4Z</time></trkpt>
<trkpt lat="47.328172345" lon="6.833340777"><ele></ele><time>2013-8-9T23:35:7Z</time></trkpt>
<trkpt lat="47.328200005" lon="6.833211780"><ele></ele><time>2013-8-9T23:35:10Z</time></trkpt>
<trkpt lat="47.328263204" lon="6.832935680"><ele></ele><time>2013-8-9T23:35:13Z</time></trkpt>
<trkpt lat="47.328312490" lon="6.832821351"><ele></ele><time>2013-8-9T23:35:16Z</time></trkpt>
<trkpt lat="47.328362698" lon="6.832711631"><ele></ele><time>2013-8-9T23:35:19Z</time></trkpt>
<trkpt lat="47.328323135" lon="6.832567966"><ele></ele><time>2013-8-9T23:35:22Z</time></trkpt>
<trkpt lat="47.328320621" lon="6.832564613"><ele></ele><time>2013-8-9T23:35:25Z</time></trkpt>
<trkpt lat="47.328289356" lon="6.832553130"><ele></ele><time>2013-8-9T23:35:28Z</time></trkpt>
<trkpt lat="47.328268904" lon="6.832555644"><ele></ele><time>2013-8-9T23:35:31Z</time></trkpt>
<trkpt lat="47.328265971" lon="6.832533097"><ele></ele><time>2013-8-9T23:35:34Z</time></trkpt>
<trkpt lat="47.328213081" lon="6.832402088"><ele></ele><time>2013-8-9T23:35:37Z</time></trkpt>
<trkpt lat="47.328192126" lon="6.832343247"><ele></ele><time>2013-8-9T23:35:40Z</time></trkpt>
<trkpt lat="47.328142086" lon="6.832215590"><ele></ele><time>2013-8-9T23:35:43Z</time></trkpt>
<trkpt lat="47.328025075" lon="6.831958769"><ele></ele><time>2013-8-9T23:35:46Z</time></trkpt>
<trkpt lat="47.328002611" lon="6.831912836"><ele></ele><time>2013-8-9T23:35:49Z</time></trkpt>
<trkpt lat="47.327966820" lon="6.831850810"><ele></ele><time>2013-8-9T23:35:52Z</time></trkpt>
<trkpt lat="47.327874787" lon="6.831630953"><ele></ele><time>2013-8-9T23:35:55Z</time></trkpt>
<trkpt lat="47.327789292" lon="6.831437666"><ele></ele><time>2013-8-9T23:35:58Z</time></trkpt>
<trkpt lat="47.327747382" lon="6.831320906"><ele></ele><time>2013-8-9T23:36:1Z</time></trkpt>
<trkpt lat="47.327696085" lon="6.831217976"><ele></ele><time>2013-8-9T23:36:4Z</time></trkpt>
<trkpt lat="47.327555688" lon="6.830852693"><ele></ele><time>2013-8-9T23:36:7Z</time></trkpt>
<trkpt lat="47.327399449" lon="6.830415158"><ele></ele><time>2013-8-9T23:36:10Z</time></trkpt>
<trkpt lat="47.327309260" lon="6.830047192"><ele></ele><time>2013-8-9T23:36:13Z</time></trkpt>
<trkpt lat="47.327274894" lon="6.829874609"><ele></ele><time>2013-8-9T23:36:16Z</time></trkpt>
<trkpt lat="47.327245809" lon="6.829397678"><ele></ele><time>2013-8-9T23:36:19Z</time></trkpt>
<trkpt lat="47.327222591" lon="6.828815388"><ele></ele><time>2013-8-9T23:36:22Z</time></trkpt>
<trkpt lat="47.327229632" lon="6.828368381"><ele></ele><time>2013-8-9T23:36:25Z</time></trkpt>
<trkpt lat="47.327257376" lon="6.827900670"><ele></ele><time>2013-8-9T23:36:28Z</time></trkpt>
<trkpt lat="47.327240696" lon="6.827472774"><ele></ele><time>2013-8-9T23:36:31Z</time></trkpt>
<trkpt lat="47.327133575" lon="6.827165745"><ele></ele><time>2013-8-9T23:36:34Z</time></trkpt>
<trkpt lat="47.327104071" lon="6.827047476"><ele></ele><time>2013-8-9T23:36:37Z</time></trkpt>
<trkpt lat="47.327044057" lon="6.826905990"><ele></ele><time>2013-8-9T23:36:40Z</time></trkpt>
<trkpt lat="47.326763095" lon="6.826503994"><ele></ele><time>2013-8-9T23:36:43Z</time></trkpt>
<trkpt lat="47.326564109" lon="6.826338619"><ele></ele><time>2013-8-9T23:36:46Z</time></trkpt>
<trkpt lat="47.325970251" lon="6.825777534"><ele></ele><time>2013-8-9T23:36:49Z</time></trkpt>
<trkpt lat="47.325867740" lon="6.825528927"><ele></ele><time>2013-8-9T23:36:52Z</time></trkpt>
<trkpt lat="47.325746035" lon="6.825048644"><ele></ele><time>2013-8-9T23:36:55Z</time></trkpt>
<trkpt lat="47.325710412" lon="6.824846473"><ele></ele><time>2013-8-9T23:36:58Z</time></trkpt>
<trkpt lat="47.325728014" lon="6.824104087"><ele></ele><time>2013-8-9T23:37:1Z</time></trkpt>
<trkpt lat="47.325738994" lon="6.823674180"><ele></ele><time>2013-8-9T23:37:4Z</time></trkpt>
<trkpt lat="47.325581415" lon="6.822926849"><ele></ele><time>2013-8-9T23:37:7Z</time></trkpt>
<trkpt lat="47.325505810" lon="6.822601380"><ele></ele><time>2013-8-9T23:37:10Z</time></trkpt>
<trkpt lat="47.325372035" lon="6.822055886"><ele></ele><time>2013-8-9T23:37:13Z</time></trkpt>
<trkpt lat="47.325024772" lon="6.820941009"><ele></ele><time>2013-8-9T23:37:16Z</time></trkpt>
<trkpt lat="47.324854201" lon="6.820629956"><ele></ele><time>2013-8-9T23:37:19Z</time></trkpt>
<trkpt lat="47.324531246" lon="6.820141710"><ele></ele><time>2013-8-9T23:37:22Z</time></trkpt>
<trkpt lat="47.324219607" lon="6.819627397"><ele></ele><time>2013-8-9T23:37:25Z</time></trkpt>
<trkpt lat="47.323896736" lon="6.819122555"><ele></ele><time>2013-8-9T23:37:28Z</time></trkpt>
<trkpt lat="47.323631113" lon="6.818690719"><ele></ele><time>2013-8-9T23:37:31Z</time></trkpt>
<trkpt lat="47.323341100" lon="6.818241617"><ele></ele><time>2013-8-9T23:37:34Z</time></trkpt>
<trkpt lat="47.323037842" lon="6.817630827"><ele></ele><time>2013-8-9T23:37:37Z</time></trkpt>
<trkpt lat="47.323021917" lon="6.816908978"><ele></ele><time>2013-8-9T23:37:40Z</time></trkpt>
<trkpt lat="47.323159548" lon="6.816767910"><ele></ele><time>2013-8-9T23:37:43Z</time></trkpt>
<trkpt lat="47.323524831" lon="6.816508574"><ele></ele><time>2013-8-9T23:37:46Z</time></trkpt>
<trkpt lat="47.323740916" lon="6.816347977"><ele></ele><time>2013-8-9T23:37:49Z</time></trkpt>
<trkpt lat="47.324174764" lon="6.816061484"><ele></ele><time>2013-8-9T23:37:52Z</time></trkpt>
<trkpt lat="47.325082524" lon="6.815959308"><ele></ele><time>2013-8-9T23:37:55Z</time></trkpt>
<trkpt lat="47.325327778" lon="6.815965176"><ele></ele><time>2013-8-9T23:37:58Z</time></trkpt>
<trkpt lat="47.325410927" lon="6.815962074"><ele></ele><time>2013-8-9T23:38:1Z</time></trkpt>
<trkpt lat="47.325706892" lon="6.815808434"><ele></ele><time>2013-8-9T23:38:4Z</time></trkpt>
<trkpt lat="47.325965306" lon="6.815506015"><ele></ele><time>2013-8-9T23:38:7Z</time></trkpt>
<trkpt lat="47.326109055" lon="6.815299066"><ele></ele><time>2013-8-9T23:38:10Z</time></trkpt>
<trkpt lat="47.326020626" lon="6.815113910"><ele></ele><time>2013-8-9T23:38:13Z</time></trkpt>
<trkpt lat="47.325667413" lon="6.815136038"><ele></ele><time>2013-8-9T23:38:16Z</time></trkpt>
<trkpt lat="47.325540008" lon="6.815126231"><ele></ele><time>2013-8-9T23:38:19Z</time></trkpt>
<trkpt lat="47.325356696" lon="6.815033779"><ele></ele><time>2013-8-9T23:38:22Z</time></trkpt>
<trkpt lat="47.325161733" lon="6.814889191"><ele></ele><time>2013-8-9T23:38:25Z</time></trkpt>
<trkpt lat="47.325025192" lon="6.814795733"><ele></ele><time>2013-8-9T23:38:28Z</time></trkpt>
<trkpt lat="47.324727550" lon="6.814507647"><ele></ele><time>2013-8-9T23:38:31Z</time></trkpt>
<trkpt lat="47.324669045" lon="6.814451655"><ele></ele><time>2013-8-9T23:38:34Z</time></trkpt>
<trkpt lat="47.324338546" lon="6.814266918"><ele></ele><time>2013-8-9T23:38:37Z</time></trkpt>
<trkpt lat="47.324165963" lon="6.814206820"><ele></ele><time>2013-8-9T23:38:40Z</time></trkpt>
<trkpt lat="47.324016513" lon="6.814153763"><ele></ele><time>2013-8-9T23:38:43Z</time></trkpt>
<trkpt lat="47.323882235" lon="6.814106572"><ele></ele><time>2013-8-9T23:38:46Z</time></trkpt>
<trkpt lat="47.323192656" lon="6.813822426"><ele></ele><time>2013-8-9T23:38:49Z</time></trkpt>
<trkpt lat="47.322876323" lon="6.813778505"><ele></ele><time>2013-8-9T23:38:52Z</time></trkpt>
<trkpt lat="47.322578514" lon="6.813901467"><ele></ele><time>2013-8-9T23:38:55Z</time></trkpt>
<trkpt lat="47.322283136" lon="6.814160971"><ele></ele><time>2013-8-9T23:38:58Z</time></trkpt>
<trkpt lat="47.322072163" lon="6.814408824"><ele></ele><time>2013-8-9T23:39:1Z</time></trkpt>
<trkpt lat="47.321812157" lon="6.814751308"><ele></ele><time>2013-8-9T23:39:4Z</time></trkpt>
<trkpt lat="47.321016211" lon="6.815552199"><ele></ele><time>2013-8-9T23:39:7Z</time></trkpt>
<trkpt lat="47.320621256" lon="6.815907424"><ele></ele><time>2013-8-9T23:39:10Z</time></trkpt>
<trkpt lat="47.320153210" lon="6.816344205"><ele></ele><time>2013-8-9T23:39:13Z</time></trkpt>
<trkpt lat="47.320023458" lon="6.816448308"><ele></ele><time>2013-8-9T23:39:16Z</time></trkpt>
<trkpt lat="47.319888594" lon="6.816144968"><ele></ele><time>2013-8-9T23:39:19Z</time></trkpt>
<trkpt lat="47.319646021" lon="6.815796113"><ele></ele><time>2013-8-9T23:39:22Z</time></trkpt>
<trkpt lat="47.319774600" lon="6.815342149"><ele></ele><time>2013-8-9T23:39:25Z</time></trkpt>
<trkpt lat="47.319993200" lon="6.814895645"><ele></ele><time>2013-8-9T23:39:28Z</time></trkpt>
<trkpt lat="47.319892533" lon="6.814450649"><ele></ele><time>2013-8-9T23:39:31Z</time></trkpt>
<trkpt lat="47.319442341" lon="6.813672977"><ele></ele><time>2013-8-9T23:39:34Z</time></trkpt>
<trkpt lat="47.319274955" lon="6.813308699"><ele></ele><time>2013-8-9T23:39:37Z</time></trkpt>
<trkpt lat="47.319255425" lon="6.813224377"><ele></ele><time>2013-8-9T23:39:40Z</time></trkpt>
<trkpt lat="47.318870444" lon="6.812966969"><ele></ele><time>2013-8-9T23:39:43Z</time></trkpt>
<trkpt lat="47.318638265" lon="6.812793128"><ele></ele><time>2013-8-9T23:39:46Z</time></trkpt>
<trkpt lat="47.318391167" lon="6.812652396"><ele></ele><time>2013-8-9T23:39:49Z</time></trkpt>
<trkpt lat="47.318173153" lon="6.812483668"><ele></ele><time>2013-8-9T23:39:52Z</time></trkpt>
<trkpt lat="47.318050358" lon="6.812298428"><ele></ele><time>2013-8-9T23:39:55Z</time></trkpt>
<trkpt lat="47.317992523" lon="6.812061137"><ele></ele><time>2013-8-9T23:39:58Z</time></trkpt>
<trkpt lat="47.318027057" lon="6.811974384"><ele></ele><time>2013-8-9T23:40:1Z</time></trkpt>
<trkpt lat="47.318033343" lon="6.811774559"><ele></ele><time>2013-8-9T23:40:4Z</time></trkpt>
<trkpt lat="47.317837123" lon="6.811678167"><ele></ele><time>2013-8-9T23:40:7Z</time></trkpt>
<trkpt lat="47.317700163" lon="6.811688142"><ele></ele><time>2013-8-9T23:40:10Z</time></trkpt>
<trkpt lat="47.317477204" lon="6.811568364"><ele></ele><time>2013-8-9T23:40:13Z</time></trkpt>
<trkpt lat="47.317274949" lon="6.811454706"><ele></ele><time>2013-8-9T23:40:16Z</time></trkpt>
<trkpt lat="47.317301687" lon="6.811536178"><ele></ele><time>2013-8-9T23:40:19Z</time></trkpt>
<trkpt lat="47.317321971" lon="6.811541878"><ele></ele><time>2013-8-9T23:40:22Z</time></trkpt>
<trkpt lat="47.317358265" lon="6.811558893"><ele></ele><time>2013-8-9T23:40:25Z</time></trkpt>
<trkpt lat="47.317373939" lon="6.811540034"><ele></ele><time>2013-8-9T23:40:28Z</time></trkpt>
<trkpt lat="47.317377795" lon="6.811562665"><ele></ele><time>2013-8-9T23:40:31Z</time></trkpt>
<trkpt lat="47.317449544" lon="6.811670624"><ele></ele><time>2013-8-9T23:40:34Z</time></trkpt>
<trkpt lat="47.317556497" lon="6.811695686"><ele></ele><time>2013-8-9T23:40:37Z</time></trkpt>
<trkpt lat="47.317602681" lon="6.811659979"><ele></ele><time>2013-8-9T23:40:40Z</time></trkpt>
<trkpt lat="47.317628330" lon="6.811673893"><ele></ele><time>2013-8-9T23:40:43Z</time></trkpt>
<trkpt lat="47.317818599" lon="6.811757963"><ele></ele><time>2013-8-9T23:40:46Z</time></trkpt>
<trkpt lat="47.317948099" lon="6.811761232"><ele></ele><time>2013-8-9T23:40:49Z</time></trkpt>
<trkpt lat="47.317985147" lon="6.811865671"><ele></ele><time>2013-8-9T23:40:52Z</time></trkpt>
<trkpt lat="47.318130238" lon="6.812179741"><ele></ele><time>2013-8-9T23:40:55Z</time></trkpt>
<trkpt lat="47.318246076" lon="6.812411165"><ele></ele><time>2013-8-9T23:40:58Z</time></trkpt>
<trkpt lat="47.318269964" lon="6.812460534"><ele></ele><time>2013-8-9T23:41:1Z</time></trkpt>
<trkpt lat="47.318264181" lon="6.812449889"><ele></ele><time>2013-8-9T23:41:4Z</time></trkpt>
<trkpt lat="47.318251356" lon="6.812447291"><ele></ele><time>2013-8-9T23:41:7Z</time></trkpt>
<trkpt lat="47.318226797" lon="6.812415356"><ele></ele><time>2013-8-9T23:41:10Z</time></trkpt>
<trkpt lat="47.318231408" lon="6.812427510"><ele></ele><time>2013-8-9T23:41:13Z</time></trkpt>
<trkpt lat="47.318239873" lon="6.812434634"><ele></ele><time>2013-8-9T23:41:16Z</time></trkpt>
<trkpt lat="47.318247668" lon="6.812430443"><ele></ele><time>2013-8-9T23:41:19Z</time></trkpt>
<trkpt lat="47.318248507" lon="6.812439328"><ele></ele><time>2013-8-9T23:41:22Z</time></trkpt>
<trkpt lat="47.318251524" lon="6.812455673"><ele></ele><time>2013-8-9T23:41:25Z</time></trkpt>
<trkpt lat="47.318255464" lon="6.812435724"><ele></ele><time>2013-8-9T23:41:28Z</time></trkpt>
<trkpt lat="47.318252698" lon="6.812447626"><ele></ele><time>2013-8-9T23:41:31Z</time></trkpt>
<trkpt lat="47.318255380" lon="6.812459193"><ele></ele><time>2013-8-9T23:41:34Z</time></trkpt>
<trkpt lat="47.318263510" lon="6.812453158"><ele></ele><time>2013-8-9T23:41:37Z</time></trkpt>
<trkpt lat="47.318263845" lon="6.812459947"><ele></ele><time>2013-8-9T23:41:40Z</time></trkpt>
<trkpt lat="47.318267869" lon="6.812464306"><ele></ele><time>2013-8-9T23:41:43Z</time></trkpt>
<trkpt lat="47.318273568" lon="6.812453745"><ele></ele><time>2013-8-9T23:41:46Z</time></trkpt>
<trkpt lat="47.318271305" lon="6.812475873"><ele></ele><time>2013-8-9T23:41:49Z</time></trkpt>
<trkpt lat="47.318259068" lon="6.812468078"><ele></ele><time>2013-8-9T23:41:52Z</time></trkpt>
<trkpt lat="47.318253117" lon="6.812464139"><ele></ele><time>2013-8-9T23:41:55Z</time></trkpt>
<trkpt lat="47.318251859" lon="6.812445866"><ele></ele><time>2013-8-9T23:41:58Z</time></trkpt>
<trkpt lat="47.318234928" lon="6.812436730"><ele></ele><time>2013-8-9T23:42:1Z</time></trkpt>
<trkpt lat="47.318267785" lon="6.812423402"><ele></ele><time>2013-8-9T23:42:4Z</time></trkpt>
<trkpt lat="47.318276586" lon="6.812424325"><ele></ele><time>2013-8-9T23:42:7Z</time></trkpt>
<trkpt lat="47.318275161" lon="6.812379900"><ele></ele><time>2013-8-9T23:42:10Z</time></trkpt>
<trkpt lat="47.318246243" lon="6.812391048"><ele></ele><time>2013-8-9T23:42:13Z</time></trkpt>
</trkseg></trk></gpx>